[[{"header":{"parameterUnit":"m.s-1","parameterCategory":1,"la1":30.6,"la2":28.766,"lo1":-90.7593,"lo2":-88.6598,"dy":0.0162,"dx":0.0183,"nx":116,"ny":114,"refTime":"2023-05-21T12:00:00:Z","depth":0,"parameterNumber":2,"parameterNumberName":"U-component_of_WINDS"},"data":[0.0,0.0,0.0,0.0,0.0,0.0,0.0,0.0,0.0,0.0,0.0,0.0,0.0,0.0,0.0,0.0,0.0,0.0,0.0,0.0,0.0,0.0,0.0,0.0,0.0,0.0,0.0,0.0,0.0,0.0,0.0,0.0,0.0,0.0,0.0,0.0,0.0,0.0,0.0,0.0,0.0,0.0,0.0,0.0,0.0,0.0,0.0,0.0,0.0,0.0,0.0,0.0,0.0,0.0,0.0,0.0,0.0,0.0,0.0,0.0,0.0,0.0,0.0,0.0,0.0,0.0,0.0,0.0,0.0,0.0,0.0,0.0,0.0,0.0,0.0,0.0,0.0,0.0,0.0,0.0,0.0,0.0,0.0,0.0,0.0,0.0,0.0,0.0,0.0,0.0,0.0,0.0,0.0,0.0,0.0,0.0,0.0,0.0,0.0,0.0,0.0,0.0,0.0,0.0,0.0,0.0,0.0,0.0,0.0,0.0,0.0,0.0,0.0,0.0,0.0,0.0,0.0,0.0,0.0,0.0,0.0,0.0,0.0,0.0,0.0,0.0,0.0,0.0,0.0,0.0,0.0,0.0,0.0,0.0,0.0,0.0,0.0,0.0,0.0,0.0,0.0,0.0,0.0,0.0,0.0,0.0,0.0,0.0,0.0,0.0,0.0,0.0,0.0,0.0,0.0,0.0,0.0,0.0,0.0,0.0,0.0,0.0,0.0,0.0,0.0,0.0,0.0,0.0,0.0,0.0,0.0,0.0,0.0,0.0,0.0,0.0,0.0,0.0,0.0,0.0,0.0,0.0,0.0,0.0,0.0,0.0,0.0,0.0,0.0,0.0,0.0,0.0,0.0,0.0,0.0,0.0,0.0,0.0,0.0,0.0,0.0,0.0,0.0,0.0,0.0,0.0,0.0,0.0,0.0,0.0,0.0,0.0,0.0,0.0,0.0,0.0,0.0,0.0,0.0,0.0,0.0,0.0,0.0,0.0,0.0,0.0,0.0,0.0,0.0,0.0,0.0,0.0,0.0,0.0,0.0,0.0,0.0,0.0,0.0,0.0,0.0,0.0,0.0,0.0,0.0,0.0,0.0,0.0,0.0,0.0,0.0,0.0,0.0,0.0,0.0,0.0,0.0,0.0,0.0,0.0,0.0,0.0,0.0,0.0,0.0,0.0,0.0,0.0,0.0,0.0,0.0,0.0,0.0,0.0,0.0,0.0,0.0,0.0,0.0,0.0,0.0,0.0,0.0,0.0,0.0,0.0,0.0,0.0,0.0,0.0,0.0,0.0,0.0,0.0,0.0,0.0,0.0,0.0,0.0,0.0,0.0,0.0,0.0,0.0,0.0,0.0,0.0,0.0,0.0,0.0,0.0,0.0,0.0,0.0,0.0,0.0,0.0,0.0,0.0,0.0,0.0,0.0,0.0,0.0,0.0,0.0,0.0,0.0,0.0,0.0,0.0,0.0,0.0,0.0,0.0,0.0,0.0,0.0,0.0,0.0,0.0,0.0,0.0,0.0,0.0,0.0,0.0,0.0,0.0,0.0,0.0,0.0,0.0,0.0,0.0,0.0,0.0,0.0,0.0,0.0,0.0,0.0,0.0,0.0,0.0,0.0,0.0,0.0,0.0,0.0,0.0,0.0,0.0,0.0,0.0,0.0,0.0,0.0,0.0,0.0,0.0,0.0,0.0,0.0,0.0,0.0,0.0,0.0,0.0,0.0,0.0,0.0,0.0,0.0,0.0,0.0,0.0,0.0,0.0,0.0,0.0,0.0,0.0,0.0,0.0,0.0,0.0,0.0,0.0,0.0,0.0,0.0,0.0,0.0,0.0,0.0,0.0,0.0,0.0,0.0,0.0,0.0,0.0,0.0,0.0,0.0,0.0,0.0,0.0,0.0,0.0,0.0,0.0,0.0,0.0,0.0,0.0,0.0,0.0,0.0,0.0,0.0,0.0,0.0,0.0,0.0,0.0,0.0,0.0,0.0,0.0,0.0,0.0,0.0,0.0,0.0,0.0,0.0,0.0,0.0,0.0,0.0,0.0,0.0,0.0,0.0,0.0,0.0,0.0,0.0,0.0,0.0,0.0,0.0,0.0,0.0,0.0,0.0,0.0,0.0,0.0,0.0,0.0,0.0,0.0,0.0,0.0,0.0,0.0,0.0,0.0,0.0,0.0,0.0,0.0,0.0,0.0,0.0,0.0,0.0,0.0,0.0,0.0,0.0,0.0,0.0,0.0,0.0,0.0,0.0,0.0,0.0,0.0,0.0,0.0,0.0,0.0,0.0,0.0,0.0,0.0,0.0,0.0,0.0,0.0,0.0,0.0,0.0,0.0,0.0,0.0,0.0,0.0,0.0,0.0,0.0,0.0,0.0,0.0,0.0,0.0,0.0,0.0,0.0,0.0,0.0,0.0,0.0,0.0,0.0,0.0,0.0,0.0,0.0,0.0,0.0,0.0,0.0,0.0,0.0,0.0,0.0,0.0,0.0,0.0,0.0,0.0,0.0,0.0,0.0,0.0,0.0,0.0,0.0,0.0,0.0,0.0,0.0,0.0,0.0,0.0,0.0,0.0,0.0,0.0,0.0,0.0,0.0,0.0,0.0,0.0,0.0,0.0,0.0,0.0,0.0,0.0,0.0,0.0,0.0,0.0,0.0,0.0,0.0,0.0,0.0,0.0,0.0,0.0,0.0,0.0,0.0,0.0,0.0,0.0,0.0,0.0,0.0,0.0,0.0,0.0,0.0,0.0,0.0,0.0,0.0,0.0,0.0,0.0,0.0,0.0,0.0,0.0,0.0,0.0,0.0,0.0,0.0,0.0,0.0,0.0,0.0,0.0,0.0,0.0,0.0,0.0,0.0,0.0,0.0,0.0,0.0,0.0,0.0,0.0,0.0,0.0,0.0,0.0,0.0,0.0,0.0,0.0,0.0,0.0,0.0,0.0,0.0,0.0,0.0,0.0,0.0,0.0,0.0,0.0,0.0,0.0,0.0,0.0,0.0,0.0,0.0,0.0,0.0,0.0,0.0,0.0,0.0,0.0,0.0,0.0,0.0,0.0,0.0,0.0,0.0,0.0,0.0,0.0,0.0,0.0,0.0,0.0,0.0,0.0,0.0,0.0,0.0,0.0,0.0,0.0,0.0,0.0,0.0,0.0,0.0,0.0,0.0,0.0,0.0,0.0,0.0,0.0,0.0,0.0,0.0,0.0,0.0,0.0,0.0,0.0,0.0,0.0,0.0,0.0,0.0,0.0,0.0,0.0,0.0,0.0,0.0,0.0,0.0,0.0,0.0,0.0,0.0,0.0,0.0,0.0,0.0,0.0,0.0,0.0,0.0,0.0,0.0,0.0,0.0,0.0,0.0,0.0,0.0,0.0,0.0,0.0,0.0,0.0,0.0,0.0,0.0,0.0,0.0,0.0,0.0,0.0,0.0,0.0,0.0,0.0,0.0,0.0,0.0,0.0,0.0,0.0,0.0,0.0,0.0,0.0,0.0,0.0,0.0,0.0,0.0,0.0,0.0,0.0,0.0,0.0,0.0,0.0,0.0,0.0,0.0,0.0,0.0,0.0,0.0,0.0,0.0,0.0,0.0,0.0,0.0,0.0,0.0,0.0,0.0,0.0,0.0,0.0,0.0,0.0,0.0,0.0,0.0,0.0,0.0,0.0,0.0,0.0,0.0,0.0,0.0,0.0,0.0,0.0,0.0,0.0,0.0,0.0,0.0,0.0,0.0,0.0,0.0,0.0,0.0,0.0,0.0,0.0,0.0,0.0,0.0,0.0,0.0,0.0,0.0,0.0,0.0,0.0,0.0,0.0,0.0,0.0,0.0,0.0,0.0,0.0,0.0,0.0,0.0,0.0,0.0,0.0,0.0,0.0,0.0,0.0,0.0,0.0,0.0,0.0,0.0,0.0,0.0,0.0,0.0,0.0,0.0,0.0,0.0,0.0,0.0,0.0,0.0,0.0,0.0,0.0,0.0,0.0,0.0,0.0,0.0,0.0,0.0,0.0,0.0,0.0,0.0,0.0,0.0,0.0,0.0,0.0,0.0,0.0,0.0,0.0,0.0,0.0,0.0,0.0,0.0,0.0,0.0,0.0,0.0,0.0,0.0,0.0,0.0,0.0,0.0,0.0,0.0,0.0,0.0,0.0,0.0,0.0,0.0,0.0,0.0,0.0,0.0,0.0,0.0,0.0,0.0,0.0,0.0,0.0,0.0,0.0,0.0,0.0,0.0,0.0,0.0,0.0,0.0,0.0,0.0,0.0,0.0,0.0,0.0,0.0,0.0,0.0,0.0,0.0,0.0,0.0,0.0,0.0,0.0,0.0,0.0,0.0,0.0,0.0,0.0,0.0,0.0,0.0,0.0,0.0,0.0,0.0,0.0,0.0,0.0,0.0,0.0,0.0,0.0,0.0,0.0,0.0,0.0,0.0,0.0,0.0,0.0,0.0,0.0,0.0,0.0,0.0,0.0,0.0,0.0,0.0,0.0,0.0,0.0,0.0,0.0,0.0,0.0,0.0,0.0,0.0,0.0,0.0,0.0,0.0,0.0,0.0,0.0,0.0,0.0,0.0,0.0,0.0,0.0,0.0,0.0,0.0,0.0,0.0,0.0,0.0,0.0,0.0,0.0,0.0,0.0,0.0,0.0,0.0,0.0,0.0,0.0,0.0,0.0,0.0,0.0,0.0,0.0,0.0,0.0,0.0,0.0,0.0,0.0,0.0,0.0,0.0,0.0,0.0,0.0,0.0,0.0,0.0,0.0,0.0,0.0,0.0,0.0,0.0,0.0,0.0,0.0,0.0,0.0,0.0,0.0,0.0,0.0,0.0,0.0,0.0,0.0,0.0,0.0,0.0,0.0,0.0,0.0,0.0,0.0,0.0,0.0,0.0,0.0,0.0,0.0,0.0,0.0,0.0,0.0,0.0,0.0,0.0,0.0,0.0,0.0,0.0,0.0,0.0,0.0,0.0,0.0,0.0,0.0,0.0,0.0,0.0,0.0,0.0,0.0,0.0,0.0,0.0,0.0,0.0,0.0,0.0,0.0,0.0,0.0,0.0,0.0,0.0,0.0,0.0,0.0,0.0,0.0,0.0,0.0,0.0,0.0,0.0,0.0,0.0,0.0,0.0,0.0,0.0,0.0,0.0,0.0,0.0,0.0,0.0,0.0,0.0,0.0,0.0,0.0,0.0,0.0,0.0,0.0,0.0,0.0,0.0,0.0,0.0,0.0,0.0,0.0,0.0,0.0,0.0,0.0,0.0,0.0,0.0,0.0,0.0,0.0,0.0,0.0,0.0,0.0,0.0,0.0,0.0,0.0,0.0,0.0,0.0,0.0,0.0,0.0,0.0,0.0,0.0,0.0,0.0,0.0,0.0,0.0,0.0,0.0,0.0,0.0,0.0,0.0,0.0,0.0,0.0,0.0,0.0,0.0,0.0,0.0,0.0,0.0,0.0,0.0,0.0,0.0,0.0,0.0,0.0,0.0,0.0,0.0,0.0,0.0,0.0,0.0,0.0,0.0,0.0,0.0,0.0,0.0,0.0,0.0,0.0,0.0,0.0,0.0,0.0,0.0,0.0,0.0,0.0,0.0,0.0,0.0,0.0,0.0,0.0,0.0,0.0,0.0,0.0,0.0,0.0,0.0,0.0,0.0,0.0,0.0,0.0,0.0,0.0,0.0,0.0,0.0,0.0,0.0,0.0,0.0,0.0,0.0,0.0,0.0,0.0,0.0,0.0,0.0,0.0,0.0,0.0,0.0,0.0,0.0,0.0,0.0,0.0,0.0,0.0,0.0,0.0,0.0,0.0,0.0,0.0,0.0,0.0,0.0,0.0,0.0,0.0,0.0,0.0,0.0,0.0,0.0,0.0,0.0,0.0,0.0,0.0,0.0,0.0,0.0,0.0,0.0,0.0,0.0,0.0,0.0,0.0,0.0,0.0,0.0,0.0,0.0,0.0,0.0,0.0,0.0,0.0,0.0,0.0,0.0,0.0,0.0,0.0,0.0,0.0,0.0,0.0,0.0,0.0,0.0,0.0,0.0,0.0,0.0,0.0,0.0,0.0,0.0,0.0,0.0,0.0,0.0,2.7592,0.0,0.0,0.0,0.0,0.0,0.0,0.0,0.0,0.0,0.0,0.0,0.0,0.0,0.0,0.0,0.0,0.0,0.0,0.0,0.0,0.0,0.0,0.0,0.0,0.0,0.0,0.0,0.0,0.0,0.0,0.0,0.0,0.0,0.0,0.0,0.0,0.0,0.0,1.9026,1.9517,2.0509,2.1942,2.1534,2.1256,2.1119,0.0,0.0,0.0,0.0,0.0,0.0,0.0,0.0,0.0,0.0,0.0,0.0,0.0,0.0,0.0,0.0,0.0,0.0,0.0,0.0,0.0,0.0,0.0,0.0,0.0,0.0,0.0,0.0,0.0,0.0,0.0,0.0,0.0,0.0,0.0,0.0,0.0,0.0,0.0,0.0,0.0,0.0,0.0,0.0,0.0,0.0,0.0,0.0,0.0,0.0,0.0,0.0,0.0,0.0,0.0,0.0,0.0,0.0,0.0,0.0,0.0,0.0,0.0,0.0,0.0,0.0,0.0,0.0,0.0,0.0,0.0,2.8567,0.0,0.0,0.0,0.0,0.0,0.0,0.0,0.0,0.0,0.0,0.0,0.0,0.0,0.0,0.0,0.0,0.0,0.0,0.0,0.0,0.0,0.0,0.0,1.8641,1.8622,1.8678,1.8619,1.8561,0.0,0.0,0.0,0.0,0.0,0.0,0.0,1.8362,1.8897,1.9961,2.1238,2.2521,2.3816,2.4268,2.4025,2.3133,2.26,0.0,0.0,0.0,0.0,0.0,0.0,0.0,0.0,0.0,0.0,0.0,0.0,0.0,0.0,0.0,0.0,0.0,0.0,0.0,0.0,0.0,0.0,0.0,0.0,0.0,0.0,0.0,0.0,0.0,0.0,0.0,0.0,0.0,0.0,0.0,0.0,0.0,0.0,0.0,0.0,0.0,0.0,0.0,0.0,0.0,0.0,0.0,0.0,0.0,0.0,0.0,0.0,0.0,0.0,0.0,0.0,0.0,0.0,0.0,0.0,0.0,0.0,0.0,3.0618,3.064,3.0672,3.0751,3.0534,3.0074,3.0402,3.014,2.9486,3.0074,0.0,0.0,0.0,0.0,0.0,0.0,0.0,0.0,0.0,0.0,0.0,0.0,0.0,0.0,0.0,0.0,0.0,0.0,0.0,0.0,0.0,1.8676,1.8544,1.8622,1.8563,1.8465,1.8351,0.0,0.0,0.0,0.0,0.0,1.8979,1.9041,1.9849,2.1422,2.3784,2.5226,2.5837,2.6772,2.7265,2.7341,2.6266,2.6163,2.683,0.0,0.0,0.0,0.0,0.0,0.0,0.0,0.0,0.0,0.0,0.0,0.0,0.0,0.0,0.0,0.0,0.0,0.0,0.0,0.0,0.0,0.0,0.0,0.0,0.0,0.0,0.0,0.0,0.0,0.0,0.0,0.0,0.0,0.0,0.0,0.0,0.0,0.0,0.0,0.0,0.0,2.9644,3.0277,0.0,0.0,0.0,0.0,0.0,0.0,0.0,0.0,0.0,0.0,0.0,0.0,0.0,3.0453,3.0442,2.9969,3.0064,3.0795,3.1003,3.1179,3.1383,3.2035,3.2017,3.1544,3.1573,0.0,2.8881,2.8434,0.0,0.0,0.0,0.0,0.0,0.0,0.0,0.0,0.0,0.0,0.0,0.0,0.0,0.0,0.0,0.0,0.0,0.0,0.0,0.0,0.0,1.9144,1.9395,1.9396,2.0255,2.0358,1.9332,1.96,0.0,0.0,0.0,1.8979,1.9479,2.0182,2.1707,2.4063,2.602,2.7295,2.7959,2.8705,2.9341,2.988,2.9344,2.8518,2.7482,2.728,0.0,0.0,0.0,0.0,0.0,0.0,0.0,0.0,0.0,0.0,0.0,0.0,0.0,0.0,0.0,0.0,0.0,0.0,0.0,0.0,0.0,0.0,0.0,0.0,0.0,0.0,0.0,0.0,0.0,0.0,0.0,0.0,0.0,0.0,0.0,0.0,0.0,0.0,0.0,3.013,3.0621,3.1958,3.2166,3.2656,0.0,0.0,0.0,0.0,0.0,0.0,0.0,0.0,0.0,3.2039,3.1958,3.183,3.1627,3.1692,3.163,3.1375,3.1792,3.1885,3.1675,3.2001,3.1962,3.1678,3.1389,3.0751,2.9863,2.9737,2.9457,2.9093,0.0,0.0,0.0,0.0,2.8081,2.7945,0.0,0.0,0.0,0.0,0.0,0.0,0.0,0.0,0.0,0.0,0.0,0.0,1.9074,1.9903,2.0445,2.0427,2.1785,2.1944,2.0325,2.0859,2.0665,1.9399,1.9365,1.9578,2.0054,2.1687,2.3804,2.6491,2.7861,2.9015,2.9886,3.03,3.0832,3.1474,3.1474,3.041,2.8575,2.8355,2.7969,2.7509,0.0,0.0,0.0,0.0,0.0,0.0,0.0,0.0,0.0,0.0,0.0,0.0,0.0,0.0,0.0,0.0,0.0,0.0,0.0,0.0,0.0,0.0,0.0,0.0,0.0,0.0,0.0,0.0,0.0,0.0,0.0,0.0,0.0,0.0,0.0,0.0,0.0,3.113,3.163,3.3389,3.3187,3.3384,0.0,0.0,0.0,0.0,0.0,0.0,3.2121,3.2816,3.3228,3.3266,3.3097,3.2961,3.2883,3.3079,3.2875,3.2321,3.2865,3.2868,3.235,3.2476,3.2406,3.2151,3.1789,3.1502,3.1217,3.0895,3.0148,2.9242,2.9426,2.916,2.8695,2.8329,2.8204,2.8094,0.0,0.0,0.0,0.0,0.0,0.0,0.0,0.0,0.0,0.0,0.0,2.0262,2.0298,2.097,2.1479,2.1586,2.2264,2.2164,2.0944,2.1643,2.1469,2.0018,2.0076,2.0331,2.075,2.3564,2.6028,2.8067,2.917,3.0314,3.1492,3.1497,3.1785,3.2247,3.2247,3.1952,3.1438,3.0872,3.0455,3.0089,2.8665,0.0,0.0,0.0,0.0,0.0,0.0,0.0,0.0,0.0,0.0,0.0,0.0,0.0,0.0,0.0,0.0,0.0,0.0,0.0,0.0,0.0,0.0,0.0,0.0,0.0,0.0,0.0,0.0,0.0,0.0,0.0,0.0,0.0,0.0,0.0,0.0,0.0,0.0,3.3474,3.3071,0.0,0.0,0.0,0.0,3.3008,3.364,3.3773,3.316,3.3746,3.3926,3.3422,3.2773,3.2809,3.3535,3.2934,3.298,3.3687,3.4294,3.4298,3.3803,3.4363,3.4315,3.3771,3.3786,3.3319,3.2491,3.0628,3.0279,3.0941,3.0644,3.0941,3.1512,3.073,3.0394,3.0253,0.0,0.0,0.0,0.0,0.0,0.0,0.0,0.0,1.8843,1.8842,1.9686,2.0279,2.021,2.1708,2.2891,2.3341,2.4707,2.506,2.4007,2.3891,2.3285,2.1976,2.1199,2.1755,2.3842,2.6021,2.7878,2.9432,3.0704,3.1562,3.1989,3.2511,3.2847,3.3006,3.3006,3.2798,3.2366,3.1864,3.1167,3.0415,3.0058,2.8779,0.0,0.0,0.0,0.0,0.0,0.0,0.0,0.0,0.0,0.0,0.0,0.0,0.0,0.0,0.0,0.0,0.0,0.0,0.0,0.0,0.0,0.0,0.0,0.0,0.0,0.0,0.0,0.0,0.0,0.0,0.0,0.0,0.0,0.0,0.0,0.0,0.0,3.3149,3.3163,0.0,3.4552,3.4239,3.3928,3.3846,3.3733,3.377,3.4024,3.425,3.4738,3.5537,3.5374,3.5162,3.5094,3.5196,3.4792,3.3872,3.4476,3.4488,3.3928,3.4115,3.4059,3.3759,3.3759,3.3578,3.3141,3.2451,3.1856,3.1357,3.1207,3.1357,3.1543,3.1262,3.1167,3.1086,0.0,0.0,0.0,0.0,0.0,0.0,0.0,0.0,1.8968,1.9344,2.0223,2.0926,2.1185,2.2818,2.4185,2.4843,2.6324,2.6686,2.5467,2.5317,2.4495,2.2728,2.2201,2.3423,2.6584,2.7789,2.9214,3.0917,3.1846,3.2409,3.2614,3.3158,3.3393,3.3393,3.3393,3.3256,3.2988,3.2666,3.1916,3.09,3.0625,2.9523,2.7963,0.0,0.0,0.0,0.0,0.0,0.0,0.0,0.0,0.0,0.0,0.0,0.0,0.0,0.0,0.0,0.0,0.0,0.0,0.0,0.0,0.0,0.0,0.0,0.0,0.0,0.0,0.0,0.0,0.0,0.0,0.0,0.0,0.0,0.0,0.0,3.1973,3.3647,3.3544,3.3878,3.5205,3.4793,3.451,3.472,3.461,3.4759,3.5233,3.5307,3.5803,3.6858,3.6406,3.6046,3.5935,3.5975,3.554,3.4607,3.4971,3.4911,3.4485,3.4438,3.4391,3.4345,3.4345,3.4282,3.4173,3.4173,3.3664,3.2826,3.2377,3.2198,3.2198,3.2198,3.2198,3.2198,0.0,0.0,0.0,0.0,0.0,0.0,0.0,1.8948,1.9287,2.0356,2.1311,2.2287,2.3285,2.4337,2.5267,2.6065,2.6938,2.677,2.521,2.5786,2.4962,2.218,2.3213,2.5375,2.8615,2.8766,3.0039,3.2517,3.2535,3.2849,3.3422,3.3422,3.3422,3.3393,3.3393,3.3411,3.3393,3.3393,3.2734,3.1625,3.0378,2.9921,2.9677,0.0,0.0,0.0,0.0,0.0,0.0,0.0,0.0,0.0,0.0,0.0,0.0,0.0,0.0,0.0,0.0,0.0,0.0,0.0,0.0,0.0,0.0,0.0,0.0,0.0,0.0,0.0,0.0,0.0,0.0,0.0,0.0,0.0,3.3128,3.2567,3.2944,3.5058,3.4265,3.4014,3.5357,3.4966,3.4895,3.5639,3.6383,3.6823,3.684,3.6952,3.7035,3.7051,3.5664,3.5279,3.6052,3.5187,3.5195,3.5973,3.5767,3.5688,3.5688,3.5554,3.5504,3.5504,3.5504,3.5504,3.5504,3.5504,3.5504,3.537,3.4068,3.3559,3.3559,3.3559,3.3559,3.3559,0.0,0.0,0.0,0.0,0.0,0.0,0.0,1.9036,1.9289,2.0354,2.1322,2.2293,2.337,2.4931,2.6227,2.6972,2.788,2.8064,2.7231,2.6526,2.5306,2.3463,2.5476,2.735,2.8805,3.0216,3.1603,3.2937,3.337,3.3674,3.386,3.386,3.3753,3.3633,3.3633,3.352,3.3364,3.3099,3.2781,3.2433,3.1689,3.0514,2.9093,0.0,0.0,0.0,0.0,0.0,0.0,0.0,0.0,0.0,0.0,0.0,0.0,0.0,0.0,0.0,0.0,0.0,0.0,0.0,0.0,0.0,0.0,0.0,0.0,0.0,0.0,0.0,0.0,0.0,0.0,0.0,0.0,3.4496,3.3399,3.3601,3.4247,3.538,3.5701,3.622,3.7115,3.7034,3.706,3.7263,3.7483,3.766,3.7753,3.7801,3.7821,3.797,3.7528,3.7112,3.6669,3.6428,3.6059,3.5619,3.5554,3.5539,3.5539,3.5504,3.5504,3.5504,3.5504,3.5504,3.5504,3.5504,3.5504,3.5474,3.51,3.4951,3.4951,3.4951,3.4951,3.4951,0.0,0.0,0.0,0.0,0.0,0.0,0.0,1.9182,1.9549,2.1064,2.1649,2.2499,2.4001,2.5475,2.6656,2.7419,2.7509,2.732,2.6823,2.5512,2.5185,2.6075,2.753,2.9063,3.0745,3.1896,3.2851,3.3604,3.395,3.4074,3.3998,3.3998,3.3947,3.3815,3.3726,3.3633,3.3491,3.319,3.3068,3.2988,3.2486,3.1359,2.9941,2.9107,2.8109,2.7088,2.6651,2.6639,2.6724,2.6216,0.0,0.0,0.0,0.0,0.0,0.0,0.0,0.0,0.0,0.0,0.0,0.0,0.0,0.0,0.0,0.0,0.0,0.0,0.0,0.0,0.0,0.0,0.0,0.0,3.5174,3.5359,3.4834,3.5173,3.574,3.6485,3.6975,3.755,3.8294,3.8362,3.8481,3.8802,3.8819,3.8858,3.8974,3.8722,3.8665,3.8761,3.8359,3.7887,3.7355,3.7213,3.6843,3.6312,3.6312,3.6312,3.6312,3.6312,3.6312,3.6312,3.6312,3.6097,3.5813,3.5813,3.5595,0.0,0.0,0.0,0.0,0.0,3.5279,3.5052,0.0,0.0,0.0,0.0,0.0,0.0,0.0,1.9181,1.977,2.1857,2.1967,2.2684,2.4892,2.5989,2.6842,2.7567,2.6593,2.5693,2.5132,2.4093,2.523,2.9055,2.924,3.0572,3.3344,3.34,3.3708,3.434,3.434,3.4245,3.4074,3.4074,3.4049,3.4023,3.386,3.3753,3.3726,3.352,3.3422,3.3393,3.2943,3.2317,3.1502,3.0,2.9197,2.8691,2.7439,2.69,2.6872,2.7221,0.0,0.0,0.0,0.0,0.0,0.0,0.0,0.0,0.0,0.0,0.0,0.0,0.0,0.0,0.0,0.0,0.0,0.0,0.0,0.0,0.0,0.0,0.0,0.0,3.5831,3.6202,3.6941,3.7178,3.7466,3.7973,3.8176,3.8531,3.9174,3.9309,3.9631,4.0273,4.0324,4.0337,4.0255,0.0,0.0,0.0,0.0,3.8007,3.8007,3.7639,3.7404,3.7404,3.7404,3.7404,3.7404,3.7404,3.7404,3.7404,3.7404,3.6976,3.6328,3.6257,3.5653,3.4941,3.538,3.5583,3.5583,3.5648,3.5259,3.4747,0.0,0.0,0.0,0.0,0.0,0.0,0.0,1.8199,1.8742,2.0816,2.0951,2.199,2.4938,2.6634,2.7607,2.7815,2.7243,2.633,2.5097,2.6425,2.7893,2.9307,3.033,3.167,3.3428,3.3423,3.3773,3.4539,3.4539,3.4517,3.4495,3.4495,3.4404,3.4245,3.4197,3.4099,3.3921,3.3726,3.3643,3.3615,3.3375,3.2749,3.1933,3.1165,3.0717,3.0403,3.0039,2.9842,2.9682,2.8665,2.892,2.9574,2.8868,2.9211,0.0,0.0,0.0,0.0,0.0,0.0,0.0,0.0,0.0,0.0,0.0,0.0,0.0,0.0,0.0,0.0,0.0,0.0,0.0,3.6915,3.7689,3.8267,3.8548,3.9597,3.9952,3.8903,3.9834,4.0629,4.0764,4.1305,4.1711,4.1847,4.1863,4.1398,4.044,4.028,3.9745,3.8688,3.8361,3.8111,3.8007,3.779,3.7556,3.7404,0.0,0.0,3.7404,3.7404,3.7404,3.7404,3.7404,3.7336,3.7129,3.647,3.5653,3.4952,3.5769,3.6035,3.6105,3.6826,3.6963,3.6811,0.0,0.0,0.0,0.0,0.0,0.0,0.0,1.6684,1.68,1.8033,1.8233,1.9125,2.1433,2.3281,2.4505,2.4907,2.5314,2.5244,2.4504,2.659,2.8817,3.1009,3.1704,3.2764,3.4315,3.4226,3.4337,3.4751,3.4647,3.4602,3.4602,3.4602,3.4539,3.445,3.434,3.4197,3.3998,3.3807,3.3643,3.3549,3.3452,3.3037,3.2417,3.195,3.1449,3.0935,3.0855,3.0814,3.0714,2.9978,3.0145,3.0493,2.9892,3.0075,3.0402,0.0,0.0,0.0,0.0,0.0,0.0,0.0,0.0,0.0,0.0,0.0,0.0,0.0,0.0,3.5686,0.0,0.0,3.7051,3.8031,3.8914,3.9581,4.0054,4.1052,4.1339,4.024,4.1068,4.1745,4.1745,4.2066,4.2162,4.182,4.182,4.1378,4.043,4.0384,4.0071,3.9441,3.9184,3.9047,3.8856,3.8632,3.8492,3.8407,3.8407,3.8407,3.8407,3.8407,3.8407,3.8407,3.8407,3.7952,3.7025,3.5829,3.5073,3.476,3.56,3.5541,3.5068,3.5856,3.5942,3.5653,0.0,0.0,0.0,0.0,0.0,0.0,0.0,1.5044,1.4591,1.4604,1.5055,1.586,1.708,1.9272,2.0927,2.1556,2.3435,2.4375,2.3908,2.6483,2.9471,3.2716,3.2851,3.3596,3.5189,3.5047,3.4962,3.4963,3.4792,3.4691,3.4691,3.4668,3.4647,3.4647,3.445,3.4269,3.4099,3.3842,3.3671,3.3491,3.3422,3.3178,3.2763,3.2453,3.186,3.1218,3.1055,3.1015,3.1015,3.0952,3.0912,3.0912,3.0912,3.0798,3.0594,3.0094,3.011,0.0,0.0,0.0,0.0,0.0,0.0,0.0,0.0,0.0,3.5367,3.6143,3.6285,3.6521,3.7367,3.7638,3.814,3.9223,4.0003,4.0713,4.1339,4.2049,4.2286,4.1711,4.2151,4.2506,4.2506,4.2517,4.2366,4.1959,4.1716,4.1287,4.0833,4.0672,4.0431,4.0261,4.0066,3.9854,3.9681,3.9481,3.9424,3.9424,3.9424,3.9424,3.9424,3.9265,3.9192,3.9192,3.9031,3.8069,3.6582,3.5182,3.4551,3.4481,3.5196,3.4847,3.4012,3.4968,3.4893,3.4525,0.0,0.0,0.0,0.0,0.0,0.0,0.0,0.0,1.2616,1.1163,1.25,1.3725,1.4076,1.7519,1.9934,2.0194,2.4172,2.5844,2.3934,2.7898,3.1153,3.2997,3.3012,3.3735,3.5339,3.5228,3.5184,3.5168,3.5081,3.5047,3.5047,3.4926,3.487,3.487,3.4668,3.4539,3.4517,3.4124,3.3947,3.3895,3.3549,3.3178,3.2763,3.2453,3.2248,3.2056,3.1295,3.1218,3.147,3.1117,3.0952,3.0912,3.0975,3.0988,3.0811,3.004,2.9916,3.0064,3.0126,3.177,3.3634,3.4437,3.4857,3.5334,0.0,0.0,3.6563,3.7467,3.7577,3.7736,3.8484,3.9076,3.9715,4.0643,4.1418,4.194,4.2168,4.2811,4.3267,4.3183,4.325,4.3301,4.3301,4.332,4.3589,4.4187,4.3043,4.231,4.2077,4.153,4.0811,4.0066,3.9839,3.9696,3.9681,3.9481,3.9424,3.9424,3.9424,3.9424,3.9352,3.8664,3.8352,3.8277,3.7525,3.666,3.5816,3.5669,3.5114,3.4397,3.4481,3.4485,3.4518,3.606,3.6606,3.6683,0.0,0.0,0.0,0.0,0.0,0.0,0.0,0.0,0.0,0.9835,1.1019,1.1867,1.1491,1.416,1.5596,1.4662,2.059,2.3949,2.2938,2.7776,3.1227,3.2419,3.2917,3.3703,3.4863,3.5193,3.5366,3.5372,3.5228,3.5165,3.5165,3.5066,3.4981,3.4908,3.4811,3.4628,3.4409,3.4245,3.4049,3.3807,3.3643,3.3386,3.3099,3.2749,3.2601,3.2284,2.9964,2.9708,0.0,2.9417,2.9603,3.0269,3.0891,3.0886,3.0568,3.0508,3.052,3.0779,3.2031,3.3283,3.45,0.0,3.5909,3.6186,3.7101,3.7205,3.7344,3.8258,3.8402,3.8706,3.9867,4.027,4.0759,0.0,4.2365,4.2909,4.2946,4.3606,4.4096,4.4096,4.4096,4.4096,4.4096,4.4108,4.3914,4.341,4.2769,4.2013,4.1209,4.0768,4.0301,3.9839,3.9768,3.961,3.9553,3.9409,3.9424,3.9424,3.9424,3.9424,3.9424,3.9046,3.8664,3.8113,3.7295,3.6425,3.5669,3.5114,3.4716,3.4397,3.4397,3.4397,3.4468,3.5182,3.5494,3.5494,0.0,0.0,0.0,0.0,0.0,0.0,0.0,0.0,0.0,0.0,0.9775,1.0633,1.039,1.1686,1.1961,1.0534,1.5719,1.9688,2.1111,2.5264,2.895,3.1868,3.2827,3.3674,3.4481,3.5214,3.5588,3.5585,3.5418,3.535,3.5336,3.5224,3.51,3.4944,3.4908,3.4711,3.4363,3.4316,3.4099,3.378,3.3726,3.3577,3.3364,3.2939,3.2511,3.1783,2.9259,2.8973,2.9557,2.8274,2.8581,2.9634,3.0386,3.0404,3.0195,3.0299,3.0381,3.0869,3.2954,3.4102,0.0,3.6452,3.6915,3.717,3.788,3.8,3.8145,3.8973,3.916,3.9548,4.0811,4.1199,4.1623,4.2489,4.325,4.3741,4.3741,4.4215,4.4587,4.4587,4.4587,4.4587,4.4587,4.4253,4.368,4.2785,4.2094,4.1327,4.0439,4.0121,3.9854,3.961,3.9625,3.9553,3.9424,3.9424,3.9424,3.9424,3.9424,3.9424,3.9352,3.8943,3.8173,3.7092,3.6503,3.5883,3.5264,3.4634,3.4397,3.4397,3.4397,3.4397,3.4397,3.4397,3.4397,3.4397,0.0,0.0,0.0,0.0,0.0,0.0,0.0,0.0,0.0,0.0,0.0,0.0,0.0,1.1035,1.0391,0.9687,1.0148,1.2824,1.8356,1.9535,2.3608,3.1654,3.2827,3.3682,3.4478,3.5346,3.5794,3.5794,3.5728,3.5678,3.5678,3.5489,3.5288,3.5098,3.4963,3.4772,3.458,3.4386,3.4173,3.3972,3.378,3.3577,3.3364,3.2939,3.179,3.0321,2.9895,2.9939,2.9955,2.8404,2.8536,2.9287,2.9184,2.9522,2.9741,2.8903,2.8912,2.9619,3.1753,0.0,3.5385,3.696,3.7948,3.859,3.888,3.8969,3.9172,3.9884,4.0037,4.0273,4.1052,4.1779,4.2506,4.3267,4.4045,4.4536,4.4536,4.4553,4.4587,4.4587,4.4587,4.4587,0.0,4.335,4.2785,4.3246,4.1475,4.0439,4.069,4.0076,3.9625,3.9424,3.9424,3.9424,3.9424,3.9424,3.9424,3.9424,3.9424,3.9424,3.9337,3.7753,3.6108,3.4481,3.4481,3.4481,3.4481,3.4397,3.4397,3.4397,3.4397,3.4397,3.4397,3.4397,3.4397,3.4564,0.0,0.0,0.0,0.0,0.0,0.0,0.0,0.0,0.0,0.0,0.0,0.0,0.0,0.0,0.0,0.0,1.1261,1.3762,1.4578,2.0065,2.416,2.6132,3.0769,3.3429,3.3701,3.5125,3.5845,3.5801,3.5776,3.576,3.5757,3.5658,3.5488,3.5292,3.5165,3.4981,3.4791,3.4564,3.4386,3.4173,3.3972,3.378,3.3387,3.1312,3.041,2.9891,0.0,2.6796,2.7297,2.606,2.6462,2.7494,2.7457,2.8021,2.8756,2.91,3.1159,3.3448,3.3949,0.0,3.7691,3.8677,3.9112,3.9416,3.9678,3.9715,3.9783,4.002,3.988,3.989,4.0559,4.1341,4.2108,4.2839,4.3868,4.4587,4.4587,4.4587,4.4587,4.4587,4.4587,0.0,0.0,0.0,0.0,4.2645,4.1459,4.0547,4.006,3.9681,3.9481,3.9424,3.9424,3.9424,3.9424,3.9424,3.9424,3.9424,3.8885,3.8575,3.859,3.7448,3.6267,3.5264,3.5264,3.495,3.4397,3.4397,3.4397,3.4397,3.4397,3.4397,3.4397,3.4397,3.4397,3.4481,0.0,0.0,0.0,0.0,0.0,0.0,0.0,0.0,0.0,0.0,0.0,0.0,0.0,0.0,0.0,0.0,0.0,1.1546,1.2436,1.7104,2.0666,2.2464,2.7012,2.95,2.9508,3.0674,3.1441,3.1766,3.2827,3.3523,3.3895,3.5127,3.5588,3.5366,3.5258,3.5069,3.485,3.4687,3.3899,3.2805,3.3222,3.2618,3.1356,3.0078,2.9237,0.0,2.6449,2.5755,2.5724,2.5211,2.6074,2.7295,2.6954,2.723,2.8004,2.9679,3.1974,3.4327,3.5794,3.7504,3.9053,3.9901,4.0216,4.0291,4.0152,4.007,4.007,4.007,3.9773,3.9705,4.0363,4.0942,4.1488,4.2053,4.2927,4.3671,4.3943,4.3977,4.4126,4.4575,4.4587,4.4514,0.0,0.0,0.0,4.2252,4.126,4.037,3.9625,3.9481,3.9424,3.9424,3.9424,3.9424,3.9424,3.9424,3.9265,3.8958,3.8427,3.7886,3.7246,3.6752,3.6042,3.5277,3.5277,3.495,3.4397,3.4397,3.4397,3.4397,3.4397,3.4397,3.4397,3.4397,3.4397,3.4397,0.0,0.0,0.0,0.0,0.0,0.0,0.0,0.0,0.0,0.0,0.0,0.0,0.0,0.0,0.0,0.0,0.0,0.0,1.1732,1.1197,1.3716,2.0535,2.2045,2.2721,2.2692,2.2917,2.3508,2.446,2.7268,2.9153,3.0228,3.3571,3.502,3.4827,3.4737,3.4569,3.4338,3.4244,3.2526,3.003,3.151,3.0274,2.7727,2.9106,2.8197,2.6325,2.7304,2.6674,2.5465,2.5914,2.7227,2.8535,2.7752,2.7371,2.7771,3.0614,3.1671,3.28,3.7152,3.879,3.9546,4.0617,4.1185,4.1258,4.0336,4.0138,4.0054,4.0036,3.9654,3.9568,0.0,0.0,4.0607,4.0955,4.1461,4.2038,4.2706,4.286,4.332,0.0,0.0,0.0,0.0,0.0,0.0,4.1997,0.0,3.9854,3.9409,3.9424,3.9424,3.9424,3.9424,3.9424,3.9424,3.9424,3.9046,3.8277,3.8202,3.7323,3.5749,3.5669,3.5196,3.4397,3.4397,3.4397,3.4397,3.4397,3.4397,3.4397,3.4397,3.4397,3.4397,3.4397,3.4397,3.4397,0.0,0.0,0.0,0.0,0.0,0.0,0.0,0.0,0.0,0.0,0.0,0.0,0.0,0.0,0.0,0.0,0.0,0.0,0.8844,1.229,1.4725,1.5594,2.0412,2.2854,2.2407,2.3275,2.3797,2.3894,2.4707,2.5708,2.6909,2.738,2.7856,2.8365,2.8141,2.8148,2.8338,2.8722,2.8728,2.8567,2.9199,2.9071,2.8294,2.6648,2.6139,2.6098,2.4855,2.5351,2.6659,2.6785,2.7519,2.8632,2.9874,3.0854,3.1817,3.3265,3.5762,3.824,3.8798,4.0419,4.1915,4.1872,4.1674,4.1366,4.0754,4.0353,3.9816,3.8747,3.8242,3.7772,3.7322,0.0,0.0,3.9671,4.1563,0.0,4.3206,4.3732,0.0,4.4592,0.0,4.3706,4.3512,4.2458,0.0,0.0,4.0509,3.9854,3.9409,3.9424,3.9424,3.9424,3.9424,3.9424,3.9424,3.9424,3.9265,3.9119,3.7843,3.6972,3.6582,3.5264,3.4634,3.4397,3.4397,3.4397,3.4397,3.4397,3.4397,3.4397,3.4397,3.4397,3.4397,3.4397,3.4397,3.4397,0.0,0.0,0.0,0.0,0.0,0.0,0.0,0.0,0.0,0.0,0.0,0.0,0.0,0.0,0.0,0.0,0.0,0.0,0.0,1.2153,1.3491,1.2636,1.603,1.7821,1.762,1.7985,1.8418,1.8984,2.0264,2.1545,2.2882,2.4403,2.5316,2.5714,2.6096,2.6335,2.647,2.6924,2.6701,0.0,0.0,2.6759,2.5649,2.4823,2.4695,2.4821,2.3972,2.5344,2.777,0.0,0.0,3.0077,3.1703,3.2672,3.3538,3.5393,0.0,4.0059,4.1071,4.2356,4.333,4.2857,4.2359,4.1638,4.0164,3.9477,3.8834,3.7712,3.712,0.0,3.6602,0.0,0.0,0.0,0.0,0.0,4.2441,4.3152,4.3809,0.0,4.3856,0.0,4.3015,4.2013,4.1142,0.0,4.0176,3.9854,3.9409,3.9424,3.9424,3.9424,3.9424,3.9424,3.9424,3.9424,3.9192,3.8885,3.7933,3.7063,3.6346,3.5413,3.4799,3.4397,0.0,3.4397,3.4397,3.4397,3.4397,3.4397,3.4397,3.4314,3.4243,3.4243,3.4399,3.4451,0.0,0.0,0.0,0.0,0.0,0.0,0.0,0.0,0.0,0.0,0.0,0.0,0.0,0.0,0.0,0.0,0.0,0.0,0.0,0.0,1.1492,1.1205,1.1344,1.1502,1.1593,1.1176,1.1622,1.3056,1.5421,1.737,1.8899,2.2559,2.4251,2.4304,2.5422,2.585,2.5816,2.6348,2.5319,2.3472,2.5203,2.4356,2.2251,0.0,2.3846,2.335,2.4221,2.6201,2.8864,3.1694,3.243,3.2344,3.3515,3.4057,3.478,3.7392,3.8851,4.0275,4.3278,4.4023,4.3873,4.3501,4.2987,4.1831,3.9205,3.823,3.7635,3.6734,0.0,3.6079,3.6747,3.7501,3.7922,3.7688,0.0,4.0679,4.1425,4.217,4.301,4.4142,4.3621,4.2925,4.2332,4.1575,4.0752,3.9753,3.9854,3.9783,3.9424,3.9424,3.9424,3.9424,3.9424,3.9424,3.9424,3.9424,3.9046,3.8352,3.8113,3.7246,3.5816,3.5669,3.5114,3.4397,3.4397,3.4397,3.4397,3.4397,3.4397,3.4397,3.4397,3.4314,3.4089,3.4166,3.4345,3.461,0.0,0.0,0.0,0.0,0.0,0.0,0.0,0.0,0.0,0.0,1.2639,1.2484,0.0,0.0,0.0,0.0,0.0,0.0,0.0,0.0,0.0,1.1307,1.2075,1.2256,1.1771,1.2024,1.2596,1.34,1.3716,1.4882,1.6923,1.752,1.8154,1.8783,1.941,1.9699,1.9911,2.1625,2.242,2.2615,2.4082,2.4294,2.3741,2.3952,0.0,0.0,2.5487,2.7646,3.0071,3.257,3.3911,3.4722,3.5982,3.7685,3.9334,3.9895,4.1089,4.25,4.3751,4.3607,4.3168,4.3358,4.2536,4.1165,3.9155,3.8259,0.0,0.0,3.5027,3.4847,3.5069,3.5548,3.6477,3.8149,0.0,0.0,0.0,0.0,4.387,0.0,0.0,0.0,0.0,0.0,0.0,0.0,0.0,3.9625,3.9409,3.9424,3.9424,3.9424,3.9424,3.9424,3.9424,3.9424,3.9352,3.9192,3.7767,3.6972,3.6646,3.5264,3.4551,3.4397,3.4397,0.0,3.4397,3.4397,3.4397,3.4397,3.4397,3.4314,3.414,3.4606,3.468,3.4661,0.0,0.0,0.0,0.0,0.0,0.0,0.0,1.2745,1.2627,1.2745,1.3058,1.3156,1.2912,1.2887,0.0,0.0,0.0,0.0,0.0,0.0,0.0,0.0,1.2453,1.2564,1.2233,1.2939,1.3521,1.4083,0.0,1.4997,1.6142,1.6541,1.6902,1.7146,1.8647,1.9372,1.9546,2.1179,2.2286,2.2999,2.3645,2.3956,2.4066,0.0,0.0,0.0,0.0,2.6975,2.9204,3.187,3.3973,3.5709,3.7162,3.8952,4.051,4.051,4.1651,4.3063,4.3878,4.3806,4.3511,4.3429,4.2774,4.1332,3.826,0.0,0.0,0.0,3.4381,3.4728,3.5074,0.0,0.0,0.0,0.0,0.0,0.0,0.0,0.0,0.0,0.0,0.0,0.0,0.0,0.0,0.0,0.0,3.9481,3.9424,3.9424,3.9424,3.9424,3.9424,3.9424,3.9424,3.9424,3.9424,3.9424,3.862,3.7753,3.688,3.6029,3.5251,3.4397,3.4397,0.0,3.4397,3.4397,3.4397,3.4397,3.4397,3.4425,3.4555,3.4667,3.4956,3.5315,0.0,0.0,0.0,0.0,0.0,0.0,0.0,1.2803,1.2662,1.2662,1.3144,1.3532,1.3676,1.3412,1.3528,0.0,0.0,0.0,0.0,0.0,0.0,0.0,0.0,0.0,0.0,0.0,0.0,1.5049,1.5633,0.0,0.0,0.0,0.0,0.0,1.9777,2.0718,2.0784,2.223,2.3138,0.0,0.0,2.409,0.0,0.0,0.0,0.0,0.0,2.5929,2.8143,3.0858,3.3467,3.5862,3.7555,3.9135,4.0415,4.0611,4.165,4.2977,4.3862,4.3969,4.3743,4.334,4.2846,4.1358,3.7282,3.66,0.0,0.0,3.4126,3.4916,3.5559,0.0,3.6447,0.0,0.0,0.0,0.0,0.0,0.0,0.0,0.0,0.0,0.0,0.0,0.0,0.0,0.0,0.0,3.9424,3.9424,3.9424,3.9424,3.9424,3.9424,3.9424,3.9424,3.9337,3.9119,3.9119,3.8234,3.666,3.666,3.5803,3.4397,3.4397,0.0,3.4397,3.4397,3.4397,3.441,3.4541,3.4699,3.4869,3.4953,3.5328,3.591,0.0,0.0,0.0,0.0,0.0,0.0,0.0,1.2365,1.2246,1.2246,1.2401,1.2886,1.3867,1.4417,1.4725,0.0,0.0,0.0,0.0,0.0,0.0,0.0,0.0,0.0,0.0,0.0,0.0,1.6405,1.7014,0.0,0.0,0.0,0.0,0.0,0.0,2.1433,2.1381,2.338,0.0,0.0,0.0,0.0,0.0,0.0,0.0,0.0,0.0,2.576,2.8217,0.0,0.0,3.5145,3.7111,3.8741,4.0123,4.0898,0.0,0.0,4.3775,4.357,4.2961,4.2793,4.2158,4.0587,3.6747,0.0,3.6321,3.4281,3.4294,3.4959,3.5795,3.569,3.5857,0.0,3.7286,3.8206,0.0,0.0,0.0,0.0,0.0,0.0,0.0,0.0,0.0,0.0,0.0,0.0,3.9424,3.9424,3.9424,3.9424,3.9424,3.9424,3.9424,3.9424,3.9031,3.8277,3.8277,3.74,3.5816,3.5816,3.5264,3.4397,3.4397,0.0,0.0,3.4397,3.4397,3.445,3.4999,3.5063,3.496,3.5827,3.6082,3.5961,0.0,0.0,0.0,0.0,0.0,0.0,1.2473,1.2709,1.291,1.2923,1.3531,1.4061,1.434,1.49,1.5393,0.0,0.0,0.0,0.0,0.0,0.0,0.0,0.0,0.0,0.0,0.0,1.7367,1.763,1.8386,0.0,0.0,0.0,0.0,0.0,0.0,2.2565,2.2937,2.4368,0.0,0.0,0.0,0.0,0.0,0.0,0.0,0.0,0.0,0.0,2.6956,0.0,0.0,0.0,3.5621,3.7468,0.0,0.0,4.1393,4.2419,4.2596,4.2774,4.2745,4.2131,4.1507,4.0112,3.6654,0.0,3.6515,3.4223,3.4736,3.5677,3.5854,3.5667,3.5643,3.6105,3.6588,3.7294,3.85,0.0,0.0,0.0,0.0,0.0,0.0,0.0,0.0,0.0,0.0,0.0,3.9424,3.9424,3.9424,3.9424,3.9424,3.9424,3.9424,3.9424,3.9265,3.8885,3.8427,3.7553,3.6439,3.5896,3.5196,3.4397,3.4397,0.0,0.0,3.4397,3.4397,3.4463,3.5064,3.5409,3.57,3.6238,3.6559,3.6616,0.0,0.0,0.0,0.0,0.0,1.2758,1.26,1.3097,1.3504,1.3468,1.4132,1.457,1.453,1.4967,1.5481,1.6032,0.0,0.0,0.0,0.0,0.0,0.0,0.0,0.0,0.0,0.0,1.8559,1.8484,1.9343,1.9656,0.0,0.0,2.0322,2.0939,0.0,0.0,0.0,0.0,0.0,0.0,0.0,0.0,0.0,0.0,0.0,0.0,0.0,0.0,0.0,0.0,0.0,0.0,3.3825,3.5805,3.764,0.0,4.106,4.2149,4.19,4.2359,4.2673,4.1743,4.1092,3.9898,0.0,0.0,3.6715,3.4597,3.5256,3.6165,3.5949,3.5756,3.5532,3.5396,3.5809,3.6286,3.673,0.0,0.0,0.0,0.0,0.0,0.0,0.0,0.0,0.0,0.0,0.0,3.9424,3.9424,3.9424,3.9424,3.9424,3.9424,3.9424,3.9192,3.8958,3.8634,3.8098,3.7232,3.6188,3.5816,3.5196,3.4397,3.4397,0.0,0.0,3.4397,3.4397,3.4476,3.5234,3.577,3.6113,3.6599,3.6854,3.7015,0.0,0.0,0.0,0.0,0.0,0.0,0.0,1.3311,1.3767,1.3633,1.3593,1.3799,1.4327,1.4588,1.499,1.5752,0.0,0.0,0.0,0.0,0.0,0.0,0.0,0.0,0.0,0.0,1.8921,1.8982,1.98,2.0182,2.0182,2.0321,2.0549,2.0954,0.0,0.0,0.0,0.0,0.0,0.0,0.0,0.0,0.0,0.0,0.0,0.0,0.0,0.0,0.0,0.0,0.0,0.0,0.0,3.3878,3.5989,3.885,4.0692,4.1833,4.2055,4.2505,4.2673,4.1743,4.1092,4.0056,0.0,0.0,3.6982,3.549,3.5783,3.6276,3.6208,3.5844,3.5532,3.5337,3.4756,3.4821,3.6323,0.0,0.0,0.0,0.0,0.0,0.0,0.0,0.0,0.0,0.0,0.0,3.9424,3.9424,3.9424,3.9424,3.9424,3.9424,3.9424,3.859,3.7796,3.6958,3.688,3.6029,3.4468,3.5345,3.5196,3.4397,0.0,0.0,0.0,3.4397,3.4397,3.4515,3.5652,3.6096,3.6152,3.6869,3.7108,3.7015,0.0,0.0,0.0,0.0,0.0,0.0,0.0,1.3841,1.4271,1.4174,1.4517,1.475,1.4766,1.4967,1.5115,1.5164,0.0,0.0,0.0,0.0,0.0,0.0,0.0,0.0,0.0,0.0,1.9826,1.9813,2.0206,2.0347,2.0182,2.0422,2.0983,2.1824,2.3104,2.3993,0.0,0.0,0.0,0.0,0.0,0.0,0.0,0.0,0.0,0.0,0.0,0.0,0.0,0.0,0.0,0.0,0.0,0.0,0.0,3.6306,3.8129,0.0,3.9727,3.961,3.9337,3.8734,3.809,3.7323,3.6132,3.6087,3.607,3.5526,3.5866,3.6259,3.6208,3.5773,3.5321,3.5088,3.4546,3.4313,0.0,0.0,0.0,0.0,0.0,0.0,0.0,0.0,0.0,0.0,0.0,0.0,3.9424,3.9424,3.9424,3.9424,3.8885,3.859,3.859,3.7782,3.7204,3.688,3.6346,3.5816,3.5264,3.495,3.4634,0.0,0.0,0.0,3.4397,3.4397,3.4633,3.509,3.5674,3.6106,3.6521,3.7116,3.7307,3.7108,0.0,0.0,0.0,0.0,0.0,0.0,0.0,1.4487,1.4879,1.4836,1.5147,1.53,1.5142,1.5334,1.5506,1.551,0.0,0.0,0.0,0.0,0.0,0.0,0.0,0.0,0.0,1.9902,2.0029,2.0182,2.0398,2.0398,2.0233,2.051,2.107,2.177,2.2807,2.3821,0.0,0.0,0.0,0.0,0.0,0.0,2.7041,0.0,0.0,0.0,0.0,0.0,0.0,0.0,0.0,0.0,0.0,0.0,0.0,0.0,3.5655,3.709,3.8069,3.8095,3.7757,3.7281,3.6889,0.0,0.0,3.5953,3.6073,3.5993,3.6156,3.6276,3.6019,3.5639,3.5228,3.4787,3.4448,0.0,0.0,0.0,0.0,0.0,0.0,0.0,0.0,0.0,0.0,0.0,0.0,0.0,3.9424,3.9424,3.9424,3.9424,3.859,3.8202,3.8202,3.7063,3.6425,3.6425,3.5575,3.5196,3.5196,3.4634,3.4397,0.0,0.0,3.4397,0.0,3.4397,3.4763,3.5351,3.5678,3.6146,3.669,3.7088,3.7108,3.6909,0.0,0.0,0.0,0.0,0.0,0.0,0.0,0.0,1.5513,1.5513,1.5513,1.5513,1.5513,1.5727,1.6044,1.6501,0.0,0.0,0.0,0.0,0.0,0.0,0.0,0.0,0.0,1.9875,1.9875,2.0233,2.0385,2.0372,2.0283,2.066,2.0885,2.0964,2.1941,2.3008,0.0,0.0,0.0,0.0,0.0,0.0,0.0,0.0,0.0,0.0,0.0,0.0,0.0,0.0,0.0,0.0,0.0,0.0,0.0,0.0,0.0,0.0,0.0,3.7434,3.7327,3.6887,0.0,0.0,0.0,3.6539,0.0,3.6638,3.6516,3.6249,3.5694,3.5419,3.5128,3.4578,3.4301,0.0,0.0,0.0,0.0,0.0,0.0,0.0,0.0,0.0,0.0,0.0,0.0,0.0,3.9424,3.9352,3.9337,3.9337,3.8501,3.8037,3.8127,3.6452,3.5588,3.5588,3.4799,3.4397,3.4397,3.4397,3.4397,0.0,3.4397,3.4397,3.4397,3.445,3.4816,3.5331,3.5729,3.6198,3.6651,3.6705,3.6709,3.6722,0.0,0.0,0.0,0.0,0.0,0.0,0.0,0.0,0.0,0.0,1.5647,1.5703,1.5671,1.6197,1.6566,0.0,0.0,0.0,0.0,0.0,0.0,0.0,0.0,0.0,0.0,2.0271,2.0372,2.041,2.0675,2.0812,2.0835,2.1131,2.1326,2.1477,2.3003,2.4446,0.0,0.0,0.0,0.0,0.0,0.0,0.0,0.0,0.0,0.0,2.8682,2.8654,0.0,0.0,0.0,0.0,0.0,0.0,0.0,0.0,3.4195,3.4489,3.4792,0.0,3.3942,3.3703,3.4041,3.4374,0.0,0.0,0.0,0.0,0.0,3.5545,3.5725,3.4863,3.422,3.4301,0.0,0.0,0.0,0.0,0.0,0.0,0.0,0.0,0.0,0.0,0.0,0.0,0.0,3.9424,3.9424,3.8811,3.8501,3.8501,3.7092,3.6596,3.7204,3.5575,3.4716,3.4716,3.4481,3.4397,3.4397,3.4397,3.4397,3.4397,3.4397,3.4314,3.4199,3.4809,3.5331,3.5716,3.6032,3.6508,3.6916,3.6764,3.6709,3.6722,0.0,0.0,0.0,0.0,0.0,0.0,0.0,0.0,0.0,0.0,0.0,0.0,0.0,0.0,0.0,0.0,0.0,0.0,0.0,0.0,0.0,0.0,0.0,2.0271,2.0271,2.056,2.0723,2.0799,2.101,2.1109,2.1082,2.1423,2.1616,2.1671,2.3477,2.4881,0.0,0.0,0.0,0.0,2.7725,0.0,0.0,0.0,0.0,0.0,3.0053,3.0359,0.0,3.0075,2.9747,2.9606,0.0,0.0,0.0,0.0,3.3731,3.4289,3.3942,3.3343,3.2862,3.31,3.3582,3.4091,3.4477,0.0,0.0,0.0,0.0,3.5648,3.5081,3.4991,0.0,0.0,0.0,0.0,0.0,0.0,0.0,0.0,0.0,0.0,0.0,0.0,0.0,0.0,0.0,3.8811,3.8811,3.8098,3.7615,3.7615,3.6373,3.5896,3.636,3.5019,3.4397,3.4397,3.4397,3.4397,3.4397,3.4397,3.4397,3.4397,3.4397,3.4314,3.4282,3.4966,3.5453,3.5849,3.6148,3.6517,3.6909,3.6628,3.6534,3.6534,0.0,0.0,0.0,0.0,0.0,0.0,0.0,0.0,0.0,0.0,0.0,0.0,0.0,0.0,0.0,0.0,0.0,0.0,0.0,0.0,0.0,0.0,0.0,2.0422,2.0673,2.0858,2.1095,2.1412,2.1559,2.1599,2.1645,2.1939,2.2034,2.2125,2.3893,2.5078,0.0,0.0,0.0,0.0,2.8031,0.0,0.0,0.0,0.0,0.0,0.0,0.0,0.0,3.2286,3.1847,3.1247,3.0574,0.0,0.0,0.0,0.0,0.0,3.3776,3.3394,3.3204,3.3686,3.4287,3.4879,3.5279,0.0,0.0,0.0,0.0,0.0,0.0,3.5005,0.0,0.0,0.0,0.0,0.0,0.0,0.0,0.0,0.0,0.0,0.0,0.0,0.0,0.0,0.0,3.8202,3.8202,3.7232,3.6738,3.6738,3.5963,3.5507,3.5507,3.4799,3.4397,3.4397,3.4397,3.4397,3.4397,3.4397,3.4397,3.4397,0.0,0.0,3.445,3.5142,3.5544,3.5786,3.6238,3.6501,3.6722,3.6452,3.6358,3.6358,0.0,0.0,0.0,0.0,0.0,0.0,0.0,0.0,0.0,0.0,0.0,0.0,0.0,0.0,0.0,0.0,0.0,0.0,0.0,0.0,0.0,0.0,2.0822,2.1033,2.0934,2.1264,2.1765,2.241,2.2509,2.2956,2.3666,2.3245,2.3496,2.4261,2.5164,2.601,2.6791,2.7342,2.7725,2.797,2.8965,0.0,0.0,0.0,0.0,0.0,0.0,0.0,0.0,3.4642,3.4129,3.3009,3.3755,0.0,0.0,0.0,0.0,0.0,3.3615,3.397,3.4287,3.3829,3.4618,3.5165,3.381,0.0,0.0,0.0,0.0,0.0,0.0,0.0,0.0,0.0,0.0,0.0,0.0,0.0,0.0,0.0,0.0,0.0,0.0,0.0,0.0,0.0,0.0,3.8202,3.8202,3.6688,3.5896,3.5896,3.5032,3.4634,3.4634,3.4481,3.4397,3.4397,3.4397,3.4397,3.4397,3.4397,3.4397,3.4397,0.0,3.4314,3.4237,3.5461,3.5781,3.5545,3.6583,3.6832,3.6722,3.6452,3.6358,3.6358,0.0,0.0,0.0,0.0,0.0,0.0,0.0,0.0,0.0,0.0,0.0,0.0,0.0,0.0,0.0,0.0,0.0,0.0,0.0,0.0,0.0,2.1153,2.1602,2.1664,2.1229,2.1746,2.2398,2.3077,2.3174,2.3631,2.4426,2.4175,2.4586,2.552,2.5947,2.6598,2.7452,2.784,2.8088,2.833,0.0,0.0,0.0,0.0,0.0,0.0,0.0,0.0,0.0,0.0,3.5577,3.4769,3.6272,0.0,0.0,0.0,0.0,0.0,3.3652,3.3926,3.4376,3.4598,3.5353,3.5847,3.5443,3.5346,0.0,0.0,0.0,0.0,0.0,0.0,0.0,0.0,0.0,0.0,0.0,0.0,0.0,0.0,0.0,0.0,0.0,0.0,0.0,0.0,0.0,0.0,3.7462,3.5896,3.5032,3.5032,3.4634,3.4397,3.4397,3.4397,3.4397,3.4397,3.4397,3.4397,3.4397,3.4397,3.4397,3.4397,0.0,3.4314,3.4166,3.5405,3.5709,3.5379,3.6475,3.6722,3.6534,3.6452,3.6358,3.6358,0.0,0.0,0.0,0.0,0.0,0.0,0.0,0.0,0.0,0.0,0.0,0.0,0.0,0.0,0.0,0.0,0.0,0.0,0.0,0.0,2.1698,2.1793,2.2184,2.2137,2.1568,2.217,2.2926,2.3808,2.3856,2.4269,2.5101,2.5261,2.5707,2.6362,2.6589,2.7145,2.794,2.8299,2.8444,2.857,0.0,0.0,0.0,0.0,0.0,0.0,0.0,0.0,0.0,0.0,0.0,0.0,0.0,0.0,0.0,3.6006,3.5268,3.4208,3.3707,3.4055,3.464,3.5098,3.5538,3.6016,3.6669,3.6207,0.0,0.0,0.0,0.0,0.0,0.0,0.0,0.0,0.0,0.0,0.0,0.0,0.0,0.0,0.0,0.0,0.0,0.0,0.0,0.0,0.0,0.0,3.666,3.5169,3.4397,3.4397,3.4397,3.4397,3.4397,3.4397,3.4397,3.4397,3.4397,3.4397,3.4397,3.4397,3.4397,3.4397,3.4314,3.4243,3.4153,3.5102,3.534,3.5199,3.6151,3.6514,3.6358,3.6358,3.6358,3.6358,0.0,0.0,0.0,0.0,0.0,0.0,0.0,0.0,0.0,0.0,0.0,0.0,0.0,0.0,0.0,0.0,0.0,0.0,0.0,0.0,2.2091,2.2324,2.237,2.2278,2.1949,2.2434,2.336,2.4825,2.4844,2.536,2.6268,2.6905,2.7041,2.6781,2.7429,2.7894,2.8186,2.8477,2.8589,2.8745,3.0608,0.0,0.0,0.0,0.0,0.0,0.0,0.0,0.0,0.0,0.0,0.0,0.0,0.0,3.5945,3.592,3.5435,3.4743,3.3777,3.4785,3.5847,3.4699,3.4554,3.4886,3.5559,3.4913,0.0,3.3335,0.0,0.0,0.0,0.0,0.0,0.0,0.0,0.0,0.0,0.0,0.0,0.0,0.0,0.0,0.0,0.0,0.0,0.0,0.0,0.0,3.5816,3.4868,3.4397,3.4397,3.4397,3.4397,3.4397,3.4397,3.4397,3.4397,3.4397,3.4397,3.4397,3.4397,3.4397,3.4397,3.4243,3.4076,3.4127,3.4491,3.4881,3.5161,3.572,3.6172,3.6358,3.6358,3.6358,3.6358,0.0,0.0,0.0,0.0,0.0,0.0,0.0,0.0,0.0,0.0,0.0,0.0,0.0,0.0,0.0,0.0,0.0,0.0,0.0,0.0,2.2491,2.2417,2.2661,2.2737,2.2572,2.2754,2.3635,2.525,2.6243,2.6897,2.7265,2.764,2.7856,2.7854,2.8323,2.8542,2.8637,2.8936,2.9281,2.9864,3.123,3.2237,0.0,0.0,0.0,0.0,0.0,0.0,0.0,0.0,3.7747,3.5701,3.8112,3.7241,3.54,3.5788,3.5112,3.4147,3.3678,3.4415,3.5154,3.4579,3.4283,3.4401,3.5379,3.4936,3.4181,3.334,3.3568,0.0,0.0,0.0,0.0,0.0,0.0,0.0,0.0,0.0,0.0,0.0,0.0,0.0,0.0,0.0,0.0,0.0,0.0,0.0,3.5736,3.4868,3.4397,3.4397,3.4397,3.4397,3.4397,3.4397,3.4397,3.4397,3.4397,3.4397,3.4397,3.4397,3.4397,3.4397,3.4314,3.4147,3.3849,3.4353,3.4666,3.4904,3.5877,3.6263,3.6358,3.6358,3.6358,3.6358,0.0,0.0,0.0,0.0,0.0,0.0,0.0,0.0,0.0,0.0,0.0,0.0,0.0,0.0,0.0,0.0,0.0,0.0,2.2855,2.3256,2.3418,2.3328,2.3635,2.3803,2.3865,2.3865,2.4445,2.5583,2.7142,2.7989,2.8039,2.8238,2.8415,2.8622,2.8904,2.9059,2.9106,2.9619,3.014,3.0762,3.2039,3.3034,0.0,0.0,0.0,0.0,0.0,0.0,0.0,0.0,3.8011,3.624,3.862,3.7689,3.5761,3.6168,3.5752,3.4958,3.4008,3.4436,3.5008,3.4525,3.4048,3.4015,3.508,3.4762,3.4225,3.396,3.4229,3.445,3.4379,0.0,0.0,0.0,0.0,0.0,0.0,0.0,0.0,0.0,0.0,0.0,0.0,0.0,0.0,0.0,0.0,0.0,0.0,3.4716,3.4397,3.4397,3.4397,3.4397,3.4397,3.4397,3.4397,3.4397,3.4397,3.4397,3.4397,3.4397,3.4397,3.4314,3.423,3.3979,3.3666,3.3989,3.4338,3.4813,3.5742,3.6207,3.6358,3.6358,3.6358,3.6358,0.0,0.0,0.0,0.0,0.0,0.0,0.0,0.0,0.0,0.0,0.0,0.0,0.0,0.0,0.0,0.0,0.0,0.0,2.3891,2.4519,2.5077,2.5396,2.5331,2.5521,2.5971,2.6032,2.5971,2.5832,2.7418,2.8332,2.8621,2.8669,2.8795,2.8904,2.9213,2.9412,2.9563,3.0513,3.0985,3.1295,3.3069,3.3894,3.4248,0.0,0.0,0.0,0.0,0.0,0.0,0.0,3.8364,3.6997,3.8742,3.8402,3.7356,3.7149,3.7543,3.7486,3.4816,3.5062,3.5773,3.4509,0.0,0.0,3.4502,3.4115,3.3963,3.5238,3.5253,3.5003,3.5003,0.0,0.0,0.0,0.0,0.0,0.0,0.0,0.0,0.0,0.0,0.0,0.0,0.0,0.0,0.0,0.0,0.0,0.0,3.4397,3.4397,3.4397,3.4397,3.4397,3.4397,3.4397,3.4397,3.4397,3.4397,3.4397,3.4397,3.4397,3.4314,3.4076,3.381,3.3556,3.3398,3.3167,3.3734,3.4776,3.5328,3.5881,3.6358,3.6358,3.6358,3.6358,0.0,0.0,0.0,0.0,0.0,0.0,0.0,0.0,0.0,0.0,0.0,0.0,0.0,0.0,0.0,0.0,0.0,0.0,2.3862,2.43,2.4796,2.5316,2.5379,2.5585,2.6138,2.6916,2.727,2.7057,2.8155,2.8764,2.8967,2.9721,2.9782,2.9382,3.0635,3.0905,3.0486,3.1502,3.2364,3.3053,3.3698,3.4992,3.6629,0.0,0.0,0.0,0.0,0.0,0.0,0.0,0.0,0.0,3.7862,3.7368,3.6362,3.6077,3.5491,3.4816,3.3867,3.4602,0.0,3.3981,0.0,0.0,0.0,3.4425,0.0,0.0,3.5349,3.5416,3.5845,0.0,0.0,0.0,0.0,0.0,0.0,0.0,0.0,0.0,0.0,0.0,0.0,0.0,0.0,0.0,0.0,0.0,0.0,3.4397,3.4397,3.4397,3.4397,3.4397,3.4397,3.4397,3.4397,3.4397,3.4397,3.4397,3.4397,3.4243,3.416,3.4076,3.381,3.3556,3.3424,3.3582,3.4073,3.4776,3.5328,3.5881,3.6358,3.6358,3.6358,3.6358,0.0,0.0,0.0,0.0,0.0,0.0,0.0,0.0,0.0,0.0,2.0957,0.0,0.0,0.0,0.0,0.0,0.0,0.0,0.0,2.4897,2.5468,2.6183,2.6296,2.665,2.7333,2.8162,2.8579,2.8534,2.893,2.9166,2.9259,3.0009,3.0274,3.019,3.1307,3.1769,3.1806,3.2873,3.369,3.4286,3.4793,3.5985,3.7405,0.0,0.0,0.0,0.0,0.0,0.0,0.0,0.0,0.0,3.6999,3.6559,3.5945,3.6066,3.5485,3.4718,3.4546,3.4822,0.0,3.4415,3.4643,3.5039,3.5045,0.0,0.0,0.0,0.0,3.6295,3.6641,0.0,0.0,0.0,0.0,0.0,0.0,0.0,0.0,0.0,0.0,0.0,0.0,0.0,0.0,0.0,0.0,0.0,0.0,3.4397,3.4397,3.4397,3.4397,3.4397,3.4397,3.4397,3.4397,3.4397,3.4314,3.4314,3.4314,3.416,3.3992,3.3823,3.3569,3.3398,3.3265,3.3519,3.3897,3.4449,3.5002,3.5554,3.6056,3.6282,3.6358,3.6358,0.0,0.0,0.0,0.0,0.0,0.0,0.0,0.0,0.0,0.0,2.1609,2.1999,0.0,0.0,0.0,0.0,0.0,0.0,0.0,0.0,2.6629,2.758,2.7825,2.8301,2.909,2.9531,2.9814,3.0017,2.9617,2.9483,2.9592,2.9999,3.0533,3.1165,3.1616,3.2337,3.3285,3.4338,3.4891,3.512,3.6214,3.6895,3.7276,3.8162,0.0,0.0,0.0,0.0,0.0,0.0,0.0,0.0,3.6217,3.5979,3.5885,3.6578,3.6544,3.6146,3.5954,3.5399,0.0,3.5324,3.5095,0.0,3.5398,3.5504,3.5504,3.5504,0.0,0.0,0.0,0.0,0.0,0.0,0.0,0.0,0.0,0.0,0.0,0.0,0.0,0.0,0.0,0.0,0.0,0.0,0.0,0.0,3.4397,3.4397,3.4397,3.4397,3.4397,3.4397,3.4397,3.4397,3.4397,3.4397,3.416,3.4076,3.4076,3.4076,3.3823,3.3398,3.3154,3.3081,3.3081,3.3081,3.3407,3.396,3.4512,3.5064,3.5604,3.6157,3.6358,3.6358,0.0,0.0,0.0,0.0,0.0,0.0,0.0,0.0,0.0,0.0,0.0,0.0,0.0,0.0,0.0,0.0,0.0,0.0,0.0,0.0,2.673,2.7864,2.859,2.9059,2.9243,2.971,2.9973,3.0017,2.981,2.9837,3.0172,3.1352,3.1724,3.1484,3.3425,3.4213,3.4122,3.5171,3.5831,3.6219,3.6829,3.7715,3.8797,4.0154,4.1236,0.0,0.0,0.0,0.0,0.0,0.0,0.0,3.602,3.5605,3.5467,3.5376,3.5051,3.46,3.4363,3.4574,0.0,0.0,3.511,3.5371,3.5494,3.5504,3.5504,0.0,0.0,0.0,0.0,0.0,0.0,0.0,0.0,0.0,0.0,0.0,0.0,0.0,0.0,0.0,0.0,0.0,0.0,0.0,0.0,0.0,3.4397,3.4397,3.4397,3.4397,3.4397,3.4397,3.4397,3.4397,3.4314,3.416,3.416,3.3907,3.3569,3.3569,3.3398,3.3154,3.3167,3.3081,3.3081,3.3081,3.3407,3.396,3.4512,3.5064,3.5604,3.6157,3.6358,3.6358,0.0,0.0,0.0,0.0,0.0,0.0,0.0,0.0,0.0,0.0,0.0,0.0,0.0,0.0,0.0,0.0,0.0,0.0,0.0,0.0,2.6811,2.8369,2.9013,2.9396,2.9621,3.0017,3.0455,3.0971,3.0896,3.0879,3.0938,3.2226,3.2917,3.3091,3.4452,3.5205,3.5572,3.6707,3.7404,3.7754,3.8429,3.9132,3.9845,4.0704,4.1427,4.1939,4.1483,0.0,0.0,0.0,0.0,0.0,0.0,0.0,3.4504,3.4867,3.422,3.3649,3.4634,0.0,0.0,3.4939,0.0,3.5504,3.5504,3.5504,0.0,0.0,0.0,0.0,0.0,0.0,0.0,0.0,0.0,0.0,0.0,0.0,0.0,0.0,0.0,0.0,0.0,0.0,0.0,0.0,0.0,3.4397,3.4397,3.4397,3.4397,3.4397,3.4397,3.4397,3.4397,3.4314,3.4243,3.4076,3.3907,3.3569,3.324,3.324,3.324,3.3081,3.3081,3.3081,3.3081,3.3081,3.3244,3.3583,3.4399,3.4901,3.5253,3.6056,3.6358,3.6358,0.0,0.0,0.0,0.0,0.0,0.0,0.0,0.0,0.0,0.0,0.0,0.0,0.0,0.0,0.0,0.0,0.0,0.0,0.0,0.0,0.0,2.9042,2.938,2.9694,3.0103,3.0359,3.0975,3.1993,3.2177,3.2236,3.2209,3.3161,3.4024,3.4839,3.5225,3.6035,3.7202,3.8282,3.8921,3.9265,4.0149,4.0572,4.0697,4.111,4.1359,4.132,4.0363,4.0034,3.9567,3.633,0.0,0.0,0.0,0.0,3.3497,3.428,3.3477,3.2812,3.4855,0.0,3.406,3.5241,3.5424,0.0,3.5439,3.5359,0.0,0.0,0.0,0.0,0.0,0.0,0.0,0.0,0.0,0.0,0.0,0.0,0.0,0.0,0.0,0.0,0.0,0.0,0.0,0.0,0.0,3.4397,3.4397,3.4397,3.4397,3.4397,3.4397,3.4397,3.4314,3.416,3.4076,3.3992,3.3569,3.324,3.3081,3.3081,3.3081,3.3081,3.3081,3.3081,3.3081,3.3081,3.3081,3.3181,3.4299,3.4726,3.4851,3.5956,3.6358,3.6358,0.0,0.0,0.0,0.0,0.0,0.0,0.0,0.0,0.0,0.0,0.0,0.0,0.0,0.0,0.0,0.0,0.0,0.0,0.0,0.0,0.0,2.9826,3.0172,3.0426,3.0609,3.0749,3.124,3.1993,3.2933,3.3792,3.4531,3.4675,3.4984,3.5409,3.6383,3.7432,3.8465,3.8995,3.95,4.0019,4.1038,4.1322,4.1371,4.3035,4.233,4.0589,4.1387,4.0196,3.8003,3.6424,3.5771,0.0,0.0,0.0,3.2979,3.2649,3.2025,3.1556,0.0,0.0,3.4166,0.0,3.4986,3.461,0.0,0.0,0.0,0.0,0.0,0.0,0.0,0.0,0.0,0.0,0.0,0.0,0.0,0.0,0.0,0.0,0.0,0.0,0.0,0.0,0.0,0.0,3.4397,3.4397,3.4397,3.4397,3.4397,3.4397,3.4397,3.4314,3.416,3.4076,3.3907,3.3484,3.324,3.3154,3.3081,3.3081,3.3081,3.3081,3.3081,3.3081,3.3081,3.3081,3.3081,3.3181,3.4299,3.4726,3.4851,3.5956,3.6358,3.6295,0.0,0.0,0.0,0.0,0.0,0.0,0.0,0.0,0.0,0.0,0.0,0.0,0.0,0.0,0.0,0.0,0.0,0.0,0.0,0.0,0.0,3.0778,3.108,3.1291,3.1498,3.2025,3.256,3.311,3.4123,3.5248,0.0,3.7102,3.7314,3.735,3.8544,3.9479,4.0181,4.0796,4.1464,4.2165,4.2847,4.2784,4.2341,4.3162,4.224,4.0525,4.0575,3.9383,3.7526,3.5741,3.4974,3.4433,3.2925,0.0,0.0,0.0,3.0537,3.0013,3.1485,3.2478,3.3472,0.0,3.4905,3.438,3.4758,0.0,0.0,0.0,0.0,0.0,0.0,0.0,0.0,0.0,0.0,0.0,0.0,0.0,0.0,0.0,0.0,0.0,0.0,0.0,0.0,0.0,3.4397,3.4397,3.4397,3.4397,3.4397,3.4397,3.4314,3.416,3.4076,3.3823,3.3569,3.324,3.3154,3.3081,3.3081,3.3081,3.3081,3.3081,3.3081,3.3081,3.3081,3.3081,3.3081,3.3181,3.4299,3.4726,3.4851,3.5956,3.6169,3.5868,0.0,0.0,0.0,0.0,0.0,0.0,0.0,0.0,0.0,0.0,0.0,0.0,0.0,0.0,0.0,0.0,0.0,0.0,0.0,0.0,0.0,3.1603,3.2042,3.2395,3.2519,3.325,3.3836,3.4345,3.5231,0.0,3.7754,3.8912,3.9436,0.0,4.0236,4.0977,4.1709,4.2173,4.2948,4.3866,4.4102,4.3772,4.3188,4.2955,4.1871,4.0427,3.9799,0.0,0.0,0.0,0.0,0.0,3.2361,3.1753,0.0,0.0,0.0,0.0,0.0,0.0,3.1925,3.3955,3.3893,3.3437,0.0,0.0,0.0,0.0,0.0,0.0,0.0,0.0,0.0,0.0,0.0,0.0,0.0,0.0,0.0,0.0,0.0,0.0,0.0,0.0,0.0,0.0,3.4397,3.4397,3.4397,3.4397,3.4397,3.4314,3.416,3.4076,3.3907,3.3484,3.324,3.3081,3.3081,3.3081,3.3081,3.3081,3.3081,3.3081,3.3081,3.3081,3.3081,3.3081,3.3081,3.3181,3.4299,3.4726,3.4839,3.5805,3.5893,3.5504,0.0,0.0,0.0,0.0,0.0,0.0,0.0,0.0,0.0,0.0,0.0,0.0,0.0,2.886,2.9241,2.9241,2.954,2.9805,3.0081,3.1224,3.1893,3.1985,3.3066,0.0,3.3721,3.4024,3.4493,3.5243,0.0,0.0,3.7839,3.9406,4.0595,4.1425,4.071,4.1259,4.269,0.0,0.0,0.0,0.0,4.3792,0.0,0.0,0.0,0.0,0.0,0.0,0.0,0.0,0.0,0.0,0.0,0.0,0.0,0.0,0.0,0.0,0.0,2.7817,0.0,3.107,3.1082,0.0,0.0,0.0,0.0,0.0,0.0,0.0,0.0,0.0,0.0,0.0,0.0,0.0,0.0,0.0,0.0,0.0,0.0,0.0,0.0,0.0,0.0,0.0,3.4397,3.4397,3.4397,3.4397,3.4314,3.416,3.4076,3.3907,3.3398,3.324,3.3081,3.3081,3.3081,3.3081,3.3081,3.3081,3.3081,3.3081,3.3081,3.3081,3.3081,3.3081,3.3081,3.3181,3.4299,3.4726,3.4801,3.5378,3.5567,3.5391,0.0,0.0,0.0,0.0,0.0,0.0,0.0,0.0,0.0,0.0,0.0,0.0,0.0,2.9724,2.9913,3.0017,3.006,3.0369,3.1189,3.1708,3.2286,3.3,3.4185,3.4599,3.412,3.543,3.6217,3.6463,3.7254,3.8114,3.9053,4.0064,4.1123,4.2252,4.2253,4.3038,4.4289,4.3528,0.0,0.0,0.0,0.0,0.0,0.0,0.0,0.0,0.0,0.0,0.0,0.0,0.0,0.0,0.0,0.0,0.0,0.0,0.0,0.0,0.0,0.0,0.0,2.9651,3.0129,3.0369,0.0,0.0,0.0,0.0,0.0,0.0,0.0,0.0,0.0,0.0,0.0,0.0,0.0,0.0,0.0,0.0,0.0,0.0,0.0,0.0,0.0,0.0,3.4397,3.4397,3.4397,3.4397,3.4314,3.4076,3.3894,3.3654,3.324,3.3154,3.3081,3.3081,3.3081,3.3081,3.3081,3.3081,3.3081,3.3081,3.3081,3.3081,3.3081,3.3081,3.3081,3.3156,3.3897,3.4412,3.4751,3.4951,3.5014,3.4914,0.0,0.0,0.0,0.0,0.0,0.0,0.0,0.0,0.0,0.0,0.0,0.0,0.0,0.0,3.0764,3.1016,3.0891,3.1132,3.1976,3.263,3.3362,3.4079,3.5409,3.5878,3.5372,3.6881,3.7652,3.7583,3.8364,3.9077,3.9743,4.0594,4.1608,4.2717,4.305,4.3811,0.0,0.0,0.0,4.4221,0.0,0.0,4.1222,0.0,0.0,0.0,0.0,0.0,0.0,0.0,0.0,0.0,0.0,0.0,0.0,0.0,0.0,0.0,2.5787,0.0,0.0,0.0,0.0,2.8636,0.0,0.0,0.0,0.0,0.0,0.0,0.0,0.0,0.0,0.0,0.0,0.0,0.0,0.0,0.0,0.0,0.0,0.0,0.0,0.0,0.0,3.4397,3.4397,0.0,3.4397,3.4314,3.416,3.3907,3.3654,3.3398,3.3081,3.3081,3.3081,3.3081,3.3081,3.3081,3.3081,3.3081,3.3081,3.3081,3.3081,3.3081,3.3081,3.3081,3.3081,3.3131,3.3684,3.4236,3.47,3.4512,3.4562,3.4638,0.0,0.0,0.0,0.0,0.0,0.0,0.0,0.0,0.0,3.0501,0.0,0.0,0.0,0.0,0.0,3.2307,3.2176,3.216,3.2491,3.4099,3.5087,3.5227,3.6708,3.7524,3.7488,3.824,3.8625,3.8654,3.943,3.98,3.984,4.0959,4.1971,4.2865,4.2926,4.3374,4.3994,0.0,4.3311,4.3241,0.0,4.0984,4.0386,0.0,0.0,0.0,3.793,3.75,0.0,3.6969,0.0,0.0,0.0,0.0,0.0,0.0,0.0,0.0,0.0,0.0,0.0,0.0,0.0,0.0,0.0,0.0,0.0,0.0,0.0,0.0,0.0,0.0,0.0,0.0,0.0,0.0,0.0,0.0,0.0,0.0,0.0,0.0,0.0,0.0,0.0,3.4397,3.4397,3.4397,3.4397,3.416,3.3907,3.3398,3.324,3.3081,3.3081,3.3081,3.3081,3.3081,3.3081,3.3081,3.3081,3.3081,3.3081,3.3081,3.3081,3.3081,3.3081,3.3081,3.3081,3.3131,3.3671,3.4211,3.4625,3.4073,3.4236,3.4638,0.0,0.0,0.0,0.0,0.0,0.0,0.0,3.0576,3.0842,0.0,0.0,0.0,3.2859,3.3219,3.3356,3.325,3.3339,3.3785,3.464,3.5308,3.5839,3.6256,3.7471,3.794,3.7509,3.8598,3.9317,3.9616,3.987,4.0185,4.0456,4.0713,4.1319,4.2186,4.2259,4.2398,4.2578,4.2412,0.0,0.0,4.0973,4.0226,0.0,0.0,0.0,0.0,0.0,3.7214,3.5966,0.0,3.5304,3.272,0.0,0.0,0.0,0.0,0.0,0.0,2.4792,0.0,0.0,0.0,0.0,0.0,0.0,0.0,0.0,0.0,0.0,0.0,0.0,0.0,0.0,0.0,0.0,0.0,0.0,0.0,0.0,0.0,0.0,0.0,0.0,0.0,3.4397,0.0,3.4397,3.4314,3.416,3.3823,3.3569,3.3398,3.324,3.3081,3.3081,3.3081,3.3081,3.3081,3.3081,3.3081,3.3081,3.3081,3.3081,3.3081,3.3081,3.3081,3.3081,3.3081,3.3081,3.3093,3.3244,3.3646,3.406,3.3508,3.3909,3.4638,0.0,0.0,0.0,0.0,0.0,0.0,3.1395,3.1533,3.189,0.0,0.0,0.0,3.4567,3.4471,3.4478,3.4774,3.4753,3.5119,3.5969,3.6506,3.6964,3.7426,3.8346,3.8726,3.8428,3.9361,3.9967,4.0206,4.0327,4.0498,4.0711,4.1027,4.1454,4.1945,0.0,0.0,0.0,0.0,0.0,0.0,4.0239,0.0,0.0,3.8591,3.8296,0.0,0.0,0.0,3.6953,3.7503,3.4898,0.0,0.0,0.0,0.0,0.0,0.0,0.0,0.0,0.0,0.0,0.0,0.0,0.0,2.5425,2.685,0.0,0.0,0.0,0.0,0.0,0.0,0.0,0.0,0.0,0.0,0.0,0.0,0.0,0.0,0.0,0.0,0.0,3.3636,3.3879,3.3879,3.4017,3.3979,3.3823,3.3569,3.3398,3.3326,3.3154,3.3081,3.3081,3.3081,3.3081,3.3081,3.3081,3.3081,3.3081,3.3081,3.3081,3.3081,3.3081,3.3081,3.3081,3.3081,3.3081,3.3081,3.3081,3.342,3.3859,3.3533,3.3972,3.4713,0.0,0.0,0.0,3.2239,3.1793,3.1687,3.2548,3.2792,3.3227,0.0,3.4449,3.4878,3.5907,3.5453,3.551,3.6539,3.6346,3.6364,3.6795,3.7685,3.8328,3.8635,3.9258,3.9665,3.9793,4.0284,4.0554,4.0562,4.0733,4.0785,4.0754,4.1608,4.2005,4.2004,0.0,0.0,0.0,0.0,0.0,3.9461,3.97,3.8914,0.0,0.0,3.7863,3.7496,3.8579,3.8808,3.8482,3.7998,3.4942,0.0,0.0,0.0,0.0,0.0,2.7862,0.0,0.0,0.0,0.0,0.0,0.0,0.0,2.6048,2.6494,2.7144,0.0,0.0,0.0,0.0,0.0,0.0,0.0,0.0,0.0,0.0,0.0,0.0,0.0,0.0,0.0,3.2594,3.2888,3.3144,3.3144,3.3399,3.3492,3.3398,3.3398,3.3326,3.3081,3.3081,3.3081,3.3081,3.3081,3.3081,3.3081,3.3081,3.3081,3.3081,3.3081,3.3081,3.3081,3.3081,3.3081,3.3081,3.3081,3.3081,3.3081,3.3081,3.342,3.3897,3.3897,3.4286,3.4889,0.0,0.0,0.0,3.3704,3.3719,3.38,3.3994,3.4333,3.4799,3.5465,3.6469,3.7131,3.7291,3.7362,3.7397,3.7453,3.7677,3.794,3.8187,3.8838,3.9368,3.9692,4.008,4.0351,4.0415,4.0693,4.0846,4.0894,4.0886,4.0898,4.0965,4.1719,4.2075,4.2072,4.2033,0.0,0.0,0.0,0.0,3.9735,3.9702,0.0,3.9342,3.886,3.8996,3.9498,3.9347,3.8615,3.7427,3.5495,3.4406,3.3593,0.0,0.0,0.0,0.0,0.0,0.0,0.0,0.0,0.0,0.0,0.0,0.0,2.4126,2.4679,2.5218,0.0,0.0,0.0,0.0,0.0,0.0,0.0,0.0,0.0,0.0,0.0,0.0,0.0,0.0,0.0,3.2006,3.2304,3.2561,3.2561,3.2739,3.3013,3.3373,3.324,3.3154,3.3081,3.3081,3.3081,3.3081,3.3081,3.3081,3.3081,3.3081,3.3081,3.3081,3.3081,3.3081,3.3081,3.3081,3.3081,3.3081,3.3081,3.3081,3.3081,3.3081,3.342,3.3897,3.3897,3.4525,3.5403,0.0,0.0,0.0,3.5014,3.49,3.4887,3.5348,3.599,3.6737,3.7471,3.8323,3.8733,3.836,3.8436,3.8499,3.8542,3.8689,3.8897,3.9194,3.9648,3.9989,4.024,4.0924,4.1332,4.145,4.1965,4.2058,4.1652,4.2048,4.2002,4.1555,4.1941,4.1994,4.1788,4.1459,4.1131,0.0,0.0,4.0139,3.9807,3.9846,0.0,3.9626,3.9562,3.9799,4.0149,3.9685,3.8602,3.7275,3.6075,3.4616,0.0,0.0,3.2262,3.084,0.0,3.0053,3.0176,0.0,0.0,0.0,2.6045,0.0,0.0,0.0,2.5551,2.5869,2.6701,2.7344,2.7678,0.0,0.0,0.0,0.0,0.0,0.0,0.0,0.0,0.0,0.0,0.0,0.0,3.1265,3.163,3.1832,3.1873,3.2244,3.2508,3.2786,3.3003,3.3081,3.3081,3.3081,3.3081,3.3081,3.3081,3.3081,3.3081,3.3081,3.3081,3.3081,3.3081,3.3081,3.3081,3.3081,3.3081,3.3081,3.3081,3.3081,3.3081,3.3081,3.342,3.3935,3.4211,3.4839,3.5579,3.5669,0.0,0.0,3.6292,3.6024,3.5966,3.6746,3.7724,3.874,3.9703,3.9859,3.977,3.941,0.0,0.0,0.0,3.9485,3.9583,0.0,0.0,0.0,4.0563,4.159,4.2212,4.2329,4.316,4.3183,4.2307,4.2988,4.2816,4.1803,4.1957,4.1856,4.151,4.113,4.0743,0.0,0.0,0.0,4.029,0.0,3.9772,3.9472,3.9979,4.0088,3.9943,3.9395,3.839,3.737,3.6983,3.4933,3.2739,3.3795,3.2767,0.0,0.0,0.0,0.0,0.0,0.0,0.0,0.0,0.0,2.5585,0.0,0.0,0.0,2.7885,2.7961,0.0,0.0,0.0,0.0,0.0,0.0,0.0,0.0,0.0,0.0,0.0,0.0,3.0833,3.0462,3.0547,3.0813,3.1185,3.1549,3.1793,3.219,3.2767,3.3081,3.3081,3.3081,3.3081,3.3081,3.3081,3.3081,3.3081,3.3081,3.3081,3.3081,3.3081,3.3081,3.3081,3.3081,3.3081,3.3081,3.3081,3.3144,3.3232,3.3232,3.3571,3.4123,3.4675,3.5228,3.5674,3.552,3.6503,0.0,0.0,3.7781,3.7929,3.8437,3.949,4.0568,4.1637,4.0637,0.0,0.0,0.0,0.0,0.0,0.0,0.0,4.0249,0.0,0.0,4.0847,4.1831,4.2362,4.2397,4.3235,4.3236,4.2305,4.2345,4.1823,4.079,4.1489,4.1736,4.1604,4.2067,0.0,0.0,0.0,4.1263,0.0,4.0696,3.9872,0.0,3.9593,3.9391,3.8822,3.7963,3.7519,3.7168,0.0,3.4805,3.416,0.0,3.2966,3.3693,0.0,0.0,0.0,0.0,0.0,0.0,0.0,2.672,0.0,0.0,0.0,2.5127,2.5229,0.0,2.4892,2.4539,0.0,0.0,0.0,0.0,0.0,0.0,0.0,0.0,0.0,2.9686,3.0371,2.9575,2.9019,2.9339,3.0595,3.0136,3.0523,3.2127,3.2767,3.3081,3.3081,3.3081,3.3081,3.3081,3.3081,3.3081,3.3081,3.3081,3.3081,3.3081,3.3081,3.3081,3.3081,3.3081,3.3081,3.3081,3.3081,3.337,3.3809,3.3809,3.4148,3.47,3.5253,3.5793,3.6175,3.7134,3.7645,0.0,0.0,3.8744,3.8952,3.9233,4.0534,4.1704,4.2272,4.2176,0.0,0.0,0.0,0.0,0.0,0.0,4.0513,0.0,0.0,0.0,0.0,0.0,0.0,4.2278,4.315,4.311,4.2136,4.2574,4.2285,4.1306,4.1546,4.1548,4.132,4.162,0.0,4.1031,0.0,4.1138,0.0,0.0,0.0,0.0,3.966,3.9157,3.8155,3.7726,3.7222,3.6753,0.0,3.4918,0.0,0.0,0.0,0.0,0.0,0.0,0.0,0.0,0.0,0.0,0.0,0.0,0.0,2.721,0.0,2.632,0.0,0.0,0.0,0.0,0.0,0.0,0.0,2.5369,0.0,0.0,0.0,0.0,0.0,0.0,0.0,2.9106,2.9145,2.953,3.008,3.014,3.0616,3.1687,3.2265,3.2729,3.3068,3.3081,3.3081,3.3081,3.3081,3.3081,3.3081,3.3081,3.3081,3.3081,3.3081,3.3081,3.3081,3.3081,3.3081,3.3081,3.3081,3.3034,3.3097,3.3968,3.4713,3.5228,3.5466,3.5893,3.6358,3.8728,0.0,0.0,0.0,0.0,3.9687,4.0114,0.0,0.0,0.0,0.0,0.0,4.1957,4.1674,0.0,0.0,4.0726,4.0742,0.0,0.0,4.0901,0.0,0.0,0.0,0.0,4.2947,4.2916,4.1921,4.2508,4.2302,4.1347,4.124,4.1036,4.0786,0.0,4.094,4.0259,0.0,0.0,4.0077,4.0365,3.9843,3.8958,3.9285,3.8727,3.7764,3.7429,3.6921,3.643,3.6107,3.4965,0.0,3.5155,0.0,0.0,0.0,0.0,0.0,2.9469,0.0,0.0,0.0,0.0,0.0,0.0,0.0,0.0,0.0,0.0,0.0,0.0,0.0,2.5371,0.0,0.0,2.5752,0.0,0.0,0.0,0.0,0.0,0.0,0.0,2.8692,2.9089,2.9238,2.9777,3.044,3.1348,3.1913,3.2478,3.3056,3.3081,3.3081,3.3081,3.3081,3.3081,3.3081,3.3081,3.3081,3.3081,3.3081,3.3081,3.3081,3.3081,3.3081,3.3081,3.2797,3.2769,3.3047,3.3995,3.4865,3.5768,3.5768,3.6019,3.6358,3.9702,3.9496,0.0,0.0,0.0,0.0,0.0,0.0,0.0,0.0,0.0,0.0,0.0,0.0,0.0,0.0,0.0,4.0809,4.0809,0.0,4.0869,0.0,0.0,4.2042,0.0,4.2699,4.2657,4.1713,4.1736,4.1234,4.0252,4.0177,4.0078,4.0003,4.1318,4.1633,4.1188,4.1754,4.1884,4.1633,4.0782,3.9782,3.8817,0.0,3.7905,3.7706,3.6831,0.0,0.0,3.5233,3.4836,0.0,0.0,0.0,0.0,0.0,0.0,0.0,0.0,0.0,0.0,2.8819,0.0,0.0,0.0,0.0,2.7993,0.0,0.0,0.0,0.0,2.6269,0.0,0.0,0.0,0.0,0.0,0.0,0.0,0.0,0.0,0.0,0.0,2.6909,2.717,2.7877,2.8462,2.9537,3.1311,3.1913,3.2478,3.3056,3.3081,3.3081,3.3081,3.3081,3.3081,3.3081,3.3081,3.3081,3.3081,3.3081,3.3081,3.3081,3.3081,3.3081,3.2982,3.2077,3.28,3.4507,3.3662,3.46,3.6332,3.6332,3.6345,3.6263,0.0,0.0,0.0,0.0,0.0,0.0,0.0,4.1713,0.0,0.0,0.0,0.0,0.0,4.3193,4.3169,0.0,0.0,4.2408,4.2443,4.1803,0.0,0.0,0.0,4.0935,0.0,0.0,4.1078,4.0709,4.071,4.075,4.0857,4.0836,4.1032,4.1434,4.1747,4.1709,0.0,0.0,0.0,0.0,0.0,3.9117,3.8229,0.0,3.754,3.7042,3.6662,3.6492,0.0,3.6075,3.5422,3.4856,3.5264,3.4268,3.3023,3.341,3.2615,3.1456,0.0,0.0,3.0147,2.9271,0.0,0.0,0.0,0.0,0.0,0.0,0.0,0.0,0.0,0.0,0.0,0.0,0.0,0.0,0.0,0.0,0.0,0.0,0.0,0.0,0.0,0.0,0.0,2.7877,2.8837,2.9827,3.0834,3.1386,3.1926,3.2491,3.288,3.3081,3.3081,3.3081,3.3081,3.3081,3.3081,3.3081,3.3081,3.3081,3.3081,3.3081,3.3081,3.3081,3.3106,3.3108,3.3297,3.3698,3.4447,3.5026,3.5475,3.6168,3.6358,3.6358,4.0604,0.0,0.0,0.0,0.0,0.0,0.0,0.0,0.0,0.0,4.332,0.0,4.3389,0.0,4.3879,0.0,4.3234,4.3032,4.2724,4.2379,0.0,4.1728,4.1407,0.0,0.0,0.0,4.0459,4.0328,4.0412,4.0482,4.0575,4.0858,4.1173,4.1496,4.1651,4.158,4.134,0.0,4.1296,0.0,0.0,3.8515,0.0,0.0,3.7503,3.6968,0.0,3.7015,3.7215,3.7215,3.6739,3.6274,3.6985,3.5644,3.3818,3.4325,3.3123,3.1433,3.0984,3.0749,0.0,2.9667,2.9695,0.0,2.9128,0.0,0.0,0.0,0.0,0.0,0.0,0.0,0.0,0.0,0.0,0.0,0.0,2.5005,0.0,0.0,0.0,0.0,0.0,0.0,2.7398,2.7852,2.8737,2.9661,3.057,3.111,3.165,3.219,3.278,3.3081,3.3081,3.3081,3.3081,3.3081,3.3081,3.3081,3.3081,3.3081,3.3081,3.3081,3.3081,3.3081,3.3119,3.3282,3.3457,3.371,3.4259,3.4605,3.4969,3.5966,3.6358,3.6358,0.0,0.0,0.0,0.0,4.0916,0.0,0.0,0.0,4.2275,0.0,4.2929,4.3459,4.346,4.3366,4.3324,4.3333,4.3258,4.2823,4.1837,4.2631,0.0,0.0,4.2174,4.249,4.2102,0.0,0.0,0.0,4.0779,4.0384,3.9526,4.0293,4.0514,4.0344,4.1119,0.0,4.1034,4.1868,4.1332,3.9834,3.8707,3.8108,3.7786,3.7918,3.7792,3.7515,3.7545,3.7969,3.8508,3.8442,3.8442,3.8442,3.8361,3.7124,3.5482,3.4924,3.3427,3.1662,3.071,3.0418,3.0296,3.0134,3.0025,0.0,0.0,0.0,2.9042,0.0,0.0,0.0,0.0,0.0,0.0,0.0,0.0,0.0,0.0,0.0,0.0,0.0,0.0,0.0,0.0,2.5087,2.5926,2.763,2.8138,2.9031,0.0,3.1085,3.1612,3.219,3.278,3.3081,3.3081,3.3081,3.3081,3.3081,3.3081,3.3081,3.3081,3.3081,3.3081,3.3081,3.3081,3.3093,3.307,3.2573,3.3301,3.4438,3.3053,3.3461,3.4872,3.587,3.6263,3.6263,4.1033,4.1053,4.1054,0.0,4.1013,4.0994,0.0,0.0,0.0,0.0,4.3315,4.4189,4.4079,4.4608,4.498,4.497,4.497,0.0,0.0,0.0,0.0,4.2924,4.244,4.214,4.2102,4.1274,0.0,4.1565,0.0,4.0296,4.1101,4.1269,4.1593,4.2057,4.2168,4.2118,4.1944,4.1568,4.062,3.9348,3.8479,3.7985,3.7791,0.0,3.7822,3.7975,3.8138,3.8354,3.8442,3.7782,3.7647,3.7496,3.6876,3.6157,3.5524,3.5367,3.4311,3.3198,3.2941,3.2212,3.1302,3.0993,3.0593,3.0257,0.0,0.0,0.0,0.0,0.0,0.0,0.0,0.0,0.0,0.0,0.0,0.0,0.0,0.0,0.0,2.4677,0.0,0.0,0.0,2.504,2.6126,2.6267,2.7619,2.9031,3.0557,0.0,3.0897,3.2177,3.278,3.3081,3.3081,3.3081,3.3081,3.3081,3.3081,3.3081,3.3081,3.3081,3.3081,3.3081,3.3081,3.286,3.2544,3.2846,3.2911,3.298,3.3007,3.3284,3.3598,3.3895,3.3993,3.4091,4.1092,0.0,0.0,4.1052,0.0,0.0,4.152,0.0,0.0,4.2485,4.3363,0.0,4.4311,4.5103,4.555,4.5438,4.5419,0.0,4.4425,0.0,0.0,4.3262,4.3133,4.3023,4.295,4.1903,0.0,4.1678,0.0,4.0696,4.0824,4.1588,4.2068,4.2268,4.2234,4.225,4.2203,4.0981,4.0079,3.9332,3.8463,3.8054,0.0,3.8401,3.8422,3.8243,3.8675,3.8644,3.8282,3.8212,3.7916,3.7546,3.7041,3.6393,3.5737,3.5456,3.458,3.3634,3.3367,3.2763,3.2123,3.1894,3.169,3.133,3.0934,3.0776,3.071,0.0,3.01,2.9541,0.0,0.0,0.0,0.0,0.0,0.0,0.0,0.0,0.0,0.0,2.4708,0.0,2.3368,2.5177,2.6383,2.6171,2.7238,2.8246,2.9105,0.0,3.0456,3.1228,3.2444,3.3081,3.3081,3.3081,3.3081,3.3081,3.3081,3.3081,3.3081,3.3081,3.3081,3.3093,3.3332,3.3245,3.3044,3.379,3.3717,3.3083,3.2696,3.2488,3.2488,3.2488,3.3089,3.4091,4.1081,0.0,0.0,0.0,0.0,0.0,0.0,4.1703,0.0,4.3163,0.0,4.3885,4.4549,4.5358,4.5784,4.5505,0.0,4.481,4.3691,4.4329,4.4244,4.3103,4.3876,4.4221,4.3905,4.2713,4.1934,0.0,0.0,4.1251,4.0065,4.164,4.2132,4.176,4.196,0.0,0.0,4.0394,3.9596,3.942,3.8531,3.8107,3.8041,3.9179,3.8994,3.8243,3.888,3.8708,3.8175,3.8796,3.8487,3.7875,3.7558,3.6894,3.596,3.5254,3.4433,3.3587,3.3064,3.2868,3.2816,3.2816,3.2751,3.2581,3.2233,3.1978,3.1816,3.2139,3.0969,3.0261,0.0,0.0,0.0,0.0,0.0,0.0,0.0,0.0,0.0,0.0,0.0,0.0,0.0,2.532,2.6394,2.6599,2.6895,2.7259,2.769,0.0,3.0208,3.0412,3.2147,3.3081,3.3081,3.3081,3.3081,3.3081,3.3081,3.3081,3.3081,3.3081,3.3119,3.3206,3.3696,3.3884,3.4008,3.4957,3.4715,3.3755,3.2319,3.1779,3.1779,3.1982,3.3178,3.4969,0.0,0.0,0.0,0.0,0.0,4.1962,4.2668,4.3022,4.3291,4.3517,4.4937,4.5851,4.5722,4.6682,4.722,4.6954,4.6266,0.0,0.0,0.0,0.0,4.3831,4.3974,4.3855,4.3334,4.2477,4.2227,0.0,0.0,4.1207,4.1849,4.2109,4.2152,4.1977,4.2596,0.0,4.1171,4.0017,0.0,3.8359,3.8131,3.788,3.7706,3.8325,3.7944,3.7229,3.7997,3.825,3.8026,3.7525,3.7232,3.6922,3.6084,3.5615,3.5291,3.4939,3.4584,3.4241,3.4123,3.377,3.343,3.343,3.3064,3.2712,3.2581,3.2541,3.2528,3.262,3.2369,3.1988,3.1523,0.0,0.0,0.0,0.0,0.0,0.0,0.0,0.0,0.0,0.0,2.6263,0.0,0.0,2.5554,2.5657,2.5961,2.7182,2.9663,0.0,3.0008,0.0,3.293,3.3081,0.0,0.0,3.3081,3.3081,3.3081,3.3081,3.3081,3.3081,3.3319,3.3759,3.3859,3.3937,3.4023,3.4205,3.3862,3.3273,3.3066,3.2901,3.3001,3.3883,3.4483,3.4884,0.0,0.0,0.0,0.0,0.0,0.0,0.0,4.4172,4.4466,4.4265,4.5042,4.5745,4.6038,4.6909,4.7372,4.7127,4.6722,4.6168,4.548,4.5088,4.4507,4.3712,4.3609,0.0,4.2923,4.2204,4.1985,4.2286,0.0,0.0,4.2118,4.2449,4.2523,4.2412,0.0,4.2048,0.0,0.0,0.0,3.8861,3.8543,3.8284,3.8166,3.8672,3.8002,3.6922,3.7372,3.7218,3.683,3.6922,3.6545,3.6017,3.5386,3.5086,3.4921,3.466,3.4481,3.4397,3.4397,3.4201,3.4005,3.4005,3.3796,3.3574,3.3574,3.3574,3.3574,3.3574,3.3352,3.2791,3.1611,3.0312,0.0,0.0,0.0,0.0,0.0,0.0,0.0,0.0,0.0,0.0,0.0,0.0,0.0,0.0,0.0,0.0,0.0,0.0,2.9695,0.0,0.0,0.0,3.3081,0.0,3.3081,3.3081,3.3081,3.3081,3.3081,3.337,3.3646,3.3935,3.4512,3.4765,3.4797,3.4485,3.4257,3.3993,3.34,3.3499,3.4091,3.4581,3.5174,3.5667,0.0,4.0842,0.0,0.0,4.2402,0.0,4.4465,4.5182,4.5457,4.5202,4.5363,4.5748,4.6369,4.7219,4.7627,4.7353,4.7074,4.6563,4.5727,4.5404,4.4736,4.3594,4.3433,4.3067,4.2465,4.1973,4.1689,0.0,0.0,0.0,4.2032,4.2612,4.2732,4.2396,0.0,0.0,0.0,0.0,3.8942,3.9156,3.8855,3.8546,3.8336,3.869,3.789,3.6624,3.6624,3.6256,3.579,3.6401,3.6084,3.5399,3.5086,3.4921,3.4756,3.4481,3.4397,3.4397,3.4397,3.4397,3.4397,3.4397,3.4397,3.4397,3.4397,3.4397,3.4397,3.4397,3.4058,3.3302,3.1849,3.1063,0.0,0.0,0.0,0.0,0.0,0.0,0.0,0.0,0.0,0.0,2.688,0.0,0.0,0.0,0.0,0.0,2.8785,0.0,0.0,0.0,0.0,3.2807,3.2807,0.0,3.3081,3.3081,3.3081,3.3081,3.3093,3.3646,3.396,3.4123,3.5115,3.5604,3.5662,3.5291,3.5174,3.5078,3.419,3.4385,3.5174,3.5174,3.5667,3.6383,0.0,0.0,0.0,0.0,0.0,0.0,4.5434,4.6053,4.6378,4.635,4.7211,4.774,4.7574,4.8527,4.9077,4.8736,4.7664,4.6967,4.6856,4.5747,4.4769,4.3989,4.3914,4.3296,4.1966,4.1924,4.176,0.0,0.0,4.2098,0.0,4.2523,4.2044,0.0,0.0,0.0,0.0,3.9161,3.875,3.795,3.8446,3.8061,3.7215,3.713,3.6545,3.579,3.579,3.579,3.571,3.5562,3.548,3.5318,3.4921,3.4839,3.4756,3.4481,3.4397,3.4397,3.4397,3.4397,3.4397,3.4397,3.4397,3.4397,3.4397,3.4397,3.4397,3.4397,3.4358,3.3878,3.2445,3.2764,3.2817,0.0,0.0,0.0,0.0,0.0,0.0,0.0,0.0,0.0,0.0,2.8581,0.0,0.0,2.7773,0.0,0.0,0.0,0.0,3.1514,3.1649,3.1711,3.1711,3.2646,3.3081,3.3081,3.3081,3.3081,3.3093,3.3646,3.4173,3.4675,3.529,3.583,3.6295,3.6238,3.6263,3.6263,3.6168,3.6156,3.6263,3.6263,3.6358,3.6433,0.0,0.0,0.0,0.0,0.0,0.0,0.0,4.6305,4.6596,4.711,4.7583,4.8017,4.837,4.8616,4.8695,4.8569,4.7803,4.7165,4.6673,4.6168,4.54,4.436,4.4139,4.3482,4.2244,4.2026,4.1627,0.0,0.0,0.0,0.0,0.0,0.0,0.0,0.0,3.9698,3.9691,3.891,3.8466,3.8242,3.8346,3.7842,3.694,3.6916,3.6401,3.571,3.5562,3.5562,3.548,3.5154,3.5086,3.5154,3.4921,3.4673,3.4577,3.4397,3.4397,3.4397,3.4397,3.4397,3.4397,3.4397,3.4397,3.4397,3.4397,3.4397,3.4397,3.4397,3.4397,3.4271,3.3658,3.3369,3.3224,3.3185,0.0,0.0,0.0,0.0,0.0,0.0,0.0,0.0,0.0,0.0,0.0,0.0,0.0,0.0,0.0,0.0,0.0,3.1782,0.0,3.2473,3.2473,3.287,3.3081,3.3081,3.3081,3.3257,3.3583,3.4135,3.4876,3.5717,3.5943,3.6157,3.6358,3.6358,3.6358,3.6358,3.6358,3.6358,3.6358,3.6358,3.6571,3.6885,4.2595,0.0,4.3206,0.0,4.4833,4.5285,4.654,4.6757,4.6975,4.7518,4.7641,4.7905,4.8477,4.8269,4.8075,4.8075,4.7692,4.7144,4.6585,4.6378,4.5757,4.468,4.44,0.0,4.2434,4.2204,4.1543,4.0391,4.1043,0.0,0.0,0.0,0.0,0.0,3.938,3.9201,3.9684,3.8653,3.8202,3.8136,3.7956,3.75,3.6858,3.6624,3.6163,3.5629,3.548,3.5399,3.5318,3.4921,3.4921,3.5003,3.4743,3.4577,3.4397,3.4397,3.4397,3.4397,3.4397,3.4397,3.4397,3.4397,3.4397,3.4397,3.4397,3.4397,3.4397,3.4397,3.4397,3.4397,3.4397,3.3839,3.3645,3.4267,0.0,0.0,0.0,0.0,0.0,0.0,3.1457,3.107,3.0912,3.0461,0.0,0.0,0.0,0.0,0.0,0.0,0.0,0.0,0.0,0.0,3.2646,3.2993,3.3081,3.3081,3.3244,3.352,3.3922,3.4638,3.5479,3.6358,3.6358,3.6358,3.6358,3.6358,3.6358,3.6358,3.6358,3.6358,3.6383,3.6546,3.6847,3.7236,4.3884,4.403,4.4576,4.6087,4.6377,4.6649,4.7446,4.7572,4.7572,4.7591,4.7614,4.7614,4.7632,4.7632,4.7591,4.7591,4.716,4.6908,4.689,4.6315,4.5673,0.0,0.0,4.399,4.2447,4.2394,4.1687,4.0216,0.0,0.0,3.9528,0.0,3.9611,3.9412,3.9347,3.8728,3.7886,3.8394,3.8035,3.7128,3.6963,3.6922,3.678,3.6017,3.571,3.5629,3.548,3.5399,3.5318,3.4921,3.4756,3.4756,3.4481,3.4397,3.4397,3.4397,3.4397,3.4397,3.4397,3.4397,3.4397,3.4397,3.4397,3.4397,3.4397,3.4397,3.4397,3.4397,3.4397,3.4397,3.4397,3.4384,3.4384,3.4397,0.0,0.0,0.0,0.0,0.0,3.1643,3.1526,3.1318,3.0912,3.1554,0.0,0.0,0.0,0.0,0.0,0.0,0.0,3.1625,3.1625,0.0,3.1637,3.2621,3.3081,3.3081,3.3633,3.3884,3.3935,3.5039,3.583,3.6358,3.6358,3.6358,3.6358,3.6358,3.6358,3.6358,3.6358,3.6358,3.642,3.6973,3.7174,3.7349,4.4636,4.4778,4.5115,4.6099,4.623,4.6365,4.6613,4.6649,4.6649,4.6649,4.6649,4.6649,4.6649,4.6954,4.7115,0.0,4.6695,4.6381,0.0,4.6122,4.5699,4.4957,4.4799,4.4048,4.254,4.2428,4.174,4.0342,0.0,0.0,0.0,4.0301,3.9683,3.8527,3.8511,3.8152,3.7511,3.7733,3.7492,3.6949,3.693,3.6559,3.6017,3.5642,3.548,3.548,3.5086,3.5003,3.4921,3.466,3.4494,3.4494,3.4397,3.4397,3.4397,3.4397,3.4397,3.4397,3.4397,3.4397,3.4397,3.4397,3.4397,3.4397,3.4397,3.4397,3.4397,3.4397,3.4397,3.4397,3.4397,3.4397,3.4397,3.4397,3.4397,0.0,3.4397,0.0,3.391,3.3532,3.3342,3.3178,3.2848,3.2918,0.0,0.0,0.0,0.0,0.0,0.0,0.0,0.0,3.2349,0.0,3.2634,3.2895,3.3269,3.3633,3.3822,3.4299,3.5052,3.5768,3.6194,3.6358,3.6358,3.6358,3.6358,3.6358,3.6358,3.6358,3.6358,3.6584,3.6948,3.7123,3.7676,3.8379,4.5431,4.5519,4.5677,4.6102,4.6172,4.6172,4.6172,4.6172,4.6172,4.6172,4.6172,4.6172,4.6172,4.6429,0.0,4.6649,4.6119,4.5735,4.5684,4.5337,4.493,4.449,4.4322,4.3722,4.2598,4.2495,0.0,4.0475,4.0723,4.0603,4.0248,3.9841,3.9219,3.8452,3.8047,3.7627,3.7298,3.7224,3.694,3.648,3.648,3.6097,3.5562,3.548,3.5318,3.5236,3.4921,3.4756,3.4756,3.4481,3.4397,3.4397,3.4397,3.4397,3.4397,3.4397,3.4397,3.4397,3.4397,3.4397,3.4397,3.4397,3.4397,3.4397,3.4397,3.4397,3.4397,3.4397,3.4397,3.4397,3.4397,3.4397,3.4397,3.4397,3.4397,3.4397,3.4397,0.0,3.4158,0.0,0.0,0.0,0.0,3.3135,3.303,0.0,0.0,0.0,0.0,0.0,3.2607,3.2384,3.2807,3.3081,3.3081,3.3282,3.3558,3.3909,3.4324,3.4989,3.5868,3.6207,3.6358,3.6358,3.6358,3.6358,3.6358,3.6358,3.6358,3.6383,3.6584,3.6885,3.7236,3.7663,3.8266,3.8906,4.6172,4.6172,4.6172,4.6172,4.6172,4.6172,4.6172,4.6172,4.6189,4.6189,4.6172,4.6122,4.6122,4.5972,4.5972,4.6055,0.0,0.0,4.4984,4.4175,4.3656,4.3656,4.3495,4.3152,4.2522,4.2522,4.1901,4.0672,3.9977,3.9582,3.9503,3.8635,3.8476,3.8933,3.7866,3.7253,3.7049,3.6922,3.6401,3.571,3.571,3.5562,3.5399,3.5399,3.5236,3.5086,3.4839,3.4756,3.4756,3.4481,3.4397,3.4397,3.4397,3.4397,3.4397,3.4397,3.4397,3.4397,3.4397,3.4397,3.4397,3.4397,3.4397,3.4397,3.4397,3.4397,3.4397,3.4397,3.4397,3.4397,3.4397,3.4397,3.4397,3.4397,3.4397,3.4397,3.4397,3.4243,3.377,0.0,0.0,0.0,3.2213,3.2662,3.302,0.0,0.0,0.0,0.0,0.0,3.2478,3.3056,3.3081,3.3093,3.3131,3.3646,3.3935,3.4022,3.5102,3.5868,3.6358,3.6358,3.6358,3.6358,3.6358,3.6358,3.6358,3.6358,3.6383,3.6471,3.6985,3.7236,3.7425,3.8479,3.8894,3.9007,0.0,0.0,4.6172,4.6172,4.6172,4.6172,4.6172,4.6172,4.6108,4.5805,4.5753,4.5632,4.5232,4.4947,4.4766,4.4821,4.4892,4.4712,4.4061,4.3831,4.342,4.2863,4.2818,4.2522,4.1835,4.1835,4.1706,4.1351,4.1047,4.0591,3.9924,3.9612,3.8829,3.7644,3.7358,3.6768,3.6084,3.6017,3.5871,3.571,3.5562,3.548,3.5399,3.5086,3.4921,3.4839,3.4577,3.4481,3.4481,3.4397,3.4397,3.4397,3.4397,3.4397,3.4397,3.4397,3.4397,3.4397,3.4397,3.4397,3.4397,3.4397,3.4397,3.4397,3.4397,3.4397,3.4397,3.4397,3.4397,3.4397,3.4397,3.4397,3.4397,3.4397,3.4397,3.4397,3.4397,3.4397,3.4223,0.0,3.4027,3.3983,3.3604,3.354,3.3321,0.0,0.0,3.2416,3.2416,3.229,3.2478,3.3056,3.3081,3.3282,3.3709,3.3834,3.4324,3.5165,3.5843,3.6232,3.6358,3.6358,3.6358,3.6358,3.6358,3.6358,3.6358,3.6358,3.6609,3.6998,3.7136,3.7713,3.8504,3.8768,3.9132,3.9521,4.5603,4.5789,4.586,4.5635,4.5789,4.5842,4.5635,4.56,4.5538,4.5303,4.5157,4.492,4.4691,4.4305,4.3963,4.3672,4.3848,4.3731,4.3317,4.2937,4.2537,4.2142,4.2142,4.1964,4.1588,4.1588,4.1358,4.0909,4.0774,4.0347,3.9459,3.8913,3.8175,3.7204,3.6752,3.6229,3.571,3.571,3.571,3.571,3.548,3.5318,3.5236,3.4921,3.4756,3.4577,3.4481,3.4397,3.4397,3.4397,3.4397,3.4397,3.4397,3.4397,3.4397,3.4397,3.4397,3.4397,3.4397,3.4397,3.4397,3.4397,3.4397,3.4397,3.4397,3.4397,3.4397,3.4397,3.4397,3.4397,3.4397,3.4397,3.4397,3.4397,3.4271,3.4192,3.4358,3.4258,3.4206,3.4371,3.4397,3.423,3.3979,3.381,3.3428,3.2895,3.2773,0.0,3.2604,3.2689,3.2827,3.3068,3.3319,3.3596,3.3897,3.4399,3.5077,3.5931,3.6219,3.6358,3.6358,3.6358,3.6358,3.6358,3.6358,3.6358,3.6383,3.6634,3.691,3.7236,3.7751,3.8329,3.8906,3.9157,3.9433,3.9697,4.4887,4.5229,4.5384,4.5,4.5246,4.5336,4.4973,4.4885,4.4853,4.4763,4.4497,4.4248,4.4145,4.3731,4.324,4.274,4.2678,4.2615,4.2615,4.1948,4.1588,4.1588,4.1588,4.1588,4.1588,4.144,4.0925,3.9969,3.9899,3.9388,3.8458,3.7572,3.7049,3.6908,3.6084,3.571,3.571,3.571,3.571,3.5642,3.548,3.5236,3.5003,3.4839,3.4577,3.4397,3.4397,3.4397,3.4397,3.4397,3.4397,3.4397,3.4397,3.4397,3.4397,3.4397,3.4397,3.4397,3.4397,3.4397,3.4397,3.4397,3.4397,3.4397,3.4397,3.4397,3.4397,3.4397,3.4397,3.4397,3.4397,3.4397,3.4371,3.4376,3.4117,3.4081,3.4297,0.0,3.412,3.4345,3.4397,3.423,3.381,3.3713,3.3556,3.324,3.3313,3.3364,3.3366,3.3452,3.349,3.3406,3.3696,3.3985,3.4148,3.5165,3.5893,3.6358,3.6358,3.6358,3.6358,3.6358,3.6358,3.637,3.6458,3.6483,3.6521,3.7073,3.7362,3.7538,3.8492,3.8919,3.9057,3.9521,3.9697,3.9697,4.4899,4.4971,4.4978,4.4923,4.4984,4.4959,4.4908,4.4912,4.4661,4.4056,4.3906,4.3595,4.2919,4.2587,4.2333,4.2222,4.1964,4.1769,4.1769,4.1654,4.1588,4.1588,4.1588,4.1588,4.1588,4.0774,4.0054,3.9448,3.8913,3.825,3.742,3.7063,3.6545,3.5937,3.579,3.571,3.571,3.571,3.5642,3.5399,3.5236,3.5003,3.4839,3.4577,3.4397,3.4397,3.4397,3.4397,3.4397,3.4397,3.4397,3.4397,3.4397,3.4397,3.4397,3.4397,3.4397,3.4397,3.4397,3.4397,3.4397,3.4397,3.4397,3.4397,3.4397,3.4397,3.4397,3.4397,3.4397,3.4397,3.4397,3.4397,3.4337,3.4028,3.4183,3.4219,3.4002,0.0,3.4306,3.4384,3.4243,3.416,3.4076,3.381,3.3628,3.3641,3.3471,3.37,3.4356,3.4221,3.435,3.4743,3.4186,3.4349,3.5278,3.5918,3.6282,3.6358,3.6358,3.6358,3.6358,3.6358,3.6358,3.6383,3.686,3.7061,3.7098,3.7651,3.8165,3.863,3.8806,3.9157,3.9584,3.9659,3.9697,3.9697,4.4198,4.4428,4.4474,4.4255,4.4411,4.4424,4.3993,4.391,4.3711,4.3215,4.3013,4.2715,4.2398,4.2012,4.1851,4.1851,4.172,4.1588,4.1588,4.1588,4.1588,4.1588,4.1588,4.1456,4.1189,4.0485,3.9546,3.8502,3.804,3.7281,3.6387,3.6322,3.6097,3.571,3.571,3.571,3.571,3.5562,3.548,3.5399,3.5086,3.4839,3.4756,3.4481,3.4397,3.4397,3.4397,3.4397,3.4397,3.4397,3.4397,3.4397,3.4397,3.4397,3.4397,3.4397,3.4397,3.4397,3.4397,3.4397,3.4397,3.4397,3.4397,3.4397,3.4397,3.4397,3.4397,3.4397,3.4397,3.4397,3.4397,3.4397,3.4319,3.4222,3.4144,3.4144,3.4183,3.4144,3.4235,3.4358,3.4314,3.4243,3.4076,3.3992,3.3894,3.3713,3.3935,3.4229,3.4584,3.4804,3.5238,3.5981,3.5198,3.5269,3.6341,3.642,3.6452,3.6534,3.6452,3.6358,3.6358,3.6358,3.6521,3.6822,3.7073,3.7349,3.7676,3.8241,3.863,3.8906,3.9195,3.9471,3.9697,3.9697,3.9697,3.9697,4.3628,4.3848,4.3889,4.3552,4.3689,4.3689,4.3075,4.2986,4.2877,4.2543,4.2267,4.2089,4.1996,4.1785,4.1588,4.1588,4.1588,4.1588,4.1588,4.1588,4.1588,4.1588,4.1358,4.1024,4.0493,3.9773,3.881,3.7477,3.7078,3.6452,3.571,3.571,3.571,3.571,3.571,3.5629,3.5642,3.548,3.5318,3.5236,3.4921,3.4756,3.4673,3.4481,3.4397,3.4397,3.4397,3.4397,3.4397,3.4397,3.4397,3.4397,3.4397,3.4397,3.4397,3.4397,3.4397,3.4397,3.4397,3.4397,3.4397,3.4397,3.4397,3.4397,3.4397,3.4397,3.4397,3.4397,3.4397,3.4397,3.4397,3.4397,3.4358,3.431,0.0,3.412,3.4245,3.4117,3.4091,3.4345,3.4397,3.4243,3.4076,3.4192,3.4185,3.4003,3.4542,3.494,3.5156,3.548,3.6084,3.6936,3.6297,3.6316,3.7108,3.6734,3.664,3.6815,3.6534,3.6452,3.6452,3.659,3.6784,3.7199,3.7462,3.7814,3.8253,3.8831,3.9057,3.9107,3.9534,3.9697,3.9697,3.9697,3.9697,3.9697,4.3628,4.3355,4.3174,4.3174,4.2896,4.2724,4.2642,4.265,4.2527,4.2153,4.2119,4.1958,4.167,4.1588,4.1588,4.1588,4.1588,4.1588,4.1588,4.1588,4.1588,4.1588,4.069,3.9984,3.9391,3.8101,3.7078,3.647,3.6045,3.579,3.571,3.571,3.571,3.571,3.571,3.5642,3.5399,3.5399,3.5154,3.4839,3.4839,3.466,3.4397,3.4397,3.4397,3.4397,3.4397,3.4397,3.4397,3.4397,3.4397,3.4397,3.4397,3.4397,3.4397,3.4397,3.4397,3.4397,3.4397,3.4397,3.4397,3.4397,3.4397,3.4397,3.4397,3.4397,3.4397,3.4397,3.4397,3.4397,3.4397,3.4397,3.431,3.3962,0.0,0.0,3.3949,3.4209,3.4345,3.4397,3.4243,3.416,3.4076,3.4555,3.4865,3.4779,3.5383,3.6041,3.6752,3.6651,3.6962,3.7821,3.7546,3.7268,3.7108,3.7108,3.7015,3.7108,3.6815,3.6722,3.6734,3.6981,3.7149,3.7249,3.8291,3.8768,3.8856,3.9408,3.9634,3.9634,3.9672,3.9697,3.9697,3.9697,3.9697,3.9697,4.2929,4.2912,4.2772,4.2772,4.271,4.2506,4.2348,4.2302,4.2189,4.1831,4.1781,4.1749,4.1588,4.1588,4.1588,4.1588,4.1588,4.1588,4.1588,4.1012,4.0669,4.0675,3.9758,3.8971,3.8354,3.7587,3.6936,3.6405,3.5965,3.571,3.571,3.571,3.571,3.571,3.5562,3.548,3.5399,3.5168,3.4921,3.4756,3.4577,3.4481,3.4397,3.4397,3.4397,3.4397,3.4397,3.4397,3.4397,3.4397,3.4397,3.4397,3.4397,3.4397,3.4397,3.4397,3.4397,3.4397,3.4397,3.4397,3.4397,3.4397,3.4397,3.4397,3.4397,3.4397,3.4397,3.4397,3.4397,3.4397,3.4397,3.4397,3.4332,3.4206,0.0,3.4319,3.4206,3.435,3.4397,3.4397,3.464,3.4875,3.4875,3.5284,3.5609,3.5609,3.6067,3.6482,3.6985,3.7273,3.7573,3.79,3.7808,3.7703,3.7611,3.7307,3.7214,3.7307,3.6909,3.6912,3.7267,3.7387,3.777,3.8253,3.8894,3.9272,3.9396,3.9609,3.9697,3.9697,3.9697,3.9697,3.9697,3.9697,3.9697,3.9697,4.1981,4.1965,4.1981,4.219,4.1917,4.1803,4.19,4.1785,4.1654,4.1588,4.1588,4.1588,4.1588,4.1588,4.1522,4.139,4.1522,4.1522,4.1241,4.0158,3.9566,3.9681,3.8723,3.8026,3.7601,3.7063,3.6559,3.6152,3.5884,3.571,3.571,3.5642,3.5642,3.5642,3.5399,3.5236,3.5154,3.4921,3.4756,3.4673,3.4481,3.4397,3.4397,3.4397,3.4397,3.4397,3.4397,3.4397,3.4397,3.4397,3.4397,3.4397,3.4397,3.4397,3.4397,3.4397,3.4397,3.4397,3.4397,3.4397,3.4397,3.4397,3.4397,3.4397,3.4397,3.4397,3.4397,3.4397,3.4397,3.4397,3.4397,3.4397,3.4397,3.4397,3.4397,3.4397,3.4397,3.4554,3.4672,3.4672,3.5195,3.5547,3.5547,3.6057,3.6384,3.6384,3.6753,3.7092,3.7286,3.7678,3.79,3.79,3.79,3.79,3.79,3.7505,3.74,3.7518,3.7194,3.7286,3.7597,3.7855,3.8338,3.8881,3.9272,3.9562,3.9697,3.9697,3.9697,3.9697,3.9697,3.9697,3.9697,3.9697,3.9697,3.9697,4.0883,4.0591,4.0554,4.1194,4.0516,4.0324,4.144,4.1122,4.1003,4.1522,4.1588,4.1588,4.1588,4.1588,4.139,4.0867,4.1256,4.1307,4.0547,3.9204,3.8517,3.867,3.7682,3.7204,3.7204,3.6229,3.571,3.571,3.571,3.571,3.571,3.548,3.5399,3.5399,3.5154,3.5003,3.4756,3.4756,3.466,3.4397,3.4397,3.4397,3.4397,3.4397,3.4397,3.4397,3.4397,3.4397,3.4397,3.4397,3.4397,3.4397,3.4397,3.4397,3.4397,3.4397,3.4397,3.4397,3.4397,3.4397,3.4397,3.4397,3.4397,3.4397,3.4397,3.4397,3.4397,3.4397,3.4397,3.4397,3.4397,3.4397,3.4397,3.4397,3.4397,3.441,3.441,3.492,3.5312,3.5312,3.5783,3.6109,3.6109,3.6658,3.7011,3.7011,3.756,3.79,3.79,3.79,3.79,3.79,3.79,3.79,3.79,3.79,3.7808,3.7518,3.7779,3.7776,3.7635,3.8466,3.8881,3.8906,3.9459,3.9697,3.9697,3.9697,3.9697,3.9697,3.9697,3.9697,3.9697,3.9697,3.9697,3.9697,4.0139,4.0154,4.01,4.0309,4.0409,4.0646,4.1003,4.1189,4.139,4.1588,4.1588,4.1588,4.1588,4.1256,4.082,4.0363,4.06,4.0286,3.9103,3.8627,3.7884,3.667,3.6284,3.6163,3.6163,3.5871,3.571,3.571,3.5562,3.548,3.548,3.5318,3.5154,3.5154,3.5003,3.4839,3.4756,3.4577,3.4481,3.4397,3.4397,3.4397,3.4397,3.4397,3.4397,3.4397,3.4397,3.4397,3.4397,3.4397,3.4397,3.4397,3.4397,3.4397,3.4397,3.4397,3.4397,3.4397,3.4397,3.4397,3.4397,3.4397,3.4397,3.4397,3.4397,3.4397,3.4397,3.4397,3.4397,3.4397,3.4397,3.4397,3.4397,3.4397,3.475,3.5025,3.5025,3.5508,3.5861,3.5861,3.6384,3.6737,3.6737,3.7286,3.7639,3.7639,3.7808,3.79,3.79,3.79,3.79,3.79,3.79,3.79,3.79,3.79,3.8096,3.8369,3.8256,3.8569,3.9257,3.9405,3.9575,3.974,3.9905,3.989,3.9697,3.9697,3.9697,3.9697,3.9697,3.9697,3.9697,3.9697,3.9697,3.9697,3.919,3.9262,3.9262,3.9565,3.9864,4.0301,4.073,4.107,4.1256,4.1256,4.1256,4.1174,4.0956,4.0478,4.0045,3.9505,3.9376,3.8926,3.7973,3.7826,3.7177,3.5777,3.571,3.571,3.571,3.571,3.5629,3.5562,3.544,3.5359,3.5318,3.5072,3.499,3.5003,3.4743,3.466,3.466,3.4481,3.4397,3.4397,3.4397,3.4397,3.4397,3.4397,3.4397,3.4397,3.4397,3.4397,3.4397,3.4314,3.4314,3.4314,3.4314,3.4314,3.4397,3.4147,3.423,3.4243,3.4147,3.423,3.4314,3.4314,3.4314,3.4397,3.4397,3.4397,3.4397,3.4397,3.4397,3.4397,3.4397,3.4593,3.4763,3.4763,3.5247,3.5626,3.5626,3.6109,3.6462,3.6462,3.6998,3.7364,3.7364,3.7691,3.79,3.79,3.79,3.79,3.79,3.79,3.79,3.79,3.79,3.8004,3.8214,3.8227,3.829,3.8629,3.8895,3.9285,3.977,3.9789,3.9867,3.9981,3.9981,3.989,3.9697,3.9697,3.9697,3.9697,3.9697,3.9697,3.9697,3.9697,3.9697,3.9697,3.8202,3.8202,3.8352,3.8958,3.9031,3.9451,4.0509,4.0715,4.0715,4.0715,4.0715,4.0493,3.9905,3.9448,3.8942,3.8457,3.7857,3.74,3.7204,3.6985,3.6535,3.571,3.571,3.5696,3.5696,3.5629,3.5562,3.5399,3.5386,3.5237,3.5086,3.4895,3.4729,3.4756,3.4494,3.4397,3.4397,3.4397,3.4397,3.4397,3.4397,3.4397,3.4397,3.4397,3.4397,3.4397,3.4397,3.4397,3.4314,3.416,3.4076,3.4076,3.4076,3.4147,3.423,3.3797,3.3894,3.3992,3.381,3.3933,3.4153,3.4237,3.436,3.4528,3.4424,3.4437,3.4476,3.4476,3.4515,3.4554,3.4554,3.4999,3.5365,3.5365,3.5822,3.6188,3.6188,3.6711,3.709,3.709,3.7573,3.79,3.79,3.79,3.79,3.79,3.79,3.79,3.79,3.79,3.79,3.79,3.7952,3.8214,3.871,3.8815,3.8773,3.861,3.955,3.9783,3.9486,3.9956,3.9981,3.9685,3.9685,3.9697,3.9697,3.9697,3.9697,3.9697,3.9697,3.9697,3.9697,3.9697,3.9697,3.9697,3.8202,3.8202,3.8277,3.8352,3.8811,3.9177,3.9451,3.9849,4.0115,4.0115,3.9819,3.9606,3.9448,3.8649,3.7979,3.751,3.7232,3.7014,3.7,3.6922,3.6535,3.571,3.5561,3.544,3.544,3.5467,3.5344,3.5154,3.4977,3.4908,3.4839,3.4577,3.4481,3.4481,3.4397,3.4397,3.4397,3.4397,3.4397,3.4397,3.4397,3.4397,3.4397,3.4397,3.4397,3.4397,3.4243,3.416,3.416,3.3894,3.381,3.381,3.381,3.381,3.3797,3.3713,3.3713,3.381,3.3992,3.4399,3.4749,3.5018,3.5417,3.5495,3.4607,3.4763,3.5103,3.5103,3.5443,3.573,3.573,3.5848,3.5926,3.5926,3.6423,3.6802,3.6802,3.7325,3.7704,3.7704,3.7821,3.79,3.79,3.79,3.79,3.79,3.79,3.79,3.79,3.79,3.79,3.79,3.8318,3.8593,3.871,3.9599,4.0043,3.9959,4.0207,4.0374,4.0514,4.044,4.0287,3.9981,3.9981,3.989,3.9697,3.9878,3.989,3.9697,3.9697,3.9697,3.9697,3.9697,3.9697,3.9697,3.8202,3.8202,3.8202,3.8202,3.8723,3.9104,3.9104,3.9565,3.9748,3.932,3.903,3.8738,3.8219,3.7553,3.695,3.6531,3.6387,3.6322,3.6322,3.6318,3.616,3.571,3.5521,3.5345,3.5237,3.5194,3.5057,3.4977,3.4812,3.4743,3.459,3.4481,3.4397,3.4397,3.4397,3.4397,3.441,3.4711,3.4829,3.4842,3.5103,3.5208,3.5208,3.5208,3.5135,3.5076,3.4904,3.4731,3.4558,3.4546,3.4459,3.4372,3.4372,3.4459,3.4446,3.4272,3.4359,3.4546,3.4558,3.4938,3.5331,3.5518,3.5813,3.5953,3.5351,3.5456,3.5678,3.5678,3.59,3.6109,3.6109,3.6345,3.6541,3.6541,3.7037,3.7429,3.7429,3.7704,3.79,3.79,3.79,3.79,3.79,3.79,3.79,3.79,3.79,3.79,3.79,3.79,3.8018,3.8279,3.8566,3.8972,3.952,4.0122,4.0455,4.0629,4.0741,4.0798,4.0883,4.0795,4.0491,4.0287,4.0185,3.9981,3.989,3.989,3.9788,3.9697,3.9697,3.9697,3.9697,3.9697,3.9697,3.9697,3.8202,3.8202,3.8202,3.8202,3.8575,3.8958,3.8885,3.9205,3.9175,3.8323,3.8173,3.7796,3.6993,3.6536,3.6138,3.571,3.571,3.571,3.571,3.571,3.571,3.5642,3.5494,3.5249,3.5072,3.4835,3.4739,3.4716,3.4716,3.4634,3.4397,3.4397,3.445,3.4554,3.4554,3.4607,3.4724,3.5221,3.543,3.5482,3.5926,3.6109,3.6109,3.6022,3.596,3.5823,3.5734,3.5366,3.5098,3.5264,3.5175,3.5008,3.5008,3.5188,3.5175,3.4803,3.4996,3.5353,3.5188,3.5507,3.5913,3.5913,3.6067,3.6309,3.6309,3.6243,3.6165,3.6165,3.6243,3.6309,3.6322,3.6726,3.7065,3.7155,3.7573,3.79,3.79,3.79,3.79,3.79,3.79,3.79,3.79,3.79,3.79,3.79,3.79,3.79,3.79,3.7991,3.824,3.8697,3.8893,3.9359,4.0102,4.0205,4.0404,4.0668,4.0883,4.0997,4.0795,4.0681,4.058,4.0402,4.0287,4.0083,3.9981,3.989,3.9685,3.9697,3.9697,3.9697,3.9697,3.9697,3.9697,3.9697,3.8202,3.8202,3.8202,3.8202,3.8277,3.8202,3.7839,3.7839,3.7749,3.7289,3.6915,3.6615,3.647,3.6058,3.5804,3.5723,3.571,3.571,3.571,3.571,3.5642,3.548,3.5277,3.5019,3.4881,3.4577,3.441,3.4481,3.4481,3.4481,3.4397,3.4397,3.4672,3.5168,3.5168,3.543,3.5874,3.5966,3.5992,3.6005,3.607,3.6109,3.6109,3.5885,3.581,3.5734,3.5366,3.5008,3.4726,3.4816,3.4816,3.4726,3.4726,3.4816,3.4816,3.4726,3.4906,3.5188,3.5353,3.5788,3.6238,3.6419,3.6689,3.697,3.697,3.6767,3.6496,3.6496,3.6806,3.7075,3.7272,3.7337,3.7494,3.7782,3.7848,3.79,3.79,3.79,3.79,3.79,3.79,3.79,3.79,3.79,3.79,3.79,3.79,3.79,3.79,3.8344,3.8645,3.871,3.9677,3.9749,3.8982,3.9461,3.9739,3.9815,3.9815,4.0045,4.0504,3.975,3.9647,4.0185,4.0389,4.0198,3.9788,3.9981,3.9878,3.9697,3.9697,3.9697,3.9697,3.9697,3.9697,3.9697,3.8202,3.8052,3.7839,3.7839,3.7672,3.7443,3.7303,3.7226,3.7148,3.6693,3.6549,3.6312,3.6058,3.5804,3.571,3.571,3.571,3.5642,3.5562,3.5562,3.548,3.5236,3.5046,3.4881,3.4799,3.4551,3.4397,3.4397,3.4397,3.4397,3.441,3.4737,3.5077,3.5305,3.5639,3.58,3.5986,3.6285,3.6326,3.6276,3.6496,3.6625,3.6625,3.656,3.6469,3.6274,3.5919,3.5735,3.5642,3.5642,3.5642,3.5642,3.5642,3.5642,3.5642,3.5642,3.5814,3.5999,3.609,3.6557,3.6934,3.6921,3.7114,3.7307,3.7108,3.7009,3.6921,3.7104,3.7219,3.7413,3.7703,3.7703,3.7795,3.79,3.79,3.79,3.79,3.79,3.79,3.79,3.79,3.79,3.79,3.79,3.79,3.79,3.8187,3.8357,3.8357,3.8893,3.9051,3.8753,3.9239,3.9121,3.8282,3.8528,3.8546,3.8453,3.8546,3.9506,4.0909,4.0593,4.0478,4.058,4.0491,4.03,3.9878,3.989,3.9788,3.9697,3.9697,3.9697,3.9697,3.9697,3.9697,3.9697]},{"header":{"parameterUnit":"m.s-1","parameterCategory":1,"la1":30.6,"la2":28.766,"lo1":-90.7593,"lo2":-88.6598,"dy":0.0162,"dx":0.0183,"nx":116,"ny":114,"refTime":"2023-05-21T12:00:00:Z","depth":0,"parameterNumber":3,"parameterNumberName":"V-component_of_WINDS"},"data":[0.0,0.0,0.0,0.0,0.0,0.0,0.0,0.0,0.0,0.0,0.0,0.0,0.0,0.0,0.0,0.0,0.0,0.0,0.0,0.0,0.0,0.0,0.0,0.0,0.0,0.0,0.0,0.0,0.0,0.0,0.0,0.0,0.0,0.0,0.0,0.0,0.0,0.0,0.0,0.0,0.0,0.0,0.0,0.0,0.0,0.0,0.0,0.0,0.0,0.0,0.0,0.0,0.0,0.0,0.0,0.0,0.0,0.0,0.0,0.0,0.0,0.0,0.0,0.0,0.0,0.0,0.0,0.0,0.0,0.0,0.0,0.0,0.0,0.0,0.0,0.0,0.0,0.0,0.0,0.0,0.0,0.0,0.0,0.0,0.0,0.0,0.0,0.0,0.0,0.0,0.0,0.0,0.0,0.0,0.0,0.0,0.0,0.0,0.0,0.0,0.0,0.0,0.0,0.0,0.0,0.0,0.0,0.0,0.0,0.0,0.0,0.0,0.0,0.0,0.0,0.0,0.0,0.0,0.0,0.0,0.0,0.0,0.0,0.0,0.0,0.0,0.0,0.0,0.0,0.0,0.0,0.0,0.0,0.0,0.0,0.0,0.0,0.0,0.0,0.0,0.0,0.0,0.0,0.0,0.0,0.0,0.0,0.0,0.0,0.0,0.0,0.0,0.0,0.0,0.0,0.0,0.0,0.0,0.0,0.0,0.0,0.0,0.0,0.0,0.0,0.0,0.0,0.0,0.0,0.0,0.0,0.0,0.0,0.0,0.0,0.0,0.0,0.0,0.0,0.0,0.0,0.0,0.0,0.0,0.0,0.0,0.0,0.0,0.0,0.0,0.0,0.0,0.0,0.0,0.0,0.0,0.0,0.0,0.0,0.0,0.0,0.0,0.0,0.0,0.0,0.0,0.0,0.0,0.0,0.0,0.0,0.0,0.0,0.0,0.0,0.0,0.0,0.0,0.0,0.0,0.0,0.0,0.0,0.0,0.0,0.0,0.0,0.0,0.0,0.0,0.0,0.0,0.0,0.0,0.0,0.0,0.0,0.0,0.0,0.0,0.0,0.0,0.0,0.0,0.0,0.0,0.0,0.0,0.0,0.0,0.0,0.0,0.0,0.0,0.0,0.0,0.0,0.0,0.0,0.0,0.0,0.0,0.0,0.0,0.0,0.0,0.0,0.0,0.0,0.0,0.0,0.0,0.0,0.0,0.0,0.0,0.0,0.0,0.0,0.0,0.0,0.0,0.0,0.0,0.0,0.0,0.0,0.0,0.0,0.0,0.0,0.0,0.0,0.0,0.0,0.0,0.0,0.0,0.0,0.0,0.0,0.0,0.0,0.0,0.0,0.0,0.0,0.0,0.0,0.0,0.0,0.0,0.0,0.0,0.0,0.0,0.0,0.0,0.0,0.0,0.0,0.0,0.0,0.0,0.0,0.0,0.0,0.0,0.0,0.0,0.0,0.0,0.0,0.0,0.0,0.0,0.0,0.0,0.0,0.0,0.0,0.0,0.0,0.0,0.0,0.0,0.0,0.0,0.0,0.0,0.0,0.0,0.0,0.0,0.0,0.0,0.0,0.0,0.0,0.0,0.0,0.0,0.0,0.0,0.0,0.0,0.0,0.0,0.0,0.0,0.0,0.0,0.0,0.0,0.0,0.0,0.0,0.0,0.0,0.0,0.0,0.0,0.0,0.0,0.0,0.0,0.0,0.0,0.0,0.0,0.0,0.0,0.0,0.0,0.0,0.0,0.0,0.0,0.0,0.0,0.0,0.0,0.0,0.0,0.0,0.0,0.0,0.0,0.0,0.0,0.0,0.0,0.0,0.0,0.0,0.0,0.0,0.0,0.0,0.0,0.0,0.0,0.0,0.0,0.0,0.0,0.0,0.0,0.0,0.0,0.0,0.0,0.0,0.0,0.0,0.0,0.0,0.0,0.0,0.0,0.0,0.0,0.0,0.0,0.0,0.0,0.0,0.0,0.0,0.0,0.0,0.0,0.0,0.0,0.0,0.0,0.0,0.0,0.0,0.0,0.0,0.0,0.0,0.0,0.0,0.0,0.0,0.0,0.0,0.0,0.0,0.0,0.0,0.0,0.0,0.0,0.0,0.0,0.0,0.0,0.0,0.0,0.0,0.0,0.0,0.0,0.0,0.0,0.0,0.0,0.0,0.0,0.0,0.0,0.0,0.0,0.0,0.0,0.0,0.0,0.0,0.0,0.0,0.0,0.0,0.0,0.0,0.0,0.0,0.0,0.0,0.0,0.0,0.0,0.0,0.0,0.0,0.0,0.0,0.0,0.0,0.0,0.0,0.0,0.0,0.0,0.0,0.0,0.0,0.0,0.0,0.0,0.0,0.0,0.0,0.0,0.0,0.0,0.0,0.0,0.0,0.0,0.0,0.0,0.0,0.0,0.0,0.0,0.0,0.0,0.0,0.0,0.0,0.0,0.0,0.0,0.0,0.0,0.0,0.0,0.0,0.0,0.0,0.0,0.0,0.0,0.0,0.0,0.0,0.0,0.0,0.0,0.0,0.0,0.0,0.0,0.0,0.0,0.0,0.0,0.0,0.0,0.0,0.0,0.0,0.0,0.0,0.0,0.0,0.0,0.0,0.0,0.0,0.0,0.0,0.0,0.0,0.0,0.0,0.0,0.0,0.0,0.0,0.0,0.0,0.0,0.0,0.0,0.0,0.0,0.0,0.0,0.0,0.0,0.0,0.0,0.0,0.0,0.0,0.0,0.0,0.0,0.0,0.0,0.0,0.0,0.0,0.0,0.0,0.0,0.0,0.0,0.0,0.0,0.0,0.0,0.0,0.0,0.0,0.0,0.0,0.0,0.0,0.0,0.0,0.0,0.0,0.0,0.0,0.0,0.0,0.0,0.0,0.0,0.0,0.0,0.0,0.0,0.0,0.0,0.0,0.0,0.0,0.0,0.0,0.0,0.0,0.0,0.0,0.0,0.0,0.0,0.0,0.0,0.0,0.0,0.0,0.0,0.0,0.0,0.0,0.0,0.0,0.0,0.0,0.0,0.0,0.0,0.0,0.0,0.0,0.0,0.0,0.0,0.0,0.0,0.0,0.0,0.0,0.0,0.0,0.0,0.0,0.0,0.0,0.0,0.0,0.0,0.0,0.0,0.0,0.0,0.0,0.0,0.0,0.0,0.0,0.0,0.0,0.0,0.0,0.0,0.0,0.0,0.0,0.0,0.0,0.0,0.0,0.0,0.0,0.0,0.0,0.0,0.0,0.0,0.0,0.0,0.0,0.0,0.0,0.0,0.0,0.0,0.0,0.0,0.0,0.0,0.0,0.0,0.0,0.0,0.0,0.0,0.0,0.0,0.0,0.0,0.0,0.0,0.0,0.0,0.0,0.0,0.0,0.0,0.0,0.0,0.0,0.0,0.0,0.0,0.0,0.0,0.0,0.0,0.0,0.0,0.0,0.0,0.0,0.0,0.0,0.0,0.0,0.0,0.0,0.0,0.0,0.0,0.0,0.0,0.0,0.0,0.0,0.0,0.0,0.0,0.0,0.0,0.0,0.0,0.0,0.0,0.0,0.0,0.0,0.0,0.0,0.0,0.0,0.0,0.0,0.0,0.0,0.0,0.0,0.0,0.0,0.0,0.0,0.0,0.0,0.0,0.0,0.0,0.0,0.0,0.0,0.0,0.0,0.0,0.0,0.0,0.0,0.0,0.0,0.0,0.0,0.0,0.0,0.0,0.0,0.0,0.0,0.0,0.0,0.0,0.0,0.0,0.0,0.0,0.0,0.0,0.0,0.0,0.0,0.0,0.0,0.0,0.0,0.0,0.0,0.0,0.0,0.0,0.0,0.0,0.0,0.0,0.0,0.0,0.0,0.0,0.0,0.0,0.0,0.0,0.0,0.0,0.0,0.0,0.0,0.0,0.0,0.0,0.0,0.0,0.0,0.0,0.0,0.0,0.0,0.0,0.0,0.0,0.0,0.0,0.0,0.0,0.0,0.0,0.0,0.0,0.0,0.0,0.0,0.0,0.0,0.0,0.0,0.0,0.0,0.0,0.0,0.0,0.0,0.0,0.0,0.0,0.0,0.0,0.0,0.0,0.0,0.0,0.0,0.0,0.0,0.0,0.0,0.0,0.0,0.0,0.0,0.0,0.0,0.0,0.0,0.0,0.0,0.0,0.0,0.0,0.0,0.0,0.0,0.0,0.0,0.0,0.0,0.0,0.0,0.0,0.0,0.0,0.0,0.0,0.0,0.0,0.0,0.0,0.0,0.0,0.0,0.0,0.0,0.0,0.0,0.0,0.0,0.0,0.0,0.0,0.0,0.0,0.0,0.0,0.0,0.0,0.0,0.0,0.0,0.0,0.0,0.0,0.0,0.0,0.0,0.0,0.0,0.0,0.0,0.0,0.0,0.0,0.0,0.0,0.0,0.0,0.0,0.0,0.0,0.0,0.0,0.0,0.0,0.0,0.0,0.0,0.0,0.0,0.0,0.0,0.0,0.0,0.0,0.0,0.0,0.0,0.0,0.0,0.0,0.0,0.0,0.0,0.0,0.0,0.0,0.0,0.0,0.0,0.0,0.0,0.0,0.0,0.0,0.0,0.0,0.0,0.0,0.0,0.0,0.0,0.0,0.0,0.0,0.0,0.0,0.0,0.0,0.0,0.0,0.0,0.0,0.0,0.0,0.0,0.0,0.0,0.0,0.0,0.0,0.0,0.0,0.0,0.0,0.0,0.0,0.0,0.0,0.0,0.0,0.0,0.0,0.0,0.0,0.0,0.0,0.0,0.0,0.0,0.0,0.0,0.0,0.0,0.0,0.0,0.0,0.0,0.0,0.0,0.0,0.0,0.0,0.0,0.0,0.0,0.0,0.0,0.0,0.0,0.0,0.0,0.0,0.0,0.0,0.0,0.0,0.0,0.0,0.0,0.0,0.0,0.0,0.0,0.0,0.0,0.0,0.0,0.0,0.0,0.0,0.0,0.0,0.0,0.0,0.0,0.0,0.0,0.0,0.0,0.0,0.0,0.0,0.0,0.0,0.0,0.0,0.0,0.0,0.0,0.0,0.0,0.0,0.0,0.0,0.0,0.0,0.0,0.0,0.0,0.0,0.0,0.0,0.0,0.0,0.0,0.0,0.0,0.0,0.0,0.0,0.0,0.0,0.0,0.0,0.0,0.0,0.0,0.0,0.0,0.0,0.0,0.0,0.0,0.0,0.0,0.0,0.0,0.0,0.0,0.0,0.0,0.0,0.0,0.0,0.0,0.0,0.0,0.0,0.0,0.0,0.0,0.0,0.0,0.0,0.0,0.0,0.0,0.0,0.0,0.0,0.0,0.0,0.0,0.0,0.0,0.0,0.0,0.0,0.0,0.0,0.0,0.0,0.0,0.0,0.0,0.0,0.0,0.0,0.0,0.0,0.0,0.0,0.0,0.0,0.0,0.0,0.0,0.0,0.0,0.0,0.0,0.0,0.0,0.0,0.0,0.0,0.0,0.0,0.0,0.0,0.0,0.0,0.0,0.0,0.0,0.0,0.0,0.0,0.0,0.0,0.0,0.0,0.0,0.0,0.0,0.0,0.0,0.0,0.0,0.0,0.0,0.0,0.0,0.0,0.0,0.0,0.0,0.0,0.0,0.0,0.0,0.0,0.0,0.0,0.0,0.0,0.0,0.0,0.0,0.0,0.0,0.0,0.0,0.0,0.0,0.0,0.0,0.0,0.0,0.0,0.0,0.0,0.0,0.0,0.0,0.0,0.0,0.0,0.0,0.0,0.0,0.0,0.0,0.0,0.0,0.0,0.0,0.0,0.0,0.0,0.0,0.0,0.0,0.0,0.0,0.0,0.0,0.0,0.0,0.0,0.0,0.0,0.0,0.0,0.0,0.0,0.0,0.0,0.0,0.0,0.0,0.0,0.0,0.0,0.0,0.0,0.0,0.0,0.0,0.0,0.0,0.0,0.0,0.0,0.0,0.0,0.0,0.0,0.0,0.0,0.0,0.0,0.0,0.0,0.0,0.0,0.0,0.0,0.0,0.0,0.0,0.0,0.0,0.0,0.0,0.0,0.0,0.0,0.0,0.0,0.0,0.0,0.0,0.0,0.0,0.0,0.0,1.1008,0.0,0.0,0.0,0.0,0.0,0.0,0.0,0.0,0.0,0.0,0.0,0.0,0.0,0.0,0.0,0.0,0.0,0.0,0.0,0.0,0.0,0.0,0.0,0.0,0.0,0.0,0.0,0.0,0.0,0.0,0.0,0.0,0.0,0.0,0.0,0.0,0.0,0.0,0.9331,0.9257,0.9673,1.0525,1.0156,0.9687,0.9128,0.0,0.0,0.0,0.0,0.0,0.0,0.0,0.0,0.0,0.0,0.0,0.0,0.0,0.0,0.0,0.0,0.0,0.0,0.0,0.0,0.0,0.0,0.0,0.0,0.0,0.0,0.0,0.0,0.0,0.0,0.0,0.0,0.0,0.0,0.0,0.0,0.0,0.0,0.0,0.0,0.0,0.0,0.0,0.0,0.0,0.0,0.0,0.0,0.0,0.0,0.0,0.0,0.0,0.0,0.0,0.0,0.0,0.0,0.0,0.0,0.0,0.0,0.0,0.0,0.0,0.0,0.0,0.0,0.0,0.0,0.0,1.1979,0.0,0.0,0.0,0.0,0.0,0.0,0.0,0.0,0.0,0.0,0.0,0.0,0.0,0.0,0.0,0.0,0.0,0.0,0.0,0.0,0.0,0.0,0.0,0.8643,0.8683,0.8561,0.8781,0.8903,0.0,0.0,0.0,0.0,0.0,0.0,0.0,0.9815,0.9889,0.9952,0.996,1.0442,1.136,1.2299,1.2175,1.1158,0.9886,0.0,0.0,0.0,0.0,0.0,0.0,0.0,0.0,0.0,0.0,0.0,0.0,0.0,0.0,0.0,0.0,0.0,0.0,0.0,0.0,0.0,0.0,0.0,0.0,0.0,0.0,0.0,0.0,0.0,0.0,0.0,0.0,0.0,0.0,0.0,0.0,0.0,0.0,0.0,0.0,0.0,0.0,0.0,0.0,0.0,0.0,0.0,0.0,0.0,0.0,0.0,0.0,0.0,0.0,0.0,0.0,0.0,0.0,0.0,0.0,0.0,0.0,0.0,1.3632,1.3963,1.4221,1.4421,1.5141,1.6159,1.5491,1.5274,1.5349,1.4024,0.0,0.0,0.0,0.0,0.0,0.0,0.0,0.0,0.0,0.0,0.0,0.0,0.0,0.0,0.0,0.0,0.0,0.0,0.0,0.0,0.0,0.8659,0.8895,0.8683,0.8854,0.9056,0.9199,0.0,0.0,0.0,0.0,0.0,1.052,1.0446,1.0554,1.0915,1.1472,1.2303,1.3307,1.3275,1.3817,1.4768,1.3239,1.2831,1.3158,0.0,0.0,0.0,0.0,0.0,0.0,0.0,0.0,0.0,0.0,0.0,0.0,0.0,0.0,0.0,0.0,0.0,0.0,0.0,0.0,0.0,0.0,0.0,0.0,0.0,0.0,0.0,0.0,0.0,0.0,0.0,0.0,0.0,0.0,0.0,0.0,0.0,0.0,0.0,0.0,0.0,0.8291,0.9257,0.0,0.0,0.0,0.0,0.0,0.0,0.0,0.0,0.0,0.0,0.0,0.0,0.0,1.3084,1.3158,1.4294,1.4989,1.5186,1.6659,1.791,1.895,1.9344,2.0006,2.078,2.07,0.0,1.634,1.6917,0.0,0.0,0.0,0.0,0.0,0.0,0.0,0.0,0.0,0.0,0.0,0.0,0.0,0.0,0.0,0.0,0.0,0.0,0.0,0.0,0.0,0.8574,0.8635,0.8585,0.8912,0.9064,0.8963,0.9401,0.0,0.0,0.0,1.052,1.1417,1.1129,1.1001,1.1157,1.1996,1.2728,1.3336,1.3768,1.4469,1.5225,1.4551,1.4063,1.3777,1.3305,0.0,0.0,0.0,0.0,0.0,0.0,0.0,0.0,0.0,0.0,0.0,0.0,0.0,0.0,0.0,0.0,0.0,0.0,0.0,0.0,0.0,0.0,0.0,0.0,0.0,0.0,0.0,0.0,0.0,0.0,0.0,0.0,0.0,0.0,0.0,0.0,0.0,0.0,0.0,0.7442,0.842,0.8788,0.8769,0.8445,0.0,0.0,0.0,0.0,0.0,0.0,0.0,0.0,0.0,1.494,1.5158,1.5957,1.7351,1.7477,1.7987,1.9039,1.9292,1.9924,2.0866,2.1081,2.1457,2.1874,2.2286,2.1632,2.0238,1.9404,1.8317,1.7223,0.0,0.0,0.0,0.0,1.7718,1.8148,0.0,0.0,0.0,0.0,0.0,0.0,0.0,0.0,0.0,0.0,0.0,0.0,0.8492,0.8397,0.8364,0.8357,0.8802,0.9033,0.8996,0.9616,1.0247,1.0809,1.0789,1.1246,1.2169,1.1836,1.161,1.1519,1.2187,1.2767,1.3306,1.4049,1.4706,1.5266,1.5266,1.4996,1.456,1.4604,1.4328,1.3941,0.0,0.0,0.0,0.0,0.0,0.0,0.0,0.0,0.0,0.0,0.0,0.0,0.0,0.0,0.0,0.0,0.0,0.0,0.0,0.0,0.0,0.0,0.0,0.0,0.0,0.0,0.0,0.0,0.0,0.0,0.0,0.0,0.0,0.0,0.0,0.0,0.0,0.8633,0.9369,0.9181,1.0225,1.0446,0.0,0.0,0.0,0.0,0.0,0.0,1.4385,1.4697,1.5671,1.7225,1.7505,1.8649,2.0648,2.037,2.0843,2.211,2.165,2.1858,2.2652,2.2846,2.3115,2.3467,2.3955,2.4172,2.4062,2.2037,2.072,2.0004,1.9662,1.9392,1.9174,1.9745,2.0025,2.0412,0.0,0.0,0.0,0.0,0.0,0.0,0.0,0.0,0.0,0.0,0.0,0.7981,0.7944,0.8102,0.8138,0.7963,0.8435,0.9011,0.9711,0.992,1.0471,1.1499,1.1358,1.1738,1.2715,1.2595,1.2484,1.235,1.2157,1.2712,1.4021,1.4106,1.4653,1.5641,1.5641,1.6105,1.6716,1.6156,1.6108,1.6337,1.5726,0.0,0.0,0.0,0.0,0.0,0.0,0.0,0.0,0.0,0.0,0.0,0.0,0.0,0.0,0.0,0.0,0.0,0.0,0.0,0.0,0.0,0.0,0.0,0.0,0.0,0.0,0.0,0.0,0.0,0.0,0.0,0.0,0.0,0.0,0.0,0.0,0.0,0.0,1.2018,1.3194,0.0,0.0,0.0,0.0,1.3504,1.402,1.4949,1.6353,1.7102,1.7944,1.9102,2.0083,2.0801,2.1261,2.211,2.2772,2.3261,2.3791,2.4464,2.5242,2.5894,2.6569,2.7226,2.7238,2.7102,2.6664,2.5024,2.355,2.2274,2.2779,2.2274,2.1355,2.2532,2.3112,2.3424,0.0,0.0,0.0,0.0,0.0,0.0,0.0,0.0,0.8291,0.834,0.8054,0.7937,0.8217,0.7741,0.7604,0.798,0.8147,0.8385,0.8678,0.9532,1.0367,1.1077,1.163,1.1997,1.2017,1.2134,1.205,1.1668,1.2327,1.2912,1.3414,1.3633,1.3943,1.4266,1.4266,1.4689,1.5438,1.58,1.6224,1.6514,1.5814,1.5142,0.0,0.0,0.0,0.0,0.0,0.0,0.0,0.0,0.0,0.0,0.0,0.0,0.0,0.0,0.0,0.0,0.0,0.0,0.0,0.0,0.0,0.0,0.0,0.0,0.0,0.0,0.0,0.0,0.0,0.0,0.0,0.0,0.0,0.0,0.0,0.0,0.0,1.2725,1.4248,0.0,1.396,1.471,1.5462,1.5963,1.6911,1.7862,1.8666,1.8985,1.9554,2.0518,2.0837,2.1865,2.3449,2.3296,2.4136,2.5991,2.5744,2.5988,2.6747,2.7015,2.7335,2.7705,2.7705,2.7679,2.7686,2.711,2.6144,2.5054,2.5271,2.5054,2.4755,2.5203,2.5351,2.5512,0.0,0.0,0.0,0.0,0.0,0.0,0.0,0.0,0.8198,0.8062,0.7813,0.772,0.7921,0.7195,0.6992,0.7655,0.7611,0.7905,0.8583,0.9529,1.0524,1.158,1.2117,1.2064,1.1353,1.151,1.1581,1.156,1.2304,1.2848,1.3177,1.3397,1.3492,1.3492,1.3492,1.3775,1.4258,1.4887,1.5739,1.6603,1.6455,1.603,1.5421,0.0,0.0,0.0,0.0,0.0,0.0,0.0,0.0,0.0,0.0,0.0,0.0,0.0,0.0,0.0,0.0,0.0,0.0,0.0,0.0,0.0,0.0,0.0,0.0,0.0,0.0,0.0,0.0,0.0,0.0,0.0,0.0,0.0,0.0,0.0,1.4571,1.3594,1.5642,1.6707,1.5766,1.697,1.7965,1.8364,1.9383,2.0068,2.0342,2.0797,2.1301,2.1819,2.2528,2.3745,2.5397,2.5307,2.6178,2.8024,2.7569,2.7645,2.8175,2.8263,2.835,2.8438,2.8438,2.8512,2.8674,2.8674,2.8247,2.7544,2.7168,2.7017,2.7017,2.7017,2.7017,2.7017,0.0,0.0,0.0,0.0,0.0,0.0,0.0,0.7946,0.7842,0.7459,0.7338,0.7188,0.7008,0.6521,0.6358,0.6862,0.6841,0.7613,0.9425,0.9834,1.0919,1.3065,1.2669,1.19,1.0913,1.0899,1.1231,1.2077,1.2084,1.2527,1.3419,1.3419,1.3419,1.3492,1.3492,1.3499,1.3492,1.3492,1.4832,1.6904,1.7539,1.7625,1.7307,0.0,0.0,0.0,0.0,0.0,0.0,0.0,0.0,0.0,0.0,0.0,0.0,0.0,0.0,0.0,0.0,0.0,0.0,0.0,0.0,0.0,0.0,0.0,0.0,0.0,0.0,0.0,0.0,0.0,0.0,0.0,0.0,0.0,1.3469,1.4585,1.545,1.4881,1.7459,1.9049,1.8113,1.9183,2.0146,2.0576,2.1006,2.126,2.1269,2.2534,2.3254,2.3265,2.5205,2.6464,2.6799,2.7989,2.8756,2.9131,2.9353,2.9419,2.9419,2.9702,2.9792,2.9792,2.9792,2.9792,2.9792,2.9792,2.9792,2.9679,2.8586,2.816,2.816,2.816,2.816,2.816,0.0,0.0,0.0,0.0,0.0,0.0,0.0,0.7836,0.794,0.7408,0.7186,0.6976,0.6646,0.6332,0.6297,0.6787,0.6693,0.7323,0.8848,0.9524,1.0612,1.241,1.1011,1.0226,1.0342,1.0331,1.0498,1.0941,1.149,1.1924,1.2157,1.2157,1.2452,1.2826,1.2826,1.3119,1.3564,1.4049,1.4681,1.5296,1.6321,1.6741,1.6797,0.0,0.0,0.0,0.0,0.0,0.0,0.0,0.0,0.0,0.0,0.0,0.0,0.0,0.0,0.0,0.0,0.0,0.0,0.0,0.0,0.0,0.0,0.0,0.0,0.0,0.0,0.0,0.0,0.0,0.0,0.0,0.0,1.6732,1.5397,1.7213,1.8789,1.8911,1.9993,2.0701,2.0785,2.1167,2.1396,2.1514,2.1641,2.2073,2.3022,2.3392,2.4094,2.5013,2.5672,2.6472,2.7507,2.7826,2.8555,2.9624,2.9702,2.9689,2.9689,2.9792,2.9792,2.9792,2.9792,2.9792,2.9792,2.9792,2.9792,2.9767,2.9453,2.9327,2.9327,2.9327,2.9327,2.9327,0.0,0.0,0.0,0.0,0.0,0.0,0.0,0.7363,0.7553,0.6844,0.6878,0.6771,0.6263,0.5999,0.6093,0.652,0.6731,0.7384,0.8715,0.9729,1.0497,1.1001,1.002,0.9654,0.9916,0.9904,1.0122,1.0595,1.1113,1.1484,1.1706,1.1706,1.1855,1.2224,1.2526,1.2826,1.3193,1.3833,1.4122,1.4258,1.5321,1.6151,1.6768,1.689,1.689,1.6763,1.6093,1.577,1.5274,1.2857,0.0,0.0,0.0,0.0,0.0,0.0,0.0,0.0,0.0,0.0,0.0,0.0,0.0,0.0,0.0,0.0,0.0,0.0,0.0,0.0,0.0,0.0,0.0,0.0,1.7346,1.8702,1.823,1.9496,2.0635,2.1064,2.1348,2.168,2.2109,2.2148,2.2217,2.2402,2.2412,2.3003,2.4353,2.4788,2.5592,2.7015,2.7615,2.8292,2.9054,2.9205,2.9702,3.047,3.047,3.047,3.047,3.047,3.047,3.047,3.047,3.0694,3.0995,3.0995,3.1216,0.0,0.0,0.0,0.0,0.0,2.9998,3.0203,0.0,0.0,0.0,0.0,0.0,0.0,0.0,0.6745,0.6952,0.6113,0.6507,0.6558,0.5747,0.5583,0.5705,0.6048,0.6692,0.7611,0.8838,0.9918,1.013,0.9301,0.943,0.9493,0.9561,0.9577,0.9985,1.0663,1.0663,1.0962,1.1484,1.1484,1.1558,1.1632,1.2157,1.2452,1.2526,1.3119,1.3419,1.3492,1.441,1.5675,1.6927,1.6459,1.6772,1.7324,1.6487,1.6323,1.6066,1.3424,0.0,0.0,0.0,0.0,0.0,0.0,0.0,0.0,0.0,0.0,0.0,0.0,0.0,0.0,0.0,0.0,0.0,0.0,0.0,0.0,0.0,0.0,0.0,0.0,1.9556,2.1007,2.1328,2.1465,2.1631,2.1924,2.2041,2.2246,2.2617,2.2695,2.2881,2.3252,2.3281,2.3879,2.5399,0.0,0.0,0.0,0.0,3.0778,3.0778,3.1165,3.1386,3.1386,3.1386,3.1386,3.1386,3.1386,3.1386,3.1386,3.1386,3.186,3.2567,3.2646,3.3247,3.3742,3.1164,3.0123,3.0123,3.0045,3.0381,3.0877,0.0,0.0,0.0,0.0,0.0,0.0,0.0,0.6356,0.7147,0.6265,0.6556,0.6357,0.5074,0.5057,0.5054,0.4779,0.5977,0.7302,0.8519,0.789,0.7735,0.8404,0.7844,0.8043,0.9114,0.9426,0.9764,1.0067,1.0067,1.0143,1.0218,1.0218,1.0519,1.0962,1.1111,1.1409,1.1929,1.2526,1.2746,1.282,1.3484,1.4752,1.6271,1.7098,1.7734,1.8268,1.8228,1.8287,1.81,1.6717,1.6113,1.556,1.3924,1.2853,0.0,0.0,0.0,0.0,0.0,0.0,0.0,0.0,0.0,0.0,0.0,0.0,0.0,0.0,0.0,0.0,0.0,0.0,0.0,1.9012,2.0999,2.2429,2.2256,2.2861,2.3066,2.2461,2.2998,2.3457,2.3535,2.3848,2.4082,2.416,2.417,2.4997,2.6767,2.7042,2.7959,2.9821,3.0241,3.0587,3.0778,3.1013,3.1235,3.1386,0.0,0.0,3.1386,3.1386,3.1386,3.1386,3.1386,3.1468,3.1711,3.2408,3.3247,3.39,3.2633,3.2163,3.2084,3.1314,3.1153,3.1301,0.0,0.0,0.0,0.0,0.0,0.0,0.0,0.6404,0.8013,0.7654,0.7881,0.7824,0.7223,0.6951,0.6796,0.6732,0.702,0.7478,0.8139,0.6939,0.6455,0.6946,0.6594,0.6964,0.808,0.8692,0.912,0.9311,0.969,0.9922,0.9922,0.9922,1.0067,1.0368,1.0663,1.1111,1.1706,1.2305,1.2746,1.3046,1.3346,1.4194,1.5376,1.6367,1.7432,1.8405,1.8539,1.8607,1.8546,1.8102,1.7668,1.734,1.6655,1.5573,1.4338,0.0,0.0,0.0,0.0,0.0,0.0,0.0,0.0,0.0,0.0,0.0,0.0,0.0,0.0,1.6641,0.0,0.0,1.9804,2.0865,2.2129,2.3083,2.3125,2.3701,2.3867,2.3232,2.3711,2.4102,2.4102,2.4287,2.4588,2.5128,2.5128,2.6107,2.8309,2.8408,2.9247,3.0953,3.1308,3.1479,3.1746,3.1988,3.2156,3.2227,3.2227,3.2227,3.2227,3.2227,3.2227,3.2227,3.2227,3.2702,3.3631,3.4903,3.569,3.5995,3.5137,3.4471,3.3865,3.3,3.2935,3.3247,0.0,0.0,0.0,0.0,0.0,0.0,0.0,0.4635,0.6882,0.7562,0.7181,0.7396,0.8939,0.7983,0.7772,0.915,0.8069,0.7452,0.7826,0.6236,0.5396,0.5548,0.5571,0.6075,0.7,0.777,0.8232,0.8394,0.9079,0.9458,0.9458,0.9614,0.969,0.969,1.0368,1.0887,1.1409,1.215,1.2673,1.3193,1.3419,1.3912,1.4673,1.5392,1.6585,1.7842,1.8202,1.8269,1.8269,1.8414,1.8482,1.8482,1.8482,1.7514,1.6096,1.4841,1.404,0.0,0.0,0.0,0.0,0.0,0.0,0.0,0.0,0.0,1.465,1.7046,1.7697,1.8408,2.0289,2.0649,2.1033,2.2532,2.3212,2.3624,2.3867,2.4277,2.4414,2.4082,2.4336,2.4541,2.4541,2.4795,2.5205,2.5839,2.6194,2.7327,2.926,2.955,3.0467,3.2025,3.23,3.2562,3.2711,3.2982,3.3081,3.3081,3.3081,3.3081,3.3081,3.324,3.3326,3.3326,3.3484,3.4428,3.5949,3.74,3.8037,3.8127,3.7414,3.6561,3.5684,3.4664,3.4741,3.5133,0.0,0.0,0.0,0.0,0.0,0.0,0.0,0.0,-0.0193,0.2526,0.0027,0.0389,0.6601,0.4571,0.4648,0.947,0.7448,0.6384,0.7489,0.4982,0.3825,0.4491,0.4934,0.5494,0.6311,0.7007,0.7318,0.7395,0.7617,0.777,0.777,0.8466,0.8856,0.8856,0.9614,1.0067,1.0143,1.1335,1.1855,1.2003,1.3046,1.3912,1.4673,1.5392,1.5816,1.6158,1.7706,1.7842,1.7354,1.8056,1.8414,1.8482,1.8337,1.8162,1.761,1.5555,1.4672,1.386,1.1715,1.1563,1.2659,1.4795,1.4706,1.5181,0.0,0.0,1.863,2.0876,2.1477,2.1787,2.2443,2.3018,2.3511,2.3821,2.4275,2.4582,2.4346,2.4717,2.498,2.4932,2.4971,2.5,2.5,2.6158,2.6581,2.5769,2.7421,2.8538,2.9054,2.9897,3.1033,3.23,3.255,3.2723,3.2711,3.2982,3.3081,3.3081,3.3081,3.3081,3.3167,3.3907,3.423,3.4314,3.4992,3.5869,3.6766,3.6936,3.7491,3.8202,3.8127,3.7965,3.767,3.606,3.5505,3.5425,0.0,0.0,0.0,0.0,0.0,0.0,0.0,0.0,0.0,0.0752,-0.0602,-0.044,0.2918,0.3827,0.6183,1.1049,0.8371,0.6754,0.7398,0.4773,0.3351,0.3765,0.4042,0.4362,0.4822,0.5653,0.6157,0.6237,0.7007,0.7314,0.7314,0.7774,0.8237,0.8703,0.9084,0.9685,1.0438,1.0962,1.1558,1.2305,1.2746,1.3404,1.4049,1.4752,1.5029,1.4969,1.4212,1.3932,0.0,1.3953,1.4199,1.4927,1.7389,1.7832,1.7207,1.5797,1.53,1.5262,1.5278,1.4993,1.5091,0.0,1.7128,1.7454,1.9417,1.9471,1.9752,2.1977,2.2508,2.28,2.3484,2.3839,2.4009,0.0,2.4707,2.4898,2.4795,2.5176,2.5459,2.5459,2.5459,2.5459,2.5459,2.5982,2.6648,2.7389,2.8308,2.9418,3.0633,3.1282,3.1913,3.255,3.2636,3.2797,3.2896,3.3068,3.3081,3.3081,3.3081,3.3081,3.3081,3.3496,3.3907,3.4468,3.5237,3.6108,3.6936,3.7491,3.7886,3.8202,3.8202,3.8202,3.8113,3.74,3.7078,3.7078,0.0,0.0,0.0,0.0,0.0,0.0,0.0,0.0,0.0,0.0,-0.3223,-0.3429,-0.1692,0.1877,0.5451,0.8684,0.6999,0.5739,0.5657,0.4284,0.3491,0.342,0.345,0.3614,0.3776,0.4558,0.5002,0.516,0.6086,0.6472,0.6549,0.6927,0.7621,0.8389,0.8623,0.9382,1.0588,1.0738,1.1409,1.2378,1.2526,1.2973,1.3564,1.4322,1.3884,1.268,1.1085,1.0905,1.1346,1.0431,1.0615,1.1898,1.6156,1.694,1.614,1.5521,1.523,1.5475,1.7063,1.7003,0.0,1.8373,1.9012,1.9453,1.9824,2.0099,2.0819,2.2614,2.2952,2.3179,2.392,2.4147,2.4274,2.4531,2.4971,2.5254,2.5254,2.5527,2.5742,2.5742,2.5742,2.5742,2.5742,2.6197,2.703,2.8319,2.9338,3.0441,3.1737,3.2201,3.2562,3.2797,3.281,3.2896,3.3081,3.3081,3.3081,3.3081,3.3081,3.3081,3.3167,3.3556,3.4371,3.5507,3.6029,3.6674,3.7323,3.7962,3.8202,3.8202,3.8202,3.8202,3.8202,3.8202,3.8202,3.8202,0.0,0.0,0.0,0.0,0.0,0.0,0.0,0.0,0.0,0.0,0.0,0.0,0.0,-0.2726,0.0,0.0085,0.1721,0.229,0.1243,0.3138,0.4004,0.3397,0.345,0.354,0.3624,0.3949,0.4157,0.4157,0.4545,0.4776,0.4776,0.578,0.67,0.754,0.8313,0.9155,0.9997,1.0513,1.1186,1.1781,1.2378,1.2973,1.3564,1.4322,1.2124,0.8694,0.9498,1.0236,1.0607,0.9092,0.9066,1.0443,1.487,1.545,1.4586,1.4647,1.4101,1.3891,1.5316,0.0,1.65,1.9138,2.0071,2.0735,2.2109,2.2386,2.2502,2.3027,2.3115,2.3252,2.3701,2.4121,2.4541,2.498,2.543,2.5713,2.5713,2.5723,2.5742,2.5742,2.5742,2.5742,0.0,2.7484,2.8319,2.7683,3.0272,3.1737,3.1223,3.2164,3.281,3.3081,3.3081,3.3081,3.3081,3.3081,3.3081,3.3081,3.3081,3.3081,3.3154,3.4746,3.6425,3.8127,3.8127,3.8127,3.8127,3.8202,3.8202,3.8202,3.8202,3.8202,3.8202,3.8202,3.8202,3.8052,0.0,0.0,0.0,0.0,0.0,0.0,0.0,0.0,0.0,0.0,0.0,0.0,0.0,0.0,0.0,0.0,-0.2445,-0.2894,-0.29,-0.1139,0.0,0.0228,0.2354,0.3514,0.3542,0.3228,0.3294,0.3921,0.3602,0.3759,0.4311,0.4774,0.5541,0.6461,0.7314,0.8237,0.916,0.9911,1.0513,1.1186,1.1781,1.2378,1.2649,1.0629,0.9152,0.7591,0.0,0.1463,0.2809,0.2624,0.3837,0.6284,1.1443,1.3066,1.3105,1.3339,1.3954,1.4718,1.5651,0.0,1.7376,2.0027,2.0796,2.1179,2.2563,2.293,2.2969,2.3105,2.2563,2.2225,2.283,2.3152,2.3582,2.4114,2.5072,2.5742,2.5742,2.5742,2.5742,2.5742,2.5742,0.0,0.0,0.0,0.0,2.8495,3.026,3.1536,3.2152,3.2711,3.2982,3.3081,3.3081,3.3081,3.3081,3.3081,3.3081,3.3081,3.3654,3.3979,3.3992,3.5074,3.6267,3.7323,3.7323,3.7644,3.8202,3.8202,3.8202,3.8202,3.8202,3.8202,3.8202,3.8202,3.8202,3.8127,0.0,0.0,0.0,0.0,0.0,0.0,0.0,0.0,0.0,0.0,0.0,0.0,0.0,0.0,0.0,0.0,0.0,-0.7285,-0.7326,-0.4904,-0.3597,-0.386,-0.177,-0.0837,-0.1159,-0.1339,-0.1235,-0.0832,0.0573,0.1464,0.1851,0.3615,0.5002,0.6157,0.6853,0.7855,0.8932,0.962,0.9242,0.8255,0.8902,0.8436,0.7095,0.5101,0.3719,0.0,-0.3189,-0.4541,-0.3615,-0.2261,0.0114,0.3351,0.8498,1.1071,1.2395,1.3292,1.4236,1.5194,1.6407,1.6796,1.7592,2.0551,2.1047,2.1198,2.2717,2.3135,2.3135,2.3135,2.2274,2.1671,2.2259,2.2462,2.2644,2.2833,2.3918,2.4708,2.4862,2.4881,2.5093,2.5606,2.5742,2.583,0.0,0.0,0.0,2.9039,3.0531,3.1825,3.281,3.2982,3.3081,3.3081,3.3081,3.3081,3.3081,3.3081,3.324,3.3569,3.4147,3.4716,3.5345,3.5803,3.6517,3.7337,3.7337,3.7644,3.8202,3.8202,3.8202,3.8202,3.8202,3.8202,3.8202,3.8202,3.8202,3.8202,0.0,0.0,0.0,0.0,0.0,0.0,0.0,0.0,0.0,0.0,0.0,0.0,0.0,0.0,0.0,0.0,0.0,0.0,-1.1939,-0.8247,-0.6764,-0.8453,-0.8297,-0.8608,-0.9574,-0.8969,-0.8789,-0.9145,-0.438,-0.223,-0.2512,0.1686,0.4378,0.5594,0.6125,0.7112,0.8403,0.8856,0.6766,0.3156,0.3799,0.152,-0.2182,-0.178,-0.3837,-0.687,-0.6744,-0.7523,-0.8152,-0.5272,-0.1785,0.212,0.6471,0.9827,1.2583,1.4438,1.4852,1.5295,1.7423,1.727,1.7298,2.0696,2.0872,2.0683,2.2589,2.3057,2.3125,2.2999,2.2207,2.1596,0.0,0.0,2.1933,2.132,2.2161,2.3063,2.3551,2.3636,2.4136,0.0,0.0,0.0,0.0,0.0,0.0,2.9407,0.0,3.2562,3.3068,3.3081,3.3081,3.3081,3.3081,3.3081,3.3081,3.3081,3.3496,3.4314,3.4397,3.5264,3.6858,3.6936,3.7414,3.8202,3.8202,3.8202,3.8202,3.8202,3.8202,3.8202,3.8202,3.8202,3.8202,3.8202,3.8202,3.8202,0.0,0.0,0.0,0.0,0.0,0.0,0.0,0.0,0.0,0.0,0.0,0.0,0.0,0.0,0.0,0.0,0.0,0.0,-1.5955,-1.3295,-1.1765,-1.1858,-1.0011,-0.9233,-0.9743,-1.0,-0.9918,-0.9472,-0.881,-0.8291,-0.7907,-0.7081,-0.6623,-0.6418,-0.5789,-0.5027,-0.4235,-0.3082,-0.3019,-0.3571,-0.2619,-0.2735,-0.3851,-0.6214,-0.7619,-0.8669,-1.0872,-1.0957,-0.944,-0.5877,-0.018,0.6021,0.9563,1.1999,1.367,1.4206,1.5272,1.6232,1.6569,1.6846,1.7469,1.9082,1.9877,2.0512,2.1784,2.2599,2.2872,2.2146,2.1089,2.0402,2.037,0.0,0.0,2.1652,2.3276,0.0,2.4694,2.4995,0.0,2.5616,0.0,2.6914,2.7189,2.8773,0.0,0.0,3.1649,3.2562,3.3068,3.3081,3.3081,3.3081,3.3081,3.3081,3.3081,3.3081,3.324,3.3411,3.4677,3.5548,3.5949,3.7323,3.7962,3.8202,3.8202,3.8202,3.8202,3.8202,3.8202,3.8202,3.8202,3.8202,3.8202,3.8202,3.8202,3.8202,0.0,0.0,0.0,0.0,0.0,0.0,0.0,0.0,0.0,0.0,0.0,0.0,0.0,0.0,0.0,0.0,0.0,0.0,0.0,-1.5982,-1.5316,-1.5604,-1.4625,-1.4367,-1.4916,-1.5361,-1.5454,-1.5101,-1.3476,-1.2565,-1.2295,-1.0929,-1.0228,-1.0129,-0.9563,-0.9004,-0.8409,-0.7277,-0.7783,0.0,0.0,-0.9214,-1.1152,-1.2716,-1.3131,-1.3059,-1.4333,-1.155,-0.6731,0.0,0.0,0.8695,1.1461,1.3035,1.4064,1.4842,0.0,1.6593,1.6802,1.722,1.7727,1.8746,1.9752,2.0534,2.102,2.1883,2.2308,2.1554,2.0576,0.0,1.9977,0.0,0.0,0.0,0.0,0.0,2.438,2.4789,2.5293,0.0,2.6744,0.0,2.7934,2.9418,3.0722,0.0,3.2101,3.2562,3.3068,3.3081,3.3081,3.3081,3.3081,3.3081,3.3081,3.3081,3.3326,3.3654,3.4607,3.548,3.6188,3.7155,3.781,3.8202,0.0,3.8202,3.8202,3.8202,3.8202,3.8202,3.8202,3.8277,3.8366,3.8366,3.8541,3.894,0.0,0.0,0.0,0.0,0.0,0.0,0.0,0.0,0.0,0.0,0.0,0.0,0.0,0.0,0.0,0.0,0.0,0.0,0.0,0.0,-1.7781,-1.8741,-1.9747,-2.0645,-2.1464,-2.1816,-2.209,-2.2276,-1.8216,-1.634,-1.6574,-1.3421,-1.1763,-1.1333,-1.0988,-1.0576,-0.9974,-0.9266,-1.1273,-1.481,-1.4115,-1.6351,-1.9947,0.0,-1.8714,-1.808,-1.6724,-1.0853,-0.3034,0.1245,0.5937,1.0431,1.2698,1.3673,1.4229,1.568,1.6292,1.6683,1.7596,1.7786,1.7949,1.9028,1.9931,2.0629,2.0409,2.1191,2.1728,2.1102,0.0,1.9794,2.016,2.0573,2.0697,2.0145,0.0,2.3133,2.3796,2.4224,2.4957,2.6001,2.7125,2.8143,2.8958,3.0068,3.127,3.2624,3.2562,3.2649,3.3081,3.3081,3.3081,3.3081,3.3081,3.3081,3.3081,3.3081,3.3496,3.423,3.4468,3.5345,3.6766,3.6936,3.7491,3.8202,3.8202,3.8202,3.8202,3.8202,3.8202,3.8202,3.8202,3.8277,3.853,3.8618,3.9163,3.9814,0.0,0.0,0.0,0.0,0.0,0.0,0.0,0.0,0.0,0.0,-1.625,-1.6344,0.0,0.0,0.0,0.0,0.0,0.0,0.0,0.0,0.0,-1.8726,-1.9997,-2.0911,-2.1345,-2.203,-2.2607,-2.3093,-2.2382,-2.2378,-2.2975,-2.2424,-2.2319,-2.2585,-2.223,-2.1974,-2.1729,-2.1158,-2.1091,-2.1368,-2.112,-2.1025,-2.1004,-2.0913,0.0,0.0,-1.6081,-1.124,-0.537,0.0711,0.6515,1.1702,1.3902,1.5226,1.5992,1.622,1.6705,1.7279,1.7677,1.7618,1.766,1.8965,1.9835,2.03,2.0166,2.1099,0.0,0.0,1.9717,1.9916,1.9841,2.042,2.1273,2.2359,0.0,0.0,0.0,0.0,2.623,0.0,0.0,0.0,0.0,0.0,0.0,0.0,0.0,3.281,3.3068,3.3081,3.3081,3.3081,3.3081,3.3081,3.3081,3.3081,3.3167,3.3326,3.4759,3.5548,3.5855,3.7323,3.8037,3.8202,3.8202,0.0,3.8202,3.8202,3.8202,3.8202,3.8202,3.8277,3.8589,3.9115,3.9545,3.9873,0.0,0.0,0.0,0.0,0.0,0.0,0.0,-1.6166,-1.6234,-1.6166,-1.6416,-1.6688,-1.6828,-1.7336,0.0,0.0,0.0,0.0,0.0,0.0,0.0,0.0,-2.0223,-2.091,-2.1083,-2.2186,-2.2841,-2.2981,0.0,-2.3654,-2.3932,-2.418,-2.4478,-2.4831,-2.4858,-2.4795,-2.4683,-2.4471,-2.4003,-2.3403,-2.3338,-2.2933,-2.2247,0.0,0.0,0.0,0.0,-1.2722,-0.7281,-0.2788,0.3571,1.0239,1.3987,1.5738,1.6367,1.6367,1.6828,1.7399,1.7728,1.7699,1.7801,1.8996,1.9832,2.0271,1.96,0.0,0.0,0.0,1.9551,1.9849,2.0148,0.0,0.0,0.0,0.0,0.0,0.0,0.0,0.0,0.0,0.0,0.0,0.0,0.0,0.0,0.0,0.0,3.2982,3.3081,3.3081,3.3081,3.3081,3.3081,3.3081,3.3081,3.3081,3.3081,3.3081,3.3869,3.4746,3.5615,3.6503,3.7309,3.8202,3.8202,0.0,3.8202,3.8202,3.8202,3.8202,3.8202,3.857,3.9057,3.953,4.0212,4.0985,0.0,0.0,0.0,0.0,0.0,0.0,0.0,-1.6095,-1.6207,-1.6207,-1.6598,-1.7013,-1.7347,-1.7798,-1.8199,0.0,0.0,0.0,0.0,0.0,0.0,0.0,0.0,0.0,0.0,0.0,0.0,-2.2736,-2.3286,0.0,0.0,0.0,0.0,0.0,-2.4422,-2.4582,-2.4552,-2.4689,-2.4489,0.0,0.0,-2.3777,0.0,0.0,0.0,0.0,0.0,-1.4895,-1.0104,-0.663,-0.0803,0.5921,1.1303,1.4341,1.592,1.5793,1.6301,1.6929,1.761,1.7765,1.8007,1.9296,2.0094,2.0395,1.9408,2.0184,0.0,0.0,1.9406,1.9755,2.0324,0.0,2.1362,0.0,0.0,0.0,0.0,0.0,0.0,0.0,0.0,0.0,0.0,0.0,0.0,0.0,0.0,0.0,3.3081,3.3081,3.3081,3.3081,3.3081,3.3081,3.3081,3.3081,3.3154,3.3411,3.3411,3.4275,3.5869,3.5869,3.6752,3.8202,3.8202,0.0,3.8202,3.8202,3.8202,3.8217,3.8362,3.8876,3.9586,4.0032,4.1,4.2045,0.0,0.0,0.0,0.0,0.0,0.0,0.0,-1.6409,-1.6474,-1.6474,-1.6456,-1.6946,-1.8236,-1.8874,-1.9277,0.0,0.0,0.0,0.0,0.0,0.0,0.0,0.0,0.0,0.0,0.0,0.0,-2.2893,-2.3417,0.0,0.0,0.0,0.0,0.0,0.0,-2.3909,-2.406,-2.453,0.0,0.0,0.0,0.0,0.0,0.0,0.0,0.0,0.0,-1.7622,-1.5241,0.0,0.0,-0.2766,0.3165,0.939,1.4307,1.3983,0.0,0.0,1.7354,1.7604,1.7905,2.0069,2.0448,2.0236,2.016,0.0,2.0445,1.8807,1.9107,1.9678,1.9944,2.0605,2.1439,0.0,2.3073,2.4106,0.0,0.0,0.0,0.0,0.0,0.0,0.0,0.0,0.0,0.0,0.0,0.0,3.3081,3.3081,3.3081,3.3081,3.3081,3.3081,3.3081,3.3081,3.3484,3.4314,3.4314,3.5182,3.6766,3.6766,3.7323,3.8202,3.8202,0.0,0.0,3.8202,3.8202,3.826,3.887,3.9284,3.9689,4.1033,4.1691,4.2104,0.0,0.0,0.0,0.0,0.0,0.0,-1.6328,-1.6713,-1.6977,-1.6918,-1.7633,-1.8408,-1.903,-1.9684,-1.9971,0.0,0.0,0.0,0.0,0.0,0.0,0.0,0.0,0.0,0.0,0.0,-2.2838,-2.308,-2.3533,0.0,0.0,0.0,0.0,0.0,0.0,-2.4304,-2.4705,-2.5015,0.0,0.0,0.0,0.0,0.0,0.0,0.0,0.0,0.0,0.0,-1.7339,0.0,0.0,0.0,-0.3587,0.1964,0.0,0.0,1.3549,1.5021,1.6779,1.7282,1.7815,1.987,1.9909,1.9564,2.0005,0.0,2.0137,1.8873,1.9156,1.9674,2.0079,2.0489,2.0995,2.148,2.2642,2.3759,2.4409,0.0,0.0,0.0,0.0,0.0,0.0,0.0,0.0,0.0,0.0,0.0,3.3081,3.3081,3.3081,3.3081,3.3081,3.3081,3.3081,3.3081,3.324,3.3654,3.4147,3.5019,3.6122,3.6688,3.7414,3.8202,3.8202,0.0,0.0,3.8202,3.8202,3.8275,3.8942,3.9499,3.9998,4.114,4.1871,4.2495,0.0,0.0,0.0,0.0,0.0,-1.6626,-1.6721,-1.7301,-1.7678,-1.7632,-1.8501,-1.9248,-1.9547,-1.9952,-2.0175,-2.0065,0.0,0.0,0.0,0.0,0.0,0.0,0.0,0.0,0.0,0.0,-2.3021,-2.3031,-2.3465,-2.3739,0.0,0.0,-2.3585,-2.3877,0.0,0.0,0.0,0.0,0.0,0.0,0.0,0.0,0.0,0.0,0.0,0.0,0.0,0.0,0.0,0.0,0.0,0.0,-0.9143,-0.4555,0.1643,0.0,1.1774,1.4001,1.5979,1.6899,1.7785,1.9687,1.96,1.9245,0.0,0.0,1.9934,1.8882,1.9142,1.9636,2.0029,2.0333,2.0722,2.0954,2.2267,2.334,2.3625,0.0,0.0,0.0,0.0,0.0,0.0,0.0,0.0,0.0,0.0,0.0,3.3081,3.3081,3.3081,3.3081,3.3081,3.3081,3.3081,3.3326,3.3569,3.3882,3.4454,3.5332,3.6346,3.6766,3.7414,3.8202,3.8202,0.0,0.0,3.8202,3.8202,3.8289,3.9131,3.9726,4.0284,4.1368,4.221,4.2769,0.0,0.0,0.0,0.0,0.0,0.0,0.0,-1.8237,-1.8605,-1.8679,-1.8708,-1.8993,-1.972,-1.9625,-1.9713,-2.0162,0.0,0.0,0.0,0.0,0.0,0.0,0.0,0.0,0.0,0.0,-2.275,-2.2622,-2.3081,-2.3319,-2.3319,-2.3172,-2.3023,-2.2867,0.0,0.0,0.0,0.0,0.0,0.0,0.0,0.0,0.0,0.0,0.0,0.0,0.0,0.0,0.0,0.0,0.0,0.0,0.0,-0.9395,-0.4339,0.4255,0.9021,1.2193,1.4996,1.6529,1.7785,1.9687,1.96,1.9321,0.0,0.0,1.9767,1.8871,1.9026,1.939,1.9557,2.0177,2.0722,2.1128,2.2035,2.3048,2.3928,0.0,0.0,0.0,0.0,0.0,0.0,0.0,0.0,0.0,0.0,0.0,3.3081,3.3081,3.3081,3.3081,3.3081,3.3081,3.3081,3.3992,3.4786,3.5534,3.5615,3.6503,3.8113,3.7246,3.7414,3.8202,0.0,0.0,0.0,3.8202,3.8202,3.8333,3.9596,4.0089,4.0328,4.2041,4.2688,4.2769,0.0,0.0,0.0,0.0,0.0,0.0,0.0,-1.8963,-1.9374,-1.942,-1.9799,-2.0209,-2.0511,-2.0413,-2.0426,-2.0681,0.0,0.0,0.0,0.0,0.0,0.0,0.0,0.0,0.0,0.0,-2.3111,-2.3096,-2.3143,-2.3201,-2.3319,-2.3083,-2.2999,-2.3098,-2.3409,-2.3681,0.0,0.0,0.0,0.0,0.0,0.0,0.0,0.0,0.0,0.0,0.0,0.0,0.0,0.0,0.0,0.0,0.0,0.0,0.0,-0.0396,0.5444,0.0,1.3485,1.5404,1.6698,1.7959,1.7863,1.7702,1.891,1.8786,1.8478,1.8297,1.887,1.9381,1.9557,2.0342,2.1118,2.1502,2.2327,2.3036,0.0,0.0,0.0,0.0,0.0,0.0,0.0,0.0,0.0,0.0,0.0,0.0,3.3081,3.3081,3.3081,3.3081,3.3654,3.3992,3.3992,3.4772,3.5305,3.5615,3.6188,3.6766,3.7323,3.7644,3.7962,0.0,0.0,0.0,3.8202,3.8202,3.8463,3.8971,3.9969,4.0631,4.1098,4.2137,4.2541,4.2688,0.0,0.0,0.0,0.0,0.0,0.0,0.0,-1.9578,-2.0017,-2.0049,-2.0377,-2.0677,-2.0745,-2.0628,-2.067,-2.1057,0.0,0.0,0.0,0.0,0.0,0.0,0.0,0.0,0.0,-2.3199,-2.3451,-2.3319,-2.3157,-2.3157,-2.3275,-2.2979,-2.2893,-2.3041,-2.3208,-2.3409,0.0,0.0,0.0,0.0,0.0,0.0,-2.3819,0.0,0.0,0.0,0.0,0.0,0.0,0.0,0.0,0.0,0.0,0.0,0.0,0.0,0.2493,0.8478,1.2278,1.4719,1.6319,1.7286,1.7202,0.0,0.0,1.8319,1.8083,1.8241,1.8822,1.939,1.9863,2.0576,2.1272,2.1949,2.2478,0.0,0.0,0.0,0.0,0.0,0.0,0.0,0.0,0.0,0.0,0.0,0.0,0.0,3.3081,3.3081,3.3081,3.3081,3.3992,3.4397,3.4397,3.548,3.6108,3.6108,3.7,3.7414,3.7414,3.7962,3.8202,0.0,0.0,3.8202,0.0,3.8202,3.8609,3.9262,4.0149,4.0856,4.147,4.2291,4.2688,4.2835,0.0,0.0,0.0,0.0,0.0,0.0,0.0,0.0,-2.0494,-2.0494,-2.0494,-2.0494,-2.0494,-2.0404,-2.0628,-2.1312,0.0,0.0,0.0,0.0,0.0,0.0,0.0,0.0,0.0,-2.3581,-2.3581,-2.3275,-2.3142,-2.3127,-2.3231,-2.2844,-2.2692,-2.2778,-2.3121,-2.3312,0.0,0.0,0.0,0.0,0.0,0.0,0.0,0.0,0.0,0.0,0.0,0.0,0.0,0.0,0.0,0.0,0.0,0.0,0.0,0.0,0.0,0.0,0.0,1.437,1.6424,1.7299,0.0,0.0,0.0,1.8417,0.0,1.8567,1.8807,1.9274,2.0401,2.076,2.1211,2.2241,2.2596,0.0,0.0,0.0,0.0,0.0,0.0,0.0,0.0,0.0,0.0,0.0,0.0,0.0,3.3081,3.3167,3.3154,3.3154,3.4063,3.4551,3.4481,3.6136,3.7014,3.7014,3.781,3.8202,3.8202,3.8202,3.8202,0.0,3.8202,3.8202,3.8202,3.826,3.8667,3.9412,4.0208,4.0915,4.1609,4.2598,4.2981,4.2996,0.0,0.0,0.0,0.0,0.0,0.0,0.0,0.0,0.0,0.0,-2.0392,-2.0373,-2.0423,-2.0731,-2.1013,0.0,0.0,0.0,0.0,0.0,0.0,0.0,0.0,0.0,0.0,-2.3216,-2.3127,-2.3171,-2.2962,-2.2812,-2.2737,-2.2463,-2.2278,-2.224,-2.2903,-2.3607,0.0,0.0,0.0,0.0,0.0,0.0,0.0,0.0,0.0,0.0,-2.1031,-2.0064,0.0,0.0,0.0,0.0,0.0,0.0,0.0,0.0,0.1717,0.7017,1.072,0.0,1.529,1.5716,1.6146,1.658,0.0,0.0,0.0,0.0,0.0,1.9099,2.011,2.0741,2.1383,2.2489,0.0,0.0,0.0,0.0,0.0,0.0,0.0,0.0,0.0,0.0,0.0,0.0,0.0,3.3081,3.3081,3.3738,3.4063,3.4063,3.5507,3.5963,3.5305,3.7,3.7886,3.7886,3.8127,3.8202,3.8202,3.8202,3.8202,3.8202,3.8202,3.8277,3.8485,3.883,3.9412,4.0193,4.1087,4.1813,4.2467,4.2856,4.2981,4.2996,0.0,0.0,0.0,0.0,0.0,0.0,0.0,0.0,0.0,0.0,0.0,0.0,0.0,0.0,0.0,0.0,0.0,0.0,0.0,0.0,0.0,0.0,0.0,-2.3216,-2.3216,-2.2934,-2.2814,-2.2797,-2.2629,-2.2537,-2.2509,-2.2184,-2.1996,-2.2052,-2.2671,-2.3406,0.0,0.0,0.0,0.0,-2.2957,0.0,0.0,0.0,0.0,0.0,-1.9238,-1.7883,0.0,-1.5656,-1.5568,-1.533,0.0,0.0,0.0,0.0,0.2803,0.7759,1.0947,1.3302,1.4976,1.5347,1.6018,1.6627,1.6816,0.0,0.0,0.0,0.0,1.9155,2.0254,2.1548,0.0,0.0,0.0,0.0,0.0,0.0,0.0,0.0,0.0,0.0,0.0,0.0,0.0,0.0,0.0,3.3738,3.3738,3.4454,3.4924,3.4924,3.6215,3.6688,3.6201,3.7553,3.8202,3.8202,3.8202,3.8202,3.8202,3.8202,3.8202,3.8202,3.8202,3.8277,3.841,3.9004,3.9722,4.052,4.1401,4.2193,4.2835,4.3076,4.3155,4.3155,0.0,0.0,0.0,0.0,0.0,0.0,0.0,0.0,0.0,0.0,0.0,0.0,0.0,0.0,0.0,0.0,0.0,0.0,0.0,0.0,0.0,0.0,0.0,-2.3083,-2.2859,-2.2663,-2.2523,-2.2465,-2.2325,-2.2367,-2.2513,-2.2034,-2.1939,-2.2125,-2.2575,-2.308,0.0,0.0,0.0,0.0,-2.28,0.0,0.0,0.0,0.0,0.0,0.0,0.0,0.0,-1.1512,-1.1749,-1.2387,-0.942,0.0,0.0,0.0,0.0,0.0,1.163,1.3747,1.5307,1.5708,1.6446,1.7106,1.7398,0.0,0.0,0.0,0.0,0.0,0.0,2.2408,0.0,0.0,0.0,0.0,0.0,0.0,0.0,0.0,0.0,0.0,0.0,0.0,0.0,0.0,0.0,3.4397,3.4397,3.5332,3.5789,3.5789,3.6596,3.7092,3.7092,3.781,3.8202,3.8202,3.8202,3.8202,3.8202,3.8202,3.8202,3.8202,0.0,0.0,3.826,3.903,3.9824,4.0627,4.1504,4.2361,4.2996,4.325,4.3329,4.3329,0.0,0.0,0.0,0.0,0.0,0.0,0.0,0.0,0.0,0.0,0.0,0.0,0.0,0.0,0.0,0.0,0.0,0.0,0.0,0.0,0.0,0.0,-2.2723,-2.2555,-2.2646,-2.231,-2.2342,-2.2804,-2.2706,-2.2757,-2.2954,-2.2349,-2.2199,-2.2525,-2.2957,-2.342,-2.3807,-2.3352,-2.2957,-2.2751,-2.263,0.0,0.0,0.0,0.0,0.0,0.0,0.0,0.0,-0.7522,-0.5253,-0.3397,-0.2508,0.0,0.0,0.0,0.0,0.0,1.2318,1.4595,1.6446,1.6136,1.6884,1.7628,1.732,0.0,0.0,0.0,0.0,0.0,0.0,0.0,0.0,0.0,0.0,0.0,0.0,0.0,0.0,0.0,0.0,0.0,0.0,0.0,0.0,0.0,0.0,3.4397,3.4397,3.5896,3.6688,3.6688,3.7567,3.7962,3.7962,3.8127,3.8202,3.8202,3.8202,3.8202,3.8202,3.8202,3.8202,3.8202,0.0,3.8277,3.8529,3.9557,4.0266,4.089,4.2084,4.2746,4.2996,4.325,4.3329,4.3329,0.0,0.0,0.0,0.0,0.0,0.0,0.0,0.0,0.0,0.0,0.0,0.0,0.0,0.0,0.0,0.0,0.0,0.0,0.0,0.0,0.0,-2.2388,-2.1983,-2.1949,-2.237,-2.1841,-2.182,-2.2383,-2.2282,-2.2425,-2.2778,-2.2445,-2.2431,-2.2678,-2.2755,-2.3019,-2.3343,-2.2848,-2.2543,-2.2333,0.0,0.0,0.0,0.0,0.0,0.0,0.0,0.0,0.0,0.0,-0.0776,0.1062,0.1108,0.0,0.0,0.0,0.0,0.0,1.2498,1.4401,1.6121,1.6968,1.8502,1.9972,2.0053,2.0613,0.0,0.0,0.0,0.0,0.0,0.0,0.0,0.0,0.0,0.0,0.0,0.0,0.0,0.0,0.0,0.0,0.0,0.0,0.0,0.0,0.0,0.0,3.5087,3.6688,3.7567,3.7567,3.7962,3.8202,3.8202,3.8202,3.8202,3.8202,3.8202,3.8202,3.8202,3.8202,3.8202,3.8202,0.0,3.8277,3.8618,3.9843,4.0539,4.1059,4.2332,4.2996,4.3155,4.325,4.3329,4.3329,0.0,0.0,0.0,0.0,0.0,0.0,0.0,0.0,0.0,0.0,0.0,0.0,0.0,0.0,0.0,0.0,0.0,0.0,0.0,0.0,-2.1888,-2.1793,-2.1423,-2.1471,-2.2044,-2.141,-2.1379,-2.2008,-2.1956,-2.2141,-2.2502,-2.2646,-2.2644,-2.2515,-2.2609,-2.2677,-2.2726,-2.2309,-2.2123,-2.2121,0.0,0.0,0.0,0.0,0.0,0.0,0.0,0.0,0.0,0.0,0.0,0.0,0.0,0.0,0.0,0.8313,0.9864,1.1695,1.2686,1.4193,1.5878,1.7499,1.9195,2.0899,2.2361,2.2956,0.0,0.0,0.0,0.0,0.0,0.0,0.0,0.0,0.0,0.0,0.0,0.0,0.0,0.0,0.0,0.0,0.0,0.0,0.0,0.0,0.0,0.0,3.5869,3.7386,3.8202,3.8202,3.8202,3.8202,3.8202,3.8202,3.8202,3.8202,3.8202,3.8202,3.8202,3.8202,3.8202,3.8202,3.8277,3.8366,3.8603,3.985,4.0654,4.1213,4.2327,4.2942,4.3329,4.3329,4.3329,4.3329,0.0,0.0,0.0,0.0,0.0,0.0,0.0,0.0,0.0,0.0,0.0,0.0,0.0,0.0,0.0,0.0,0.0,0.0,0.0,0.0,-2.152,-2.1277,-2.1229,-2.1326,-2.1664,-2.1104,-2.1312,-2.2255,-2.2174,-2.224,-2.2534,-2.3081,-2.2892,-2.2076,-2.2611,-2.2689,-2.242,-2.2049,-2.1937,-2.1957,-2.2136,0.0,0.0,0.0,0.0,0.0,0.0,0.0,0.0,0.0,0.0,0.0,0.0,0.0,0.938,0.9625,1.1088,1.2645,1.3051,1.4676,1.6431,1.7206,1.7322,1.8257,2.2004,2.1711,0.0,2.3559,0.0,0.0,0.0,0.0,0.0,0.0,0.0,0.0,0.0,0.0,0.0,0.0,0.0,0.0,0.0,0.0,0.0,0.0,0.0,0.0,3.6766,3.772,3.8202,3.8202,3.8202,3.8202,3.8202,3.8202,3.8202,3.8202,3.8202,3.8202,3.8202,3.8202,3.8202,3.8202,3.8366,3.8516,3.8574,3.9503,4.0303,4.1169,4.1822,4.254,4.3329,4.3329,4.3329,4.3329,0.0,0.0,0.0,0.0,0.0,0.0,0.0,0.0,0.0,0.0,0.0,0.0,0.0,0.0,0.0,0.0,0.0,0.0,0.0,0.0,-2.1158,-2.118,-2.0947,-2.0835,-2.0957,-2.0759,-2.1095,-2.195,-2.2414,-2.2669,-2.2777,-2.2784,-2.2457,-2.1958,-2.193,-2.1901,-2.1776,-2.1411,-2.147,-2.1697,-2.1766,-2.1642,0.0,0.0,0.0,0.0,0.0,0.0,0.0,0.0,0.3718,0.6617,0.5696,0.6986,0.8908,0.9589,1.1071,1.2513,1.2928,1.4697,1.6579,1.7052,1.7468,1.8873,2.3195,2.4236,2.4157,2.4223,2.5066,0.0,0.0,0.0,0.0,0.0,0.0,0.0,0.0,0.0,0.0,0.0,0.0,0.0,0.0,0.0,0.0,0.0,0.0,0.0,3.6844,3.772,3.8202,3.8202,3.8202,3.8202,3.8202,3.8202,3.8202,3.8202,3.8202,3.8202,3.8202,3.8202,3.8202,3.8202,3.8277,3.8427,3.8767,3.9519,4.041,4.1413,4.238,4.3026,4.3329,4.3329,4.3329,4.3329,0.0,0.0,0.0,0.0,0.0,0.0,0.0,0.0,0.0,0.0,0.0,0.0,0.0,0.0,0.0,0.0,0.0,0.0,-2.1312,-2.131,-2.1365,-2.1376,-2.1095,-2.0875,-2.0745,-2.0745,-2.097,-2.1562,-2.2374,-2.2665,-2.2604,-2.2261,-2.2002,-2.1765,-2.1388,-2.121,-2.1146,-2.0933,-2.1006,-2.1241,-2.1307,-2.1248,0.0,0.0,0.0,0.0,0.0,0.0,0.0,0.0,0.3409,0.6146,0.56,0.6815,0.8751,0.9607,1.1444,1.3244,1.4,1.5332,1.6886,1.8357,1.8583,1.9639,2.4336,2.5489,2.5557,2.5941,2.6743,2.7158,2.6261,0.0,0.0,0.0,0.0,0.0,0.0,0.0,0.0,0.0,0.0,0.0,0.0,0.0,0.0,0.0,0.0,0.0,0.0,3.7886,3.8202,3.8202,3.8202,3.8202,3.8202,3.8202,3.8202,3.8202,3.8202,3.8202,3.8202,3.8202,3.8202,3.8277,3.8352,3.8575,3.89,3.9447,4.0382,4.1489,4.2596,4.315,4.3329,4.3329,4.3329,4.3329,0.0,0.0,0.0,0.0,0.0,0.0,0.0,0.0,0.0,0.0,0.0,0.0,0.0,0.0,0.0,0.0,0.0,0.0,-2.1511,-2.1981,-2.2089,-2.169,-2.1827,-2.1605,-2.1031,-2.0986,-2.1031,-2.12,-2.2005,-2.2235,-2.1862,-2.1702,-2.1502,-2.1388,-2.1031,-2.0786,-2.0604,-2.0775,-2.0704,-2.0518,-2.0865,-2.0872,-2.0477,0.0,0.0,0.0,0.0,0.0,0.0,0.0,0.4202,0.6357,0.6223,0.7465,0.9055,0.9867,1.238,1.5145,1.6607,1.6818,1.7544,2.1251,0.0,0.0,2.5182,2.4786,2.4562,2.8919,2.8932,2.8218,2.8218,0.0,0.0,0.0,0.0,0.0,0.0,0.0,0.0,0.0,0.0,0.0,0.0,0.0,0.0,0.0,0.0,0.0,0.0,3.8202,3.8202,3.8202,3.8202,3.8202,3.8202,3.8202,3.8202,3.8202,3.8202,3.8202,3.8202,3.8202,3.8277,3.8516,3.8723,3.8943,3.9104,3.9352,4.0202,4.1444,4.2102,4.2761,4.3329,4.3329,4.3329,4.3329,0.0,0.0,0.0,0.0,0.0,0.0,0.0,0.0,0.0,0.0,0.0,0.0,0.0,0.0,0.0,0.0,0.0,0.0,-2.1485,-2.1404,-2.146,-2.1814,-2.1771,-2.1468,-2.0791,-2.0747,-2.0831,-2.1139,-2.1507,-2.1577,-2.1336,-2.1396,-2.1243,-2.0862,-2.1252,-2.124,-2.0953,-2.095,-2.0917,-2.0855,-2.0853,-2.0407,-1.9682,0.0,0.0,0.0,0.0,0.0,0.0,0.0,0.0,0.0,0.6847,0.7943,0.9404,1.0515,1.2048,1.3452,1.4289,1.6783,0.0,1.9619,0.0,0.0,0.0,2.5941,0.0,0.0,2.8753,2.792,2.8385,0.0,0.0,0.0,0.0,0.0,0.0,0.0,0.0,0.0,0.0,0.0,0.0,0.0,0.0,0.0,0.0,0.0,0.0,3.8202,3.8202,3.8202,3.8202,3.8202,3.8202,3.8202,3.8202,3.8202,3.8202,3.8202,3.8202,3.8366,3.8441,3.8516,3.8723,3.8943,3.9134,3.9845,4.0606,4.1444,4.2102,4.2761,4.3329,4.3329,4.3329,4.3329,0.0,0.0,0.0,0.0,0.0,0.0,0.0,0.0,0.0,0.0,-2.0416,0.0,0.0,0.0,0.0,0.0,0.0,0.0,0.0,-2.1642,-2.1848,-2.2363,-2.2261,-2.1774,-2.0878,-2.065,-2.0574,-2.0637,-2.0923,-2.0996,-2.0967,-2.0818,-2.071,-2.0556,-2.082,-2.0829,-2.0557,-2.0442,-2.0343,-2.0297,-2.0088,-1.9437,-1.865,0.0,0.0,0.0,0.0,0.0,0.0,0.0,0.0,0.0,0.7612,0.8693,1.0053,1.1806,1.3003,1.438,1.6942,1.9203,0.0,2.2671,2.4484,2.6165,2.738,0.0,0.0,0.0,0.0,2.926,2.9671,0.0,0.0,0.0,0.0,0.0,0.0,0.0,0.0,0.0,0.0,0.0,0.0,0.0,0.0,0.0,0.0,0.0,0.0,3.8202,3.8202,3.8202,3.8202,3.8202,3.8202,3.8202,3.8202,3.8202,3.8277,3.8277,3.8277,3.8441,3.859,3.8738,3.8958,3.9104,3.9294,3.977,4.0397,4.1055,4.1713,4.2372,4.297,4.324,4.3329,4.3329,0.0,0.0,0.0,0.0,0.0,0.0,0.0,0.0,0.0,0.0,-2.0328,-2.0425,0.0,0.0,0.0,0.0,0.0,0.0,0.0,0.0,-2.2743,-2.304,-2.2836,-2.2211,-2.1135,-2.0582,-2.0205,-1.9868,-2.0355,-2.0549,-2.0529,-2.014,-2.0114,-2.0432,-2.0239,-2.001,-1.9803,-1.9626,-1.944,-1.9268,-1.8752,-1.8095,-1.7481,-1.7191,0.0,0.0,0.0,0.0,0.0,0.0,0.0,0.0,0.8695,0.9556,1.0886,1.3313,1.4765,1.6855,2.2033,2.2661,0.0,2.8224,2.8041,0.0,2.9309,2.9792,2.9792,2.9792,0.0,0.0,0.0,0.0,0.0,0.0,0.0,0.0,0.0,0.0,0.0,0.0,0.0,0.0,0.0,0.0,0.0,0.0,0.0,0.0,3.8202,3.8202,3.8202,3.8202,3.8202,3.8202,3.8202,3.8202,3.8202,3.8202,3.8441,3.8516,3.8516,3.8516,3.8738,3.9104,3.9337,3.9424,3.9424,3.9424,3.9813,4.0472,4.113,4.1788,4.2432,4.309,4.3329,4.3329,0.0,0.0,0.0,0.0,0.0,0.0,0.0,0.0,0.0,0.0,0.0,0.0,0.0,0.0,0.0,0.0,0.0,0.0,0.0,0.0,-2.1645,-2.2665,-2.1839,-2.121,-2.0955,-2.0324,-1.9933,-1.9868,-2.0107,-2.0031,-1.9594,-2.036,-2.0504,-2.0154,-2.0886,-2.0761,-1.9999,-1.9899,-1.9556,-1.8955,-1.7963,-1.7089,-1.6169,-1.4219,-1.1727,0.0,0.0,0.0,0.0,0.0,0.0,0.0,1.0074,1.0801,1.1438,1.2789,1.4698,1.6876,1.8658,2.192,0.0,0.0,2.8053,2.9158,2.9651,2.9792,2.9792,0.0,0.0,0.0,0.0,0.0,0.0,0.0,0.0,0.0,0.0,0.0,0.0,0.0,0.0,0.0,0.0,0.0,0.0,0.0,0.0,0.0,3.8202,3.8202,3.8202,3.8202,3.8202,3.8202,3.8202,3.8202,3.8277,3.8441,3.8441,3.8664,3.8958,3.8958,3.9104,3.9337,3.9352,3.9424,3.9424,3.9424,3.9813,4.0472,4.113,4.1788,4.2432,4.309,4.3329,4.3329,0.0,0.0,0.0,0.0,0.0,0.0,0.0,0.0,0.0,0.0,0.0,0.0,0.0,0.0,0.0,0.0,0.0,0.0,0.0,0.0,-2.1231,-2.1966,-2.1273,-2.0775,-2.0453,-1.9868,-1.9589,-1.9542,-1.9588,-1.9578,-1.9521,-2.004,-2.0073,-1.9785,-2.0092,-1.9918,-1.9214,-1.8905,-1.8344,-1.7705,-1.7311,-1.5711,-1.3623,-1.3521,-1.0329,-0.5242,-0.0272,0.0,0.0,0.0,0.0,0.0,0.0,0.0,1.2559,1.391,1.5146,1.6685,1.9895,0.0,0.0,2.742,0.0,2.9792,2.9792,2.9792,0.0,0.0,0.0,0.0,0.0,0.0,0.0,0.0,0.0,0.0,0.0,0.0,0.0,0.0,0.0,0.0,0.0,0.0,0.0,0.0,0.0,3.8202,3.8202,3.8202,3.8202,3.8202,3.8202,3.8202,3.8202,3.8277,3.8366,3.8516,3.8664,3.8958,3.9265,3.9265,3.9265,3.9424,3.9424,3.9424,3.9424,3.9424,3.9619,4.0023,4.0995,4.1594,4.2013,4.297,4.3329,4.3329,0.0,0.0,0.0,0.0,0.0,0.0,0.0,0.0,0.0,0.0,0.0,0.0,0.0,0.0,0.0,0.0,0.0,0.0,0.0,0.0,0.0,-2.1101,-2.0764,-2.0313,-1.9736,-1.9341,-1.9168,-1.9223,-1.9143,-1.9274,-1.9545,-1.9436,-1.9348,-1.9212,-1.8828,-1.846,-1.8044,-1.7446,-1.6923,-1.6566,-1.6425,-1.4268,-1.1478,-1.2962,-0.9169,-0.2346,0.3177,0.4561,0.4159,0.6651,0.0,0.0,0.0,0.0,1.3704,1.5442,1.5968,1.7081,2.2098,0.0,2.486,2.8793,2.9856,0.0,2.9869,2.9934,0.0,0.0,0.0,0.0,0.0,0.0,0.0,0.0,0.0,0.0,0.0,0.0,0.0,0.0,0.0,0.0,0.0,0.0,0.0,0.0,0.0,3.8202,3.8202,3.8202,3.8202,3.8202,3.8202,3.8202,3.8277,3.8441,3.8516,3.859,3.8958,3.9265,3.9424,3.9424,3.9424,3.9424,3.9424,3.9424,3.9424,3.9424,3.9424,3.9544,4.0876,4.1384,4.1534,4.2851,4.3329,4.3329,0.0,0.0,0.0,0.0,0.0,0.0,0.0,0.0,0.0,0.0,0.0,0.0,0.0,0.0,0.0,0.0,0.0,0.0,0.0,0.0,0.0,-2.0118,-1.9594,-1.9198,-1.8942,-1.8751,-1.8771,-1.9223,-1.9014,-1.8924,-1.9042,-1.9023,-1.8699,-1.8139,-1.7942,-1.7654,-1.7327,-1.6352,-1.6462,-1.709,-1.4532,-1.3327,-1.2648,-0.9639,-0.5573,-0.1151,0.1264,0.3959,0.6615,0.8325,0.9501,0.0,0.0,0.0,1.4425,1.566,1.7479,1.9527,0.0,0.0,2.7421,0.0,3.0279,3.062,0.0,0.0,0.0,0.0,0.0,0.0,0.0,0.0,0.0,0.0,0.0,0.0,0.0,0.0,0.0,0.0,0.0,0.0,0.0,0.0,0.0,0.0,3.8202,3.8202,3.8202,3.8202,3.8202,3.8202,3.8202,3.8277,3.8441,3.8516,3.8664,3.9031,3.9265,3.9337,3.9424,3.9424,3.9424,3.9424,3.9424,3.9424,3.9424,3.9424,3.9424,3.9544,4.0876,4.1384,4.1534,4.2851,4.3329,4.3254,0.0,0.0,0.0,0.0,0.0,0.0,0.0,0.0,0.0,0.0,0.0,0.0,0.0,0.0,0.0,0.0,0.0,0.0,0.0,0.0,0.0,-1.9988,-1.9515,-1.9175,-1.8833,-1.8864,-1.8799,-1.8543,-1.8527,-1.8154,0.0,-1.7301,-1.74,-1.7416,-1.686,-1.6051,-1.5223,-1.5253,-1.4379,-1.2992,-1.2692,-1.037,-0.7085,-0.7029,-0.3232,0.2213,0.3461,0.536,0.7464,0.8994,1.0111,1.1271,1.3136,0.0,0.0,0.0,1.7102,1.8937,2.174,2.4921,2.7838,0.0,3.0343,3.082,3.0482,0.0,0.0,0.0,0.0,0.0,0.0,0.0,0.0,0.0,0.0,0.0,0.0,0.0,0.0,0.0,0.0,0.0,0.0,0.0,0.0,0.0,3.8202,3.8202,3.8202,3.8202,3.8202,3.8202,3.8277,3.8441,3.8516,3.8738,3.8958,3.9265,3.9337,3.9424,3.9424,3.9424,3.9424,3.9424,3.9424,3.9424,3.9424,3.9424,3.9424,3.9544,4.0876,4.1384,4.1534,4.2851,4.3105,4.2746,0.0,0.0,0.0,0.0,0.0,0.0,0.0,0.0,0.0,0.0,0.0,0.0,0.0,0.0,0.0,0.0,0.0,0.0,0.0,0.0,0.0,-1.9748,-1.9444,-1.9082,-1.887,-1.8812,-1.8563,-1.807,-1.7758,0.0,-1.5928,-1.5524,-1.5634,0.0,-1.5244,-1.441,-1.3653,-1.3805,-1.2417,-1.0127,-1.0486,-0.7521,-0.2831,-0.4042,-0.0548,0.5053,0.5771,0.0,0.0,0.0,0.0,0.0,1.3737,1.4722,0.0,0.0,0.0,0.0,0.0,0.0,2.6552,2.8872,2.9986,3.0639,0.0,0.0,0.0,0.0,0.0,0.0,0.0,0.0,0.0,0.0,0.0,0.0,0.0,0.0,0.0,0.0,0.0,0.0,0.0,0.0,0.0,0.0,3.8202,3.8202,3.8202,3.8202,3.8202,3.8277,3.8441,3.8516,3.8664,3.9031,3.9265,3.9424,3.9424,3.9424,3.9424,3.9424,3.9424,3.9424,3.9424,3.9424,3.9424,3.9424,3.9424,3.9544,4.0876,4.1384,4.1519,4.2671,4.2776,4.2312,0.0,0.0,0.0,0.0,0.0,0.0,0.0,0.0,0.0,0.0,0.0,0.0,0.0,-2.0585,-2.0858,-2.0858,-2.0398,-2.0009,-1.9628,-1.9322,-1.9163,-1.9123,-1.8899,0.0,-1.8692,-1.8091,-1.7956,-1.8249,0.0,0.0,-1.5674,-1.4051,-1.3288,-1.326,-1.2738,-1.3009,-1.3665,0.0,0.0,0.0,0.0,-0.5377,0.0,0.0,0.0,0.0,0.0,0.0,0.0,0.0,0.0,0.0,0.0,0.0,0.0,0.0,0.0,0.0,0.0,2.2226,0.0,2.7488,2.8985,0.0,0.0,0.0,0.0,0.0,0.0,0.0,0.0,0.0,0.0,0.0,0.0,0.0,0.0,0.0,0.0,0.0,0.0,0.0,0.0,0.0,0.0,0.0,3.8202,3.8202,3.8202,3.8202,3.8277,3.8441,3.8516,3.8664,3.9104,3.9265,3.9424,3.9424,3.9424,3.9424,3.9424,3.9424,3.9424,3.9424,3.9424,3.9424,3.9424,3.9424,3.9424,3.9544,4.0876,4.1384,4.1474,4.2162,4.2387,4.2177,0.0,0.0,0.0,0.0,0.0,0.0,0.0,0.0,0.0,0.0,0.0,0.0,0.0,-1.9955,-1.9987,-1.9868,-1.9802,-1.9722,-1.9489,-1.9241,-1.9113,-1.9053,-1.8658,-1.83,-1.7952,-1.7665,-1.6888,-1.5571,-1.5146,-1.4061,-1.2407,-1.2249,-1.1695,-1.0731,-1.1718,-1.1734,-1.1042,-0.9849,0.0,0.0,0.0,0.0,0.0,0.0,0.0,0.0,0.0,0.0,0.0,0.0,0.0,0.0,0.0,0.0,0.0,0.0,0.0,0.0,0.0,0.0,0.0,2.5549,2.7973,2.9843,0.0,0.0,0.0,0.0,0.0,0.0,0.0,0.0,0.0,0.0,0.0,0.0,0.0,0.0,0.0,0.0,0.0,0.0,0.0,0.0,0.0,0.0,3.8202,3.8202,3.8202,3.8202,3.8277,3.8516,3.8649,3.8885,3.9265,3.9337,3.9424,3.9424,3.9424,3.9424,3.9424,3.9424,3.9424,3.9424,3.9424,3.9424,3.9424,3.9424,3.9424,3.9514,4.0397,4.101,4.1414,4.1654,4.1728,4.1609,0.0,0.0,0.0,0.0,0.0,0.0,0.0,0.0,0.0,0.0,0.0,0.0,0.0,0.0,-1.9504,-1.91,-1.9303,-1.9359,-1.9024,-1.9029,-1.8971,-1.889,-1.8139,-1.7596,-1.7252,-1.642,-1.5308,-1.3865,-1.3304,-1.2134,-1.0371,-1.0593,-1.0085,-0.908,-0.984,-1.0014,0.0,0.0,0.0,-0.3189,0.0,0.0,0.5153,0.0,0.0,0.0,0.0,0.0,0.0,0.0,0.0,0.0,0.0,0.0,0.0,0.0,0.0,0.0,2.0604,0.0,0.0,0.0,0.0,2.8263,0.0,0.0,0.0,0.0,0.0,0.0,0.0,0.0,0.0,0.0,0.0,0.0,0.0,0.0,0.0,0.0,0.0,0.0,0.0,0.0,0.0,3.8202,3.8202,0.0,3.8202,3.8277,3.8441,3.8664,3.8885,3.9104,3.9424,3.9424,3.9424,3.9424,3.9424,3.9424,3.9424,3.9424,3.9424,3.9424,3.9424,3.9424,3.9424,3.9424,3.9424,3.9484,4.0142,4.0801,4.1354,4.113,4.119,4.128,0.0,0.0,0.0,0.0,0.0,0.0,0.0,0.0,0.0,-1.9152,0.0,0.0,0.0,0.0,0.0,-1.8652,-1.8953,-1.8943,-1.8289,-1.8611,-1.8755,-1.8534,-1.7313,-1.6609,-1.6593,-1.4393,-1.3206,-1.3121,-1.0935,-0.9831,-0.9749,-0.8987,-0.8444,-0.8041,-0.6895,-0.7648,-0.9552,0.0,-0.3789,-0.2266,0.0,0.4127,0.5227,0.0,0.0,0.0,1.3712,1.5056,0.0,1.8735,0.0,0.0,0.0,0.0,0.0,0.0,0.0,0.0,0.0,0.0,0.0,0.0,0.0,0.0,0.0,0.0,0.0,0.0,0.0,0.0,0.0,0.0,0.0,0.0,0.0,0.0,0.0,0.0,0.0,0.0,0.0,0.0,0.0,0.0,0.0,3.8202,3.8202,3.8202,3.8202,3.8441,3.8664,3.9104,3.9265,3.9424,3.9424,3.9424,3.9424,3.9424,3.9424,3.9424,3.9424,3.9424,3.9424,3.9424,3.9424,3.9424,3.9424,3.9424,3.9424,3.9484,4.0127,4.0771,4.1265,4.0606,4.0801,4.128,0.0,0.0,0.0,0.0,0.0,0.0,0.0,-1.8921,-1.89,0.0,0.0,0.0,-1.8591,-1.8508,-1.8585,-1.8812,-1.8575,-1.8248,-1.7841,-1.7604,-1.7094,-1.6142,-1.5234,-1.4469,-1.3838,-1.2355,-1.0904,-0.9511,-0.9113,-0.7811,-0.5866,-0.5994,-0.5165,-0.3413,-0.2677,-0.2315,-0.2231,-0.1574,0.0,0.0,0.494,0.7274,0.0,0.0,0.0,0.0,0.0,1.7058,1.7639,0.0,1.897,1.7673,0.0,0.0,0.0,0.0,0.0,0.0,1.9024,0.0,0.0,0.0,0.0,0.0,0.0,0.0,0.0,0.0,0.0,0.0,0.0,0.0,0.0,0.0,0.0,0.0,0.0,0.0,0.0,0.0,0.0,0.0,0.0,0.0,3.8202,0.0,3.8202,3.8277,3.8441,3.8738,3.8958,3.9104,3.9265,3.9424,3.9424,3.9424,3.9424,3.9424,3.9424,3.9424,3.9424,3.9424,3.9424,3.9424,3.9424,3.9424,3.9424,3.9424,3.9424,3.9439,3.9619,4.0098,4.0591,3.9933,4.0412,4.128,0.0,0.0,0.0,0.0,0.0,0.0,-1.8586,-1.839,-1.8319,0.0,0.0,0.0,-1.7899,-1.7658,-1.7473,-1.7623,-1.7707,-1.7414,-1.6773,-1.6349,-1.569,-1.4554,-1.3297,-1.221,-1.1383,-0.9814,-0.8678,-0.7906,-0.6929,-0.5422,-0.3472,-0.368,-0.2717,-0.0824,0.0,0.0,0.0,0.0,0.0,0.0,0.7095,0.0,0.0,1.2632,1.4796,0.0,0.0,0.0,1.9236,2.1762,2.1176,0.0,0.0,0.0,0.0,0.0,0.0,0.0,0.0,0.0,0.0,0.0,0.0,0.0,2.5204,2.7804,0.0,0.0,0.0,0.0,0.0,0.0,0.0,0.0,0.0,0.0,0.0,0.0,0.0,0.0,0.0,0.0,0.0,3.7521,3.7958,3.7958,3.8281,3.8575,3.8738,3.8958,3.9104,3.9192,3.9337,3.9424,3.9424,3.9424,3.9424,3.9424,3.9424,3.9424,3.9424,3.9424,3.9424,3.9424,3.9424,3.9424,3.9424,3.9424,3.9424,3.9424,3.9424,3.9828,4.0352,3.9963,4.0487,4.1369,0.0,0.0,0.0,-1.8613,-1.8448,-1.8202,-1.8228,-1.799,-1.776,0.0,-1.7743,-1.7676,-1.7223,-1.6815,-1.637,-1.5888,-1.6468,-1.6381,-1.5335,-1.475,-1.4045,-1.3115,-1.1257,-0.9889,-0.9187,-0.7285,-0.6514,-0.7061,-0.4461,-0.2763,-0.1958,-0.1635,-0.0733,0.0825,0.0,0.0,0.0,0.0,0.0,0.6781,0.862,0.9342,0.0,0.0,1.5202,1.5532,1.8608,1.9987,2.0894,2.4324,2.4467,0.0,0.0,0.0,0.0,0.0,1.9966,0.0,0.0,0.0,0.0,0.0,0.0,0.0,2.5935,2.7197,2.8604,0.0,0.0,0.0,0.0,0.0,0.0,0.0,0.0,0.0,0.0,0.0,0.0,0.0,0.0,0.0,3.6199,3.701,3.7462,3.7462,3.8252,3.887,3.9104,3.9104,3.9192,3.9424,3.9424,3.9424,3.9424,3.9424,3.9424,3.9424,3.9424,3.9424,3.9424,3.9424,3.9424,3.9424,3.9424,3.9424,3.9424,3.9424,3.9424,3.9424,3.9424,3.9828,4.0397,4.0397,4.0861,4.1579,0.0,0.0,0.0,-1.811,-1.7834,-1.7595,-1.7602,-1.6931,-1.6598,-1.7106,-1.6716,-1.6532,-1.6603,-1.6149,-1.597,-1.6285,-1.5606,-1.4849,-1.4088,-1.2246,-1.0641,-0.9529,-0.8428,-0.757,-0.7217,-0.6263,-0.5015,-0.3398,-0.1606,-0.0089,0.0983,0.1275,0.2481,0.4236,0.4789,0.0,0.0,0.0,0.0,0.9265,0.9899,0.0,1.2973,1.5602,1.7669,1.9264,2.0811,2.1625,2.2046,2.3161,2.3869,2.4073,0.0,0.0,0.0,0.0,0.0,0.0,0.0,0.0,0.0,0.0,0.0,0.0,2.2498,2.4041,2.5329,0.0,0.0,0.0,0.0,0.0,0.0,0.0,0.0,0.0,0.0,0.0,0.0,0.0,0.0,0.0,3.5546,3.6353,3.6804,3.6804,3.7662,3.8483,3.9075,3.9265,3.9337,3.9424,3.9424,3.9424,3.9424,3.9424,3.9424,3.9424,3.9424,3.9424,3.9424,3.9424,3.9424,3.9424,3.9424,3.9424,3.9424,3.9424,3.9424,3.9424,3.9424,3.9828,4.0397,4.0397,4.1145,4.2192,0.0,0.0,0.0,-1.7362,-1.6928,-1.664,-1.6671,-1.6307,-1.6069,-1.639,-1.5678,-1.4965,-1.4629,-1.4371,-1.4203,-1.4028,-1.3322,-1.2826,-1.2735,-0.9794,-0.7592,-0.6373,-0.5479,-0.4892,-0.4723,-0.4133,-0.2757,-0.0818,0.0459,0.2018,0.391,0.3762,0.4785,0.6712,0.6289,0.6975,0.0,0.0,0.8715,1.0202,1.1332,0.0,1.4815,1.7408,1.909,2.0237,2.2111,2.3655,2.4789,2.5026,2.4691,0.0,0.0,2.3547,2.2613,0.0,2.1935,2.2947,0.0,0.0,0.0,2.1952,0.0,0.0,0.0,2.446,2.5533,2.6469,2.7704,2.8661,0.0,0.0,0.0,0.0,0.0,0.0,0.0,0.0,0.0,0.0,0.0,0.0,3.503,3.5751,3.6457,3.699,3.7753,3.84,3.8728,3.9158,3.9424,3.9424,3.9424,3.9424,3.9424,3.9424,3.9424,3.9424,3.9424,3.9424,3.9424,3.9424,3.9424,3.9424,3.9424,3.9424,3.9424,3.9424,3.9424,3.9424,3.9424,3.9828,4.0442,4.0771,4.1519,4.2402,-1.6538,0.0,0.0,-1.6539,-1.6039,-1.5638,-1.5503,-1.5337,-1.5163,-1.4943,-1.3822,-1.273,-1.2049,0.0,0.0,0.0,-1.012,-1.0053,0.0,0.0,0.0,-0.3816,-0.2726,-0.212,-0.2126,-0.1413,-0.0283,0.12,0.2253,0.384,0.5968,0.571,0.6536,0.8163,0.7437,0.8012,0.0,0.0,0.0,1.1268,0.0,1.4476,1.5648,1.8431,1.9878,2.0683,2.3438,2.5652,2.7151,2.7117,2.5849,2.4447,2.5351,2.4246,0.0,0.0,0.0,0.0,0.0,0.0,0.0,0.0,0.0,2.2339,0.0,0.0,0.0,2.7522,2.8083,0.0,0.0,0.0,0.0,0.0,0.0,0.0,0.0,0.0,0.0,0.0,0.0,3.4394,3.428,3.4986,3.5918,3.7165,3.7599,3.8057,3.8362,3.905,3.9424,3.9424,3.9424,3.9424,3.9424,3.9424,3.9424,3.9424,3.9424,3.9424,3.9424,3.9424,3.9424,3.9424,3.9424,3.9424,3.9424,3.9424,3.9499,3.9604,3.9604,4.0008,4.0666,4.1324,4.1983,4.2704,-1.5537,-1.5872,0.0,0.0,-1.5457,-1.5036,-1.38,-1.3022,-1.2403,-1.1743,-0.9944,0.0,0.0,0.0,0.0,0.0,0.0,0.0,-0.5657,0.0,0.0,-0.2051,-0.0639,0.0277,0.0648,0.151,0.2361,0.3144,0.4451,0.5228,0.5733,0.6479,0.7265,0.8087,0.9038,0.0,0.0,0.0,1.2125,0.0,1.552,1.5806,0.0,1.7628,1.9962,2.264,2.5727,2.701,2.7128,0.0,2.6347,2.5742,0.0,2.4172,2.516,0.0,0.0,0.0,0.0,0.0,0.0,0.0,2.2027,0.0,0.0,0.0,2.2824,2.3118,0.0,2.3622,2.3905,0.0,0.0,0.0,0.0,0.0,0.0,0.0,0.0,0.0,3.3114,3.4178,3.2846,3.3235,3.4352,3.6462,3.6235,3.67,3.8287,3.905,3.9424,3.9424,3.9424,3.9424,3.9424,3.9424,3.9424,3.9424,3.9424,3.9424,3.9424,3.9424,3.9424,3.9424,3.9424,3.9424,3.9424,3.9424,3.9768,4.0292,4.0292,4.0696,4.1354,4.2013,4.2656,4.3304,-1.4815,-1.5114,0.0,0.0,-1.3341,-1.2656,-1.1621,-1.1336,-1.098,-1.0246,-0.9543,0.0,0.0,0.0,0.0,0.0,0.0,-0.3011,0.0,0.0,0.0,0.0,0.0,0.0,0.2678,0.3112,0.4056,0.5547,0.6363,0.6697,0.6635,0.7326,0.817,0.9255,0.9609,0.0,1.2154,0.0,1.3069,0.0,0.0,0.0,0.0,1.9774,2.2607,2.5016,2.6416,2.7418,2.7947,0.0,2.6552,0.0,0.0,0.0,0.0,0.0,0.0,0.0,0.0,0.0,0.0,0.0,0.0,0.0,2.2934,0.0,2.2981,0.0,0.0,0.0,0.0,0.0,0.0,0.0,2.5592,0.0,0.0,0.0,0.0,0.0,0.0,0.0,3.2611,3.3824,3.4882,3.5848,3.6079,3.6648,3.7764,3.8452,3.9005,3.9409,3.9424,3.9424,3.9424,3.9424,3.9424,3.9424,3.9424,3.9424,3.9424,3.9424,3.9424,3.9424,3.9424,3.9424,3.9424,3.9424,4.0073,4.1055,4.1024,4.1369,4.1983,4.2267,4.2776,4.3329,-1.3146,0.0,0.0,0.0,0.0,-1.0356,-0.9446,0.0,0.0,0.0,0.0,0.0,-0.599,-0.4656,0.0,0.0,-0.1155,0.0178,0.0,0.0,0.3309,0.0,0.0,0.0,0.0,0.4514,0.546,0.7109,0.7495,0.7649,0.7663,0.8016,0.891,1.0075,0.0,1.1836,1.4158,0.0,0.0,1.6498,1.6823,1.7739,1.9212,2.2226,2.4672,2.6565,2.7069,2.7822,2.8462,2.8083,2.6588,0.0,2.6854,0.0,0.0,0.0,0.0,0.0,2.2714,0.0,0.0,0.0,0.0,0.0,0.0,0.0,0.0,0.0,0.0,0.0,0.0,0.0,2.4393,0.0,0.0,2.6092,0.0,0.0,0.0,0.0,0.0,0.0,0.0,3.3594,3.4513,3.5,3.5644,3.6439,3.736,3.8033,3.8706,3.9394,3.9424,3.9424,3.9424,3.9424,3.9424,3.9424,3.9424,3.9424,3.9424,3.9424,3.9424,3.9424,3.9424,3.9424,3.9424,3.961,4.0466,4.1545,4.1608,4.2107,4.2626,4.2626,4.2925,4.3329,-0.9899,-1.0768,0.0,0.0,0.0,0.0,0.0,0.0,0.0,0.0,0.0,0.0,0.0,0.0,0.0,0.0,0.0,0.4109,0.4109,0.0,0.4295,0.0,0.0,0.4883,0.0,0.5906,0.647,0.7168,0.7265,0.7735,0.8464,0.8723,0.9253,1.0067,1.1653,1.2927,1.3981,1.5197,1.7135,1.9414,1.9343,2.1488,2.4492,0.0,2.497,2.6648,2.8007,0.0,0.0,2.6913,2.637,0.0,0.0,0.0,0.0,0.0,0.0,0.0,0.0,0.0,0.0,2.2214,0.0,0.0,0.0,0.0,2.2567,0.0,0.0,0.0,0.0,2.4496,0.0,0.0,0.0,0.0,0.0,0.0,0.0,0.0,0.0,0.0,0.0,3.1367,3.2094,3.3668,3.4375,3.5514,3.7315,3.8033,3.8706,3.9394,3.9424,3.9424,3.9424,3.9424,3.9424,3.9424,3.9424,3.9424,3.9424,3.9424,3.9424,3.9424,3.9424,3.9424,3.9481,4.0146,4.0868,4.149,4.2129,4.2728,4.3299,4.3299,4.3314,4.3409,0.0,0.0,0.0,0.0,0.0,0.0,0.0,-0.4292,0.0,0.0,0.0,0.0,0.0,0.1603,0.2829,0.0,0.0,0.5113,0.5305,0.5968,0.0,0.0,0.0,0.6483,0.0,0.0,0.7613,0.8282,0.8375,0.8755,0.9527,0.9616,1.0135,1.1005,1.2069,1.3653,0.0,0.0,0.0,0.0,0.0,2.2244,2.4472,0.0,2.6408,2.7661,2.8259,2.851,0.0,2.7932,2.718,2.6505,2.6937,2.6533,2.6033,2.6457,2.7005,2.7224,0.0,0.0,2.7868,2.4671,0.0,0.0,0.0,0.0,0.0,0.0,0.0,0.0,0.0,0.0,0.0,0.0,0.0,0.0,0.0,0.0,0.0,0.0,0.0,0.0,0.0,0.0,0.0,3.3668,3.4673,3.5704,3.6746,3.7404,3.8048,3.8721,3.9185,3.9424,3.9424,3.9424,3.9424,3.9424,3.9424,3.9424,3.9424,3.9424,3.9424,3.9424,3.9424,3.9424,3.9454,4.0164,4.1119,4.2175,4.2349,4.3061,4.4004,4.3488,4.3329,4.3329,-0.5797,0.0,0.0,0.0,0.0,0.0,0.0,0.0,0.0,0.0,0.0,0.0,0.2749,0.0,0.4225,0.0,0.5884,0.6335,0.6671,0.7092,0.0,0.764,0.7768,0.0,0.0,0.0,0.9341,1.0055,0.9795,1.0,1.0588,1.0662,1.1225,1.2095,1.2734,1.4521,1.7124,0.0,1.8603,0.0,0.0,2.3834,0.0,0.0,2.7498,2.7857,0.0,2.8919,2.9076,2.9076,2.8447,2.7834,2.8766,2.848,2.8002,2.8675,2.9176,2.944,2.8516,2.9564,0.0,2.683,2.6973,0.0,2.3587,0.0,0.0,0.0,0.0,0.0,0.0,0.0,0.0,0.0,0.0,0.0,0.0,2.5893,0.0,0.0,0.0,0.0,0.0,0.0,3.2796,3.3638,3.4706,3.5664,3.6432,3.7075,3.7719,3.8362,3.9065,3.9424,3.9424,3.9424,3.9424,3.9424,3.9424,3.9424,3.9424,3.9424,3.9424,3.9424,3.9424,3.9424,3.9469,4.0375,4.1316,4.219,4.2877,4.37,4.4358,4.363,4.3329,4.3329,0.0,0.0,0.0,0.0,-0.2234,0.0,0.0,0.0,0.0922,0.0,0.225,0.342,0.4856,0.5325,0.6089,0.7543,0.7628,0.784,0.8417,0.7805,0.0,0.0,0.964,1.0005,1.138,0.0,0.0,0.0,1.1405,1.1294,1.1802,1.2031,1.258,1.3303,1.3758,0.0,1.8377,1.8422,2.0271,2.3347,2.5136,2.6069,2.6704,2.8186,2.8093,2.7382,2.8809,2.9665,3.0086,3.017,3.017,3.017,3.0241,3.1567,3.3087,3.2425,3.372,3.4857,3.2221,3.1499,3.0964,2.8596,2.7999,0.0,0.0,0.0,2.5358,0.0,0.0,0.0,0.0,0.0,0.0,0.0,0.0,0.0,0.0,0.0,0.0,0.0,0.0,0.0,0.0,3.0298,3.1732,3.3517,3.4439,3.5374,0.0,3.7045,3.7674,3.8362,3.9065,3.9424,3.9424,3.9424,3.9424,3.9424,3.9424,3.9424,3.9424,3.9424,3.9424,3.9424,3.9424,3.9439,3.9586,4.0949,4.1492,4.1776,4.3862,4.4606,4.4434,4.3708,4.3409,4.3409,-0.1343,-0.0358,0.0179,0.0,-0.0447,-0.0447,0.0,0.0,0.0,0.0,0.4744,0.5818,0.6981,0.7265,0.7527,0.7929,0.7929,0.0,0.0,0.0,0.0,1.0702,1.1174,1.139,1.138,1.1446,0.0,1.2411,0.0,1.1745,1.2861,1.2913,1.3314,1.397,1.4314,1.5957,1.8347,1.8182,2.0474,2.4231,2.5589,2.6351,2.6832,0.0,2.9153,2.9403,2.9797,2.9965,3.017,3.0869,3.1034,3.1185,3.1915,3.2699,3.3272,3.3125,3.4162,3.5137,3.4411,3.4242,3.3862,3.1676,3.0726,2.9734,0.0,0.0,0.0,0.0,0.0,0.0,0.0,0.0,0.0,0.0,0.0,0.0,0.0,0.0,0.0,2.6233,0.0,0.0,0.0,3.0108,3.1694,3.2437,3.3955,3.5374,3.6417,0.0,3.7481,3.8347,3.9065,3.9424,3.9424,3.9424,3.9424,3.9424,3.9424,3.9424,3.9424,3.9424,3.9424,3.9424,3.9424,4.0039,4.1097,4.1853,4.2891,4.3966,4.5016,4.5394,4.5405,4.5184,4.511,4.5036,0.0359,0.0,0.0,0.2241,0.0,0.0,0.2903,0.0,0.0,0.5122,0.6094,0.0,0.7614,0.7851,0.8237,0.8627,0.8726,0.0,1.0563,0.0,0.0,1.2099,1.2267,1.2438,1.262,1.3111,0.0,1.3241,0.0,1.342,1.3957,1.4016,1.4485,1.5384,1.5476,1.6643,1.868,1.9877,2.1761,2.4221,2.6312,2.7269,0.0,2.9201,3.029,3.1107,3.1318,3.1573,3.1981,3.2064,3.2384,3.2782,3.3352,3.4086,3.4662,3.439,3.5189,3.6068,3.5782,3.5755,3.552,3.4352,3.3687,3.2871,3.0799,3.0376,3.0443,0.0,2.9838,2.9541,0.0,0.0,0.0,0.0,0.0,0.0,0.0,0.0,0.0,0.0,2.7321,0.0,2.8222,3.0679,3.2291,3.2463,3.3786,3.488,3.5465,0.0,3.711,3.7714,3.8837,3.9424,3.9424,3.9424,3.9424,3.9424,3.9424,3.9424,3.9424,3.9424,3.9424,3.9439,3.9723,4.0329,4.1172,4.2101,4.3156,4.4304,4.5627,4.6182,4.6182,4.6182,4.5753,4.5036,0.1614,0.0,0.0,0.0,0.0,0.0,0.0,0.5398,0.0,0.6643,0.0,0.7442,0.7955,0.8202,0.8692,0.9776,0.0,1.0551,1.2014,1.1671,1.2062,1.359,1.3205,1.3414,1.4478,1.5126,1.5159,0.0,0.0,1.532,1.498,1.5053,1.5752,1.6766,1.6634,0.0,0.0,2.2161,2.3557,2.4039,2.7105,2.8585,2.919,3.0336,3.1577,3.2663,3.306,3.3649,3.4223,3.3577,3.3901,3.4555,3.487,3.5628,3.6434,3.6032,3.6603,3.7302,3.6722,3.6504,3.6446,3.6446,3.6373,3.5869,3.4115,3.3845,3.397,3.3719,3.2351,3.2028,0.0,0.0,0.0,0.0,0.0,0.0,0.0,0.0,0.0,0.0,0.0,0.0,0.0,3.1268,3.2886,3.2846,3.3661,3.427,3.4501,0.0,3.6808,3.7222,3.8652,3.9424,3.9424,3.9424,3.9424,3.9424,3.9424,3.9424,3.9424,3.9424,3.9469,3.9574,4.0157,4.0561,4.089,4.2031,4.3062,4.3991,4.5943,4.6673,4.6673,4.6534,4.5665,4.4358,0.0,0.0,0.0,0.0,0.0,0.674,0.714,0.8265,0.9103,0.9449,0.9347,0.9746,1.0766,1.0242,1.0252,1.149,1.1428,0.0,0.0,0.0,0.0,1.4136,1.4076,1.4567,1.588,1.5776,1.5998,0.0,0.0,1.5715,1.5335,1.5535,1.5865,1.6324,1.6779,0.0,2.0639,2.2756,0.0,2.5874,2.7831,2.9462,3.0807,3.1593,3.3276,3.5022,3.4363,3.4139,3.4389,3.4992,3.5332,3.5655,3.6559,3.7042,3.7352,3.7468,3.7742,3.8028,3.7897,3.7506,3.7128,3.7128,3.6722,3.6171,3.5869,3.5825,3.5811,3.5754,3.548,3.5062,3.4401,0.0,0.0,0.0,0.0,0.0,0.0,0.0,0.0,0.0,0.0,3.048,0.0,0.0,3.1556,3.24,3.3229,3.448,3.6144,0.0,3.7223,0.0,3.9245,3.9424,0.0,0.0,3.9424,3.9424,3.9424,3.9424,3.9424,3.9424,3.9709,4.0232,4.0352,4.1353,4.2965,4.3195,4.413,4.5378,4.5722,4.5913,4.5841,4.5169,4.4737,4.445,0.0,0.0,0.0,0.0,0.0,0.0,0.0,1.1424,1.1915,1.0729,1.0502,1.0666,1.1372,1.1262,1.1592,1.2628,1.2628,1.3021,1.3905,1.3785,1.414,1.5051,1.5229,0.0,1.6908,1.7589,1.7606,1.687,0.0,0.0,1.5957,1.6295,1.6643,1.7028,0.0,1.9496,0.0,0.0,0.0,2.6212,2.8391,3.0181,3.1601,3.2306,3.3918,3.5655,3.5156,3.5318,3.5722,3.5655,3.607,3.6652,3.7289,3.7625,3.7777,3.7991,3.8127,3.8202,3.8202,3.7984,3.7767,3.7767,3.7535,3.7288,3.7288,3.7288,3.7288,3.7288,3.7041,3.6258,3.4347,3.2649,0.0,0.0,0.0,0.0,0.0,0.0,0.0,0.0,0.0,0.0,0.0,0.0,0.0,0.0,0.0,0.0,0.0,0.0,3.6999,0.0,0.0,0.0,3.9424,0.0,3.9424,3.9424,3.9424,3.9424,3.9424,3.9768,4.0098,4.0442,4.113,4.1987,4.2971,4.3745,4.4443,4.511,4.5551,4.5478,4.5036,4.4662,4.422,4.3849,0.0,0.5922,0.0,0.0,0.9692,0.0,1.2436,1.3813,1.4115,1.2112,1.1732,1.1725,1.2208,1.2432,1.2873,1.3914,1.4168,1.457,1.5189,1.5413,1.5732,1.6191,1.6455,1.7073,1.8025,1.9239,1.9109,0.0,0.0,0.0,1.6875,1.7108,1.7591,1.8434,0.0,0.0,0.0,0.0,2.5775,2.6786,2.928,3.1075,3.2311,3.3191,3.4568,3.599,3.599,3.6415,3.69,3.6243,3.6559,3.7303,3.7625,3.7777,3.7929,3.8127,3.8202,3.8202,3.8202,3.8202,3.8202,3.8202,3.8202,3.8202,3.8202,3.8202,3.8202,3.8202,3.7825,3.6823,3.4606,3.3604,0.0,0.0,0.0,0.0,0.0,0.0,0.0,0.0,0.0,0.0,3.1752,0.0,0.0,0.0,0.0,0.0,3.6026,0.0,0.0,0.0,0.0,3.9272,3.9272,0.0,3.9424,3.9424,3.9424,3.9424,3.9439,4.0098,4.0472,4.0666,4.1848,4.2432,4.2689,4.3776,4.422,4.4297,4.4962,4.4812,4.422,4.422,4.3849,4.3359,0.0,0.0,0.0,0.0,0.0,0.0,1.26,1.397,1.4957,1.4725,1.3984,1.3915,1.5,1.449,1.4421,1.56,1.6412,1.6863,1.6939,1.7675,1.7974,1.7661,1.7743,1.8267,1.9347,1.9438,1.9695,0.0,0.0,1.8964,0.0,1.794,1.894,0.0,0.0,0.0,0.0,2.5797,2.7133,2.8858,3.0856,3.2364,3.3509,3.4928,3.607,3.69,3.69,3.69,3.6978,3.7148,3.7226,3.738,3.7777,3.7853,3.7929,3.8127,3.8202,3.8202,3.8202,3.8202,3.8202,3.8202,3.8202,3.8202,3.8202,3.8202,3.8202,3.8202,3.8159,3.7461,3.5252,3.5913,3.6129,0.0,0.0,0.0,0.0,0.0,0.0,0.0,0.0,0.0,0.0,3.3612,0.0,0.0,3.4759,0.0,0.0,0.0,0.0,3.8743,3.891,3.8985,3.8985,3.9253,3.9424,3.9424,3.9424,3.9424,3.9439,4.0098,4.0726,4.1324,4.2058,4.2701,4.3254,4.3379,4.3409,4.3409,4.3488,4.3472,4.3409,4.3409,4.3329,4.3419,0.0,0.0,0.0,0.0,0.0,0.0,0.0,1.6854,1.7421,1.7497,1.5921,1.5025,1.5716,1.6031,1.6411,1.6842,1.7873,1.8341,1.815,1.8419,1.8805,1.9059,1.9421,1.993,2.0718,2.1068,2.121,0.0,0.0,0.0,0.0,0.0,0.0,0.0,0.0,2.4446,2.6271,2.7245,2.8855,3.0829,3.1751,3.3186,3.4902,3.5494,3.6243,3.6978,3.7148,3.7148,3.7226,3.7534,3.7625,3.7534,3.7777,3.8005,3.8066,3.8202,3.8202,3.8202,3.8202,3.8202,3.8202,3.8202,3.8202,3.8202,3.8202,3.8202,3.8202,3.8202,3.8202,3.7895,3.7054,3.6736,3.6577,3.6534,0.0,0.0,0.0,0.0,0.0,0.0,0.0,0.0,0.0,0.0,0.0,0.0,0.0,0.0,0.0,0.0,0.0,3.8726,0.0,3.9219,3.9219,3.9346,3.9424,3.9424,3.9424,3.9634,4.0023,4.0681,4.1564,4.2566,4.2836,4.309,4.3329,4.3329,4.3329,4.3329,4.3329,4.3329,4.3329,4.3329,4.3584,4.3958,1.5398,0.0,1.5833,0.0,1.7547,1.7838,1.8803,1.8891,1.8979,1.9199,1.7694,1.6612,1.681,1.7569,1.8094,1.8094,1.9027,1.9648,1.9415,1.9806,2.0253,2.0598,2.1059,0.0,2.2326,2.2677,2.2909,2.2969,2.1823,0.0,0.0,0.0,0.0,0.0,2.5209,2.6441,2.8046,2.9127,3.066,3.2427,3.2995,3.4212,3.5749,3.599,3.648,3.7056,3.7226,3.7303,3.738,3.7777,3.7777,3.7701,3.7915,3.8066,3.8202,3.8202,3.8202,3.8202,3.8202,3.8202,3.8202,3.8202,3.8202,3.8202,3.8202,3.8202,3.8202,3.8202,3.8202,3.8202,3.8202,3.7417,3.704,3.8057,0.0,0.0,0.0,0.0,0.0,0.0,3.6188,3.6058,3.6193,3.6141,0.0,0.0,0.0,0.0,0.0,0.0,0.0,0.0,0.0,0.0,3.9253,3.932,3.9424,3.9424,3.9619,3.9948,4.0427,4.128,4.2282,4.3329,4.3329,4.3329,4.3329,4.3329,4.3329,4.3329,4.3329,4.3329,4.3359,4.3554,4.3913,4.4377,1.7397,1.7455,1.7559,1.8621,1.8738,1.8847,1.9169,1.922,1.922,1.9228,1.9117,1.9117,1.9124,1.9124,1.9228,1.9228,2.0261,2.0885,2.0877,2.2215,2.2772,0.0,0.0,2.3144,2.4015,2.4108,2.4433,2.513,0.0,0.0,2.3634,0.0,2.4512,2.6583,2.654,2.8138,3.0679,3.1509,3.2485,3.3577,3.5076,3.5655,3.583,3.6652,3.6978,3.7056,3.7226,3.7303,3.738,3.7777,3.7929,3.7929,3.8127,3.8202,3.8202,3.8202,3.8202,3.8202,3.8202,3.8202,3.8202,3.8202,3.8202,3.8202,3.8202,3.8202,3.8202,3.8202,3.8202,3.8202,3.8202,3.8188,3.8188,3.8202,0.0,0.0,0.0,0.0,0.0,3.5765,3.5634,3.5869,3.6193,3.662,0.0,0.0,0.0,0.0,0.0,0.0,0.0,3.8879,3.8879,0.0,3.8895,3.9223,3.9424,3.9424,4.0083,4.0382,4.0442,4.1758,4.2701,4.3329,4.3329,4.3329,4.3329,4.3329,4.3329,4.3329,4.3329,4.3329,4.3404,4.4062,4.4302,4.4511,2.0459,2.0525,2.0679,2.1252,2.1435,2.1374,2.1489,2.1505,2.1505,2.1505,2.1505,2.1505,2.1505,2.0783,2.0364,0.0,2.1404,2.2123,0.0,2.2745,2.3285,2.403,2.4324,2.4794,2.5561,2.5746,2.6082,2.6702,0.0,0.0,0.0,2.5799,2.7019,2.9164,2.9152,3.0348,3.2465,3.2657,3.361,3.5063,3.5507,3.6084,3.6652,3.707,3.7226,3.7226,3.7625,3.7701,3.7777,3.7991,3.8142,3.8142,3.8202,3.8202,3.8202,3.8202,3.8202,3.8202,3.8202,3.8202,3.8202,3.8202,3.8202,3.8202,3.8202,3.8202,3.8202,3.8202,3.8202,3.8202,3.8202,3.8202,3.8202,3.8202,3.8202,0.0,3.8202,0.0,3.7826,3.7405,3.7521,3.7666,3.7955,3.8204,0.0,0.0,0.0,0.0,0.0,0.0,0.0,0.0,3.9068,0.0,3.9238,3.9376,3.9649,4.0083,4.0307,4.0876,4.1773,4.2626,4.3135,4.3329,4.3329,4.3329,4.3329,4.3329,4.3329,4.3329,4.3329,4.3599,4.4032,4.4242,4.49,4.5738,2.2158,2.2201,2.2278,2.261,2.2644,2.2644,2.2644,2.2644,2.2644,2.2644,2.2644,2.2644,2.2644,2.2021,0.0,2.1505,2.2619,2.3429,2.3529,2.4106,2.4777,2.5557,2.5848,2.6401,2.7138,2.7334,0.0,2.821,2.7082,2.6875,2.7404,2.8026,2.9153,3.0723,3.1224,3.2421,3.4028,3.4109,3.4902,3.6163,3.6163,3.6573,3.7148,3.7226,3.738,3.7457,3.7777,3.7929,3.7929,3.8127,3.8202,3.8202,3.8202,3.8202,3.8202,3.8202,3.8202,3.8202,3.8202,3.8202,3.8202,3.8202,3.8202,3.8202,3.8202,3.8202,3.8202,3.8202,3.8202,3.8202,3.8202,3.8202,3.8202,3.8202,3.8202,3.8202,3.8202,0.0,3.8103,0.0,0.0,0.0,0.0,3.8455,3.8674,0.0,0.0,0.0,0.0,0.0,3.9032,3.8938,3.9272,3.9424,3.9424,3.9664,3.9993,4.0412,4.0905,4.1698,4.2746,4.315,4.3329,4.3329,4.3329,4.3329,4.3329,4.3329,4.3329,4.3359,4.3599,4.3958,4.4377,4.4885,4.5603,4.6367,2.2644,2.2644,2.2644,2.2644,2.2644,2.2644,2.2644,2.2644,2.2653,2.2653,2.2644,2.2745,2.2745,2.3046,2.3046,2.2837,0.0,0.0,2.4679,2.6021,2.6884,2.6884,2.7179,2.7757,2.8817,2.8817,2.9068,2.955,2.9045,2.889,2.8965,3.0049,3.088,3.1527,3.2772,3.4136,3.5467,3.5655,3.6243,3.6978,3.6978,3.7148,3.7303,3.7303,3.7457,3.7625,3.7853,3.7929,3.7929,3.8127,3.8202,3.8202,3.8202,3.8202,3.8202,3.8202,3.8202,3.8202,3.8202,3.8202,3.8202,3.8202,3.8202,3.8202,3.8202,3.8202,3.8202,3.8202,3.8202,3.8202,3.8202,3.8202,3.8202,3.8202,3.8202,3.8202,3.8202,3.8366,3.8003,0.0,0.0,0.0,3.7057,3.7573,3.8322,0.0,0.0,0.0,0.0,0.0,3.8706,3.9394,3.9424,3.9439,3.9484,4.0098,4.0442,4.0546,4.1833,4.2746,4.3329,4.3329,4.3329,4.3329,4.3329,4.3329,4.3329,4.3329,4.3359,4.3464,4.4077,4.4377,4.4601,4.5858,4.6352,4.6486,0.0,0.0,2.2644,2.2644,2.2644,2.2644,2.2644,2.2644,2.2863,2.3591,2.3564,2.3628,2.4304,2.4786,2.507,2.4973,2.4884,2.5168,2.6214,2.6597,2.7263,2.8236,2.8341,2.8817,2.984,2.984,2.9886,3.0044,3.0097,3.0449,3.1192,3.165,3.2726,3.4344,3.4684,3.5506,3.6559,3.6652,3.6822,3.6978,3.7148,3.7226,3.7303,3.7625,3.7777,3.7853,3.8066,3.8127,3.8127,3.8202,3.8202,3.8202,3.8202,3.8202,3.8202,3.8202,3.8202,3.8202,3.8202,3.8202,3.8202,3.8202,3.8202,3.8202,3.8202,3.8202,3.8202,3.8202,3.8202,3.8202,3.8202,3.8202,3.8202,3.8202,3.8202,3.8202,3.8202,3.8202,3.8175,0.0,3.7957,3.8075,3.815,3.8414,3.8501,0.0,0.0,3.8631,3.8631,3.8482,3.8706,3.9394,3.9424,3.9664,4.0172,4.0322,4.0905,4.1908,4.2716,4.318,4.3329,4.3329,4.3329,4.3329,4.3329,4.3329,4.3329,4.3329,4.3629,4.4092,4.4257,4.4945,4.5888,4.6202,4.6636,4.71,2.2737,2.2581,2.2615,2.2629,2.2581,2.2607,2.2629,2.2611,2.2953,2.3962,2.4646,2.5156,2.5285,2.5838,2.6416,2.6894,2.6607,2.6798,2.7463,2.8017,2.8691,2.9371,2.9371,2.9658,3.0216,3.0216,3.0464,3.0968,3.1146,3.1665,3.2673,3.3382,3.4223,3.5305,3.5803,3.6387,3.6978,3.6978,3.6978,3.6978,3.7226,3.738,3.7457,3.7777,3.7929,3.8066,3.8127,3.8202,3.8202,3.8202,3.8202,3.8202,3.8202,3.8202,3.8202,3.8202,3.8202,3.8202,3.8202,3.8202,3.8202,3.8202,3.8202,3.8202,3.8202,3.8202,3.8202,3.8202,3.8202,3.8202,3.8202,3.8202,3.8202,3.8202,3.7895,3.7808,3.8159,3.7881,3.7823,3.8173,3.8202,3.8352,3.8575,3.8723,3.8796,3.8686,3.8713,0.0,3.8856,3.8784,3.8949,3.9409,3.9709,4.0038,4.0397,4.0995,4.1803,4.2821,4.3165,4.3329,4.3329,4.3329,4.3329,4.3329,4.3329,4.3329,4.3359,4.3658,4.3988,4.4377,4.499,4.5678,4.6367,4.6666,4.6995,4.7309,2.3367,2.3045,2.3,2.2805,2.3054,2.335,2.3287,2.3117,2.3349,2.4431,2.582,2.6587,2.6264,2.6798,2.7547,2.8423,2.8516,2.8609,2.8609,2.9646,3.0216,3.0216,3.0216,3.0216,3.0216,3.0385,3.0979,3.2079,3.2166,3.2759,3.3875,3.4884,3.5467,3.5642,3.6559,3.6978,3.6978,3.6978,3.6978,3.707,3.7226,3.7457,3.7701,3.7853,3.8066,3.8202,3.8202,3.8202,3.8202,3.8202,3.8202,3.8202,3.8202,3.8202,3.8202,3.8202,3.8202,3.8202,3.8202,3.8202,3.8202,3.8202,3.8202,3.8202,3.8202,3.8202,3.8202,3.8202,3.8202,3.8202,3.8202,3.8202,3.8173,3.8011,3.756,3.7356,3.7924,0.0,3.7399,3.8144,3.8202,3.8352,3.8723,3.8782,3.8943,3.9265,3.9177,3.9237,3.9414,3.9341,3.9385,3.9636,4.0157,4.0502,4.0696,4.1908,4.2776,4.3329,4.3329,4.3329,4.3329,4.3329,4.3329,4.3344,4.3449,4.3479,4.3524,4.4182,4.4526,4.4736,4.5873,4.6381,4.6546,4.71,4.7309,4.7309,2.5273,2.5185,2.4932,2.4012,2.5321,2.6615,2.6585,2.541,2.5139,2.6602,2.6774,2.7241,2.8542,2.8861,2.9095,2.929,2.9658,2.9932,2.9932,3.0125,3.0216,3.0216,3.0216,3.0216,3.0216,3.1146,3.2003,3.2809,3.3382,3.4139,3.5047,3.548,3.607,3.673,3.69,3.6978,3.6978,3.6978,3.707,3.7303,3.7457,3.7701,3.7853,3.8066,3.8202,3.8202,3.8202,3.8202,3.8202,3.8202,3.8202,3.8202,3.8202,3.8202,3.8202,3.8202,3.8202,3.8202,3.8202,3.8202,3.8202,3.8202,3.8202,3.8202,3.8202,3.8202,3.8202,3.8202,3.8202,3.8202,3.8202,3.8202,3.7968,3.7298,3.7632,3.7837,3.7269,0.0,3.8101,3.8188,3.8366,3.8441,3.8516,3.8723,3.8855,3.887,3.9017,3.9283,3.9697,3.9891,4.0218,4.0859,4.0562,4.0935,4.2043,4.2806,4.324,4.3329,4.3329,4.3329,4.3329,4.3329,4.3329,4.3359,4.3928,4.4167,4.4212,4.487,4.5484,4.6037,4.6247,4.6666,4.7174,4.7264,4.7309,4.7309,2.6557,2.617,2.5936,2.5809,2.616,2.6825,2.7892,2.7438,2.7314,2.8199,2.847,2.8811,2.9276,2.9691,2.9852,2.9852,3.0034,3.0216,3.0216,3.0216,3.0216,3.0216,3.0216,3.0397,3.0758,3.1488,3.2599,3.3914,3.4402,3.5224,3.6229,3.6322,3.6573,3.6978,3.6978,3.6978,3.6978,3.7148,3.7226,3.7303,3.7625,3.7853,3.7929,3.8127,3.8202,3.8202,3.8202,3.8202,3.8202,3.8202,3.8202,3.8202,3.8202,3.8202,3.8202,3.8202,3.8202,3.8202,3.8202,3.8202,3.8202,3.8202,3.8202,3.8202,3.8202,3.8202,3.8202,3.8202,3.8202,3.8202,3.8202,3.8202,3.8115,3.7676,3.7589,3.7589,3.7632,3.7589,3.769,3.8159,3.8277,3.8366,3.8516,3.859,3.8649,3.8782,3.921,3.955,3.9784,4.0214,4.0716,4.1209,4.1394,4.1846,4.255,4.3021,4.325,4.3155,4.325,4.3329,4.3329,4.3329,4.3524,4.3883,4.4182,4.4511,4.49,4.5574,4.6037,4.6367,4.6711,4.704,4.7309,4.7309,4.7309,4.7309,2.7262,2.687,2.6764,2.7347,2.6904,2.6904,2.8376,2.8722,2.8921,2.9376,2.9872,3.0022,2.968,2.9943,3.0216,3.0216,3.0216,3.0216,3.0216,3.0216,3.0216,3.0216,3.0464,3.0913,3.1637,3.2352,3.3441,3.5101,3.5494,3.6136,3.6978,3.6978,3.6978,3.6978,3.6978,3.7056,3.707,3.7226,3.738,3.7457,3.7777,3.7929,3.8005,3.8127,3.8202,3.8202,3.8202,3.8202,3.8202,3.8202,3.8202,3.8202,3.8202,3.8202,3.8202,3.8202,3.8202,3.8202,3.8202,3.8202,3.8202,3.8202,3.8202,3.8202,3.8202,3.8202,3.8202,3.8202,3.8202,3.8202,3.8202,3.8202,3.8159,3.7939,0.0,3.7399,3.7866,3.756,3.7531,3.8144,3.8202,3.8366,3.8516,3.8647,3.881,3.8944,3.9562,4.0018,4.0088,4.0636,4.1146,4.1565,4.2125,4.252,4.2688,4.301,4.309,4.2915,4.3155,4.325,4.325,4.3414,4.3838,4.4332,4.4646,4.5065,4.5589,4.6277,4.6546,4.6606,4.7115,4.7309,4.7309,4.7309,4.7309,4.7309,2.7262,2.762,2.7904,2.7904,2.8258,2.8412,2.8358,2.8768,2.9364,3.0067,3.0182,3.0205,3.0136,3.0216,3.0216,3.0216,3.0216,3.0216,3.0216,3.0216,3.0216,3.0216,3.1223,3.2091,3.2907,3.4306,3.5494,3.6312,3.6679,3.69,3.6978,3.6978,3.6978,3.6978,3.6978,3.707,3.7303,3.7303,3.7534,3.7853,3.7853,3.7991,3.8202,3.8202,3.8202,3.8202,3.8202,3.8202,3.8202,3.8202,3.8202,3.8202,3.8202,3.8202,3.8202,3.8202,3.8202,3.8202,3.8202,3.8202,3.8202,3.8202,3.8202,3.8202,3.8202,3.8202,3.8202,3.8202,3.8202,3.8202,3.8202,3.8202,3.7939,3.7226,0.0,0.0,3.7212,3.7661,3.8144,3.8202,3.8366,3.8441,3.8516,3.9057,3.9408,3.9484,3.9993,4.0558,4.0997,4.1244,4.1595,4.2005,4.2252,4.2496,4.2688,4.2688,4.2769,4.2688,4.2915,4.2996,4.301,4.3877,4.4272,4.4392,4.5633,4.6202,4.6307,4.6965,4.7234,4.7234,4.7279,4.7309,4.7309,4.7309,4.7309,4.7309,2.8279,2.8269,2.8445,2.8445,2.8538,2.8806,2.8969,2.9209,2.9541,3.0114,3.0217,3.0194,3.0216,3.0216,3.0216,3.0216,3.0216,3.0216,3.0216,3.0209,3.0507,3.1211,3.2339,3.3284,3.4082,3.4897,3.5669,3.6405,3.6758,3.6978,3.6978,3.6978,3.6978,3.6978,3.7148,3.7226,3.7303,3.7548,3.7777,3.7929,3.8066,3.8127,3.8202,3.8202,3.8202,3.8202,3.8202,3.8202,3.8202,3.8202,3.8202,3.8202,3.8202,3.8202,3.8202,3.8202,3.8202,3.8202,3.8202,3.8202,3.8202,3.8202,3.8202,3.8202,3.8202,3.8202,3.8202,3.8202,3.8202,3.8202,3.8202,3.8202,3.813,3.7823,0.0,3.8115,3.7823,3.7982,3.8202,3.8202,3.8641,3.8903,3.8903,3.9532,3.9896,3.9896,4.0587,4.1054,4.1076,4.1578,4.1913,4.2092,4.2175,4.2242,4.2325,4.2541,4.2622,4.2541,4.2835,4.3218,4.3634,4.3968,4.4616,4.5589,4.5943,4.639,4.695,4.7204,4.7309,4.7309,4.7309,4.7309,4.7309,4.7309,4.7309,4.7309,2.9532,2.9521,2.9532,2.9268,2.9624,2.9818,2.9749,2.9943,3.0125,3.0216,3.0216,3.0216,3.0216,3.0216,3.0306,3.0487,3.0306,3.0306,3.0656,3.0954,3.1613,3.2711,3.3661,3.4389,3.491,3.548,3.6084,3.6628,3.6836,3.6978,3.6978,3.707,3.707,3.707,3.7303,3.7457,3.7534,3.7777,3.7929,3.8005,3.8127,3.8202,3.8202,3.8202,3.8202,3.8202,3.8202,3.8202,3.8202,3.8202,3.8202,3.8202,3.8202,3.8202,3.8202,3.8202,3.8202,3.8202,3.8202,3.8202,3.8202,3.8202,3.8202,3.8202,3.8202,3.8202,3.8202,3.8202,3.8202,3.8202,3.8202,3.8202,3.8202,3.8202,3.8202,3.8202,3.8202,3.8376,3.8507,3.8507,3.9088,3.9479,3.9479,4.0046,4.0408,4.0408,4.1179,4.1558,4.141,4.1845,4.2092,4.2092,4.2092,4.2092,4.2092,4.2392,4.2459,4.2407,4.2976,4.3464,4.402,4.4519,4.5287,4.6337,4.639,4.6733,4.7309,4.7309,4.7309,4.7309,4.7309,4.7309,4.7309,4.7309,4.7309,4.7309,3.0808,3.1288,3.14,3.0621,3.1512,3.1789,3.0385,3.0847,3.1038,3.0306,3.0216,3.0216,3.0216,3.0216,3.0487,3.1217,3.0668,3.0566,3.1536,3.2461,3.3482,3.4666,3.5139,3.5305,3.5305,3.6387,3.6978,3.6978,3.6978,3.6978,3.6978,3.7226,3.7303,3.7303,3.7534,3.7701,3.7929,3.7929,3.7991,3.8202,3.8202,3.8202,3.8202,3.8202,3.8202,3.8202,3.8202,3.8202,3.8202,3.8202,3.8202,3.8202,3.8202,3.8202,3.8202,3.8202,3.8202,3.8202,3.8202,3.8202,3.8202,3.8202,3.8202,3.8202,3.8202,3.8202,3.8202,3.8202,3.8202,3.8202,3.8202,3.8202,3.8202,3.8202,3.8202,3.8217,3.8217,3.8783,3.9218,3.9218,3.9741,4.0104,4.0104,4.0713,4.1105,4.1105,4.1715,4.2092,4.2092,4.2092,4.2092,4.2092,4.2092,4.2092,4.2092,4.2092,4.2175,4.2407,4.3269,4.3841,4.4065,4.5639,4.6337,4.6367,4.7025,4.7309,4.7309,4.7309,4.7309,4.7309,4.7309,4.7309,4.7309,4.7309,4.7309,4.7309,3.1928,3.194,3.204,3.1777,3.1713,3.1472,3.1038,3.0758,3.0487,3.0216,3.0216,3.0216,3.0216,3.0668,3.1181,3.1677,3.1436,3.1616,3.2521,3.2845,3.3962,3.6193,3.6443,3.648,3.648,3.6822,3.6978,3.6978,3.7148,3.7226,3.7226,3.738,3.7534,3.7534,3.7701,3.7853,3.7929,3.8066,3.8127,3.8202,3.8202,3.8202,3.8202,3.8202,3.8202,3.8202,3.8202,3.8202,3.8202,3.8202,3.8202,3.8202,3.8202,3.8202,3.8202,3.8202,3.8202,3.8202,3.8202,3.8202,3.8202,3.8202,3.8202,3.8202,3.8202,3.8202,3.8202,3.8202,3.8202,3.8202,3.8202,3.8202,3.8202,3.8202,3.8594,3.8899,3.8899,3.9436,3.9828,3.9828,4.0408,4.08,4.08,4.141,4.1802,4.1802,4.199,4.2092,4.2092,4.2092,4.2092,4.2092,4.2092,4.2092,4.2092,4.2092,4.231,4.28,4.324,4.398,4.4961,4.5531,4.6132,4.6736,4.6929,4.7121,4.7309,4.7309,4.7309,4.7309,4.7309,4.7309,4.7309,4.7309,4.7309,4.7309,3.3177,3.3091,3.3091,3.276,3.2426,3.1913,3.1395,3.0949,3.0668,3.0668,3.0668,3.0746,3.1003,3.1625,3.214,3.271,3.2895,3.3246,3.3892,3.391,3.482,3.6886,3.6978,3.6978,3.6978,3.6978,3.7056,3.7148,3.7183,3.726,3.738,3.761,3.7687,3.7701,3.7915,3.7991,3.7991,3.8127,3.8202,3.8202,3.8202,3.8202,3.8202,3.8202,3.8202,3.8202,3.8202,3.8202,3.8202,3.8277,3.8277,3.8277,3.8277,3.8277,3.8202,3.8427,3.8352,3.8366,3.8427,3.8352,3.8277,3.8277,3.8277,3.8202,3.8202,3.8202,3.8202,3.8202,3.8202,3.8202,3.8202,3.842,3.8609,3.8609,3.9146,3.9567,3.9567,4.0104,4.0495,4.0495,4.1091,4.1497,4.1497,4.186,4.2092,4.2092,4.2092,4.2092,4.2092,4.2092,4.2092,4.2092,4.2092,4.2208,4.244,4.2455,4.2713,4.3091,4.377,4.4599,4.555,4.5974,4.6473,4.7019,4.7019,4.7121,4.7309,4.7309,4.7309,4.7309,4.7309,4.7309,4.7309,4.7309,4.7309,4.7309,3.4397,3.4397,3.423,3.3569,3.3484,3.2957,3.1649,3.1383,3.1383,3.1383,3.1383,3.1637,3.2314,3.2809,3.3407,3.4024,3.469,3.5182,3.5305,3.5251,3.5746,3.6978,3.6978,3.6964,3.6964,3.7056,3.7148,3.7303,3.7127,3.7295,3.7625,3.7749,3.7901,3.7929,3.8142,3.8202,3.8202,3.8202,3.8202,3.8202,3.8202,3.8202,3.8202,3.8202,3.8202,3.8202,3.8202,3.8202,3.8277,3.8441,3.8516,3.8516,3.8516,3.8427,3.8352,3.8708,3.8649,3.859,3.8723,3.8693,3.8603,3.8529,3.8498,3.8347,3.8231,3.8246,3.8289,3.8289,3.8333,3.8376,3.8376,3.887,3.9276,3.9276,3.9784,4.0191,4.0191,4.0771,4.1192,4.1192,4.1729,4.2092,4.2092,4.2092,4.2092,4.2092,4.2092,4.2092,4.2092,4.2092,4.2092,4.2092,4.215,4.244,4.2992,4.3108,4.3251,4.3449,4.4703,4.5564,4.6028,4.6577,4.7019,4.7294,4.7294,4.7309,4.7309,4.7309,4.7309,4.7309,4.7309,4.7309,4.7309,4.7309,4.7309,4.7309,3.4397,3.4397,3.4314,3.423,3.3738,3.3313,3.2957,3.2413,3.2052,3.2052,3.2389,3.2649,3.2809,3.3746,3.4498,3.4979,3.5332,3.5588,3.5575,3.5345,3.5746,3.6978,3.6986,3.7021,3.7021,3.7211,3.7408,3.7534,3.7672,3.7763,3.7853,3.8066,3.8127,3.8127,3.8202,3.8202,3.8202,3.8202,3.8202,3.8202,3.8202,3.8202,3.8202,3.8202,3.8202,3.8202,3.8366,3.8441,3.8441,3.8649,3.8723,3.8723,3.8723,3.8723,3.8708,3.8782,3.8782,3.8723,3.859,3.8881,3.9276,3.9062,3.9334,3.9421,3.8434,3.8609,3.8986,3.8986,3.9363,3.9683,3.9683,3.9813,3.99,3.99,4.0452,4.0873,4.0873,4.1453,4.1874,4.1874,4.2005,4.2092,4.2092,4.2092,4.2092,4.2092,4.2092,4.2092,4.2092,4.2092,4.2092,4.2092,4.2557,4.2861,4.2992,4.3979,4.4472,4.4574,4.4851,4.5434,4.6197,4.6521,4.6756,4.7019,4.7019,4.7121,4.7309,4.7106,4.7121,4.7309,4.7309,4.7309,4.7309,4.7309,4.7309,4.7309,3.4397,3.4397,3.4397,3.4397,3.381,3.3398,3.3398,3.276,3.2476,3.2993,3.3335,3.3674,3.4262,3.5019,3.5683,3.6056,3.6229,3.6322,3.6322,3.616,3.6318,3.6978,3.7106,3.7246,3.7295,3.7577,3.7758,3.7672,3.7825,3.7915,3.8081,3.8127,3.8202,3.8202,3.8202,3.8202,3.8217,3.8551,3.8681,3.8696,3.8986,3.9102,3.9102,3.9102,3.9193,3.9299,3.9452,3.9604,3.9755,3.974,3.9815,3.989,3.989,3.9815,3.9801,3.9951,3.9876,3.974,3.9755,3.9839,3.9934,3.9794,3.995,3.9929,3.9262,3.9378,3.9625,3.9625,3.9871,4.0104,4.0104,4.0365,4.0583,4.0583,4.1134,4.157,4.157,4.1874,4.2092,4.2092,4.2092,4.2092,4.2092,4.2092,4.2092,4.2092,4.2092,4.2092,4.2092,4.2092,4.2223,4.2513,4.2832,4.3282,4.3892,4.456,4.5127,4.5521,4.5447,4.571,4.621,4.6314,4.658,4.6756,4.6844,4.7019,4.7121,4.7121,4.7207,4.7309,4.7309,4.7309,4.7309,4.7309,4.7309,4.7309,3.4397,3.4397,3.4397,3.4397,3.3979,3.3569,3.3654,3.3189,3.3164,3.4204,3.4371,3.4786,3.5723,3.6218,3.6615,3.6978,3.6978,3.6978,3.6978,3.6978,3.6978,3.707,3.724,3.7471,3.761,3.8016,3.8077,3.7886,3.7886,3.7962,3.8202,3.8202,3.826,3.8376,3.8376,3.8434,3.8565,3.9117,3.9349,3.9407,3.99,4.0104,4.0104,4.0182,4.029,4.049,4.0568,4.0864,4.1095,4.0926,4.1003,4.1171,4.1171,4.1018,4.1003,4.1293,4.1156,4.0849,4.1018,4.0846,4.0593,4.0593,4.0587,4.0502,4.0502,4.043,4.0342,4.0342,4.043,4.0502,4.0517,4.0968,4.1346,4.1265,4.1729,4.2092,4.2092,4.2092,4.2092,4.2092,4.2092,4.2092,4.2092,4.2092,4.2092,4.2092,4.2092,4.2092,4.2092,4.2194,4.2469,4.2977,4.3195,4.3905,4.5128,4.5245,4.5669,4.6373,4.621,4.6135,4.6314,4.6388,4.6476,4.6683,4.6756,4.6931,4.7019,4.7121,4.7294,4.7309,4.7309,4.7309,4.7309,4.7309,4.7309,4.7309,3.4397,3.4397,3.4397,3.4397,3.4314,3.4397,3.4825,3.4825,3.4895,3.5386,3.5804,3.6138,3.6312,3.6693,3.6915,3.6993,3.6978,3.6978,3.6978,3.6978,3.707,3.7226,3.7337,3.7553,3.7734,3.8066,3.8217,3.8127,3.8127,3.8127,3.8202,3.8202,3.8507,3.9059,3.9059,3.9349,3.9842,3.9944,3.9973,3.9987,4.006,4.0104,4.0104,4.0383,4.0476,4.0568,4.0864,4.1171,4.1384,4.1308,4.1308,4.1384,4.1384,4.1308,4.1308,4.1384,4.1232,4.1018,4.0849,4.117,4.1504,4.1345,4.1836,4.2342,4.2342,4.1741,4.1251,4.1251,4.1785,4.2276,4.2129,4.2202,4.2193,4.1961,4.2034,4.2092,4.2092,4.2092,4.2092,4.2092,4.2092,4.2092,4.2092,4.2092,4.2092,4.2092,4.2092,4.2092,4.2092,4.2586,4.2919,4.2992,4.4066,4.5126,4.6047,4.6614,4.6942,4.7031,4.7031,4.6887,4.6594,4.7163,4.7249,4.6844,4.6668,4.6858,4.7207,4.7019,4.7106,4.7309,4.7309,4.7309,4.7309,4.7309,4.7309,4.7309,3.4397,3.4564,3.4825,3.4825,3.4977,3.5223,3.5399,3.548,3.5562,3.6058,3.6232,3.647,3.6693,3.6915,3.6978,3.6978,3.6978,3.707,3.7148,3.7148,3.7226,3.7457,3.7582,3.7734,3.781,3.8037,3.8202,3.8202,3.8202,3.8202,3.8217,3.858,3.8957,3.9382,3.9581,3.9935,4.0319,4.0654,4.0879,4.1002,4.1433,4.158,4.158,4.1689,4.1768,4.1912,4.2242,4.2399,4.2476,4.2476,4.2476,4.2476,4.2476,4.2476,4.2476,4.2476,4.2306,4.2149,4.207,4.2054,4.2115,4.21,4.232,4.2541,4.2688,4.2386,4.21,4.1938,4.2254,4.2474,4.2242,4.2242,4.216,4.2092,4.2092,4.2092,4.2092,4.2092,4.2092,4.2092,4.2092,4.2092,4.2092,4.2092,4.2092,4.2092,4.2411,4.26,4.26,4.3195,4.3945,4.4778,4.5339,4.6211,4.7486,4.779,4.8027,4.8126,4.8027,4.7291,4.6239,4.6491,4.6565,4.6476,4.658,4.6771,4.7106,4.7121,4.7207,4.7309,4.7309,4.7309,4.7309,4.7309,4.7309,4.7309]}]]